     2.11           OBSERVATION DATA    G (GPS)             RINEX VERSION / TYPE
teqc 2010Oct21 OPUS Account 20111026 15:16:16UTC            PGM / RUN BY / DATE
K 1522                                                      MARKER NAME
1165                                                        MARKER NUMBER
CSMIDDLETON NGS                                             OBSERVER / AGENCY
0220269730 TRIMBLE 5700 NP 1.22 / SP 1.22                   REC # / TYPE / VERS
60041226 TRM41249.00 NONE                                   ANT # / TYPE
  -737926.2419 -5495549.3109  3141629.4000                  APPROX POSITION XYZ
        2.0010        0.0000        0.0000                  ANTENNA: DELTA H/E/N
     1     1                                                WAVELENGTH FACT L1/2
     5    L1    L2    C1    P1    P2                        # / TYPES OF OBSERV
    15                                                      LEAP SECONDS
  2011     7    31     0     0   30.0000000     GPS         TIME OF FIRST OBS
                                                            END OF HEADER
 11  7 31  0  0 30.0000000  0  8G09G28G10G17G04G27G20G02
 -25585768.77057 -19915210.34554  22189183.3284                   22189184.6524
 -80381932.66457 -62598395.87655  22140025.4844                   22140024.7504
 -15368664.73456 -11955617.79053  23176453.3984                   23176455.4844
 -65931423.41857 -51353200.44255  21630941.1254                   21630940.5314
 -53402090.65258 -41588533.43056  19966618.8444                   19966618.2034
 -37007246.79757 -28815556.01155  22489958.6724                   22489959.5234
 -19648579.43755 -15294580.38752  24520782.9774                   24520782.5634
 -27865067.63357 -21691417.96955  22062714.8134                   22062713.7034
 11  7 31  0  1  0.0000000  0  8G09G28G10G17G04G27G20G02
 -25677743.07847 -19986878.61844  22171680.8834                   22171681.8054
 -80402270.85547 -62614243.88245  22136155.2194                   22136155.5744
 -15539167.02046 -12088476.58144  23144008.0704                   23144010.5004
 -65977814.22347 -51389349.14745  21622113.2734                   21622112.8444
 -53481136.39848 -41650127.50046  19951576.6804                   19951576.1914
 -37085648.32447 -28876648.15045  22475039.6414                   22475040.4654
 -19680487.91846 -15319444.10542  24514710.6484                   24514710.0274
 -28016070.51247 -21809082.46845  22033979.6564                   22033978.1484
 11  7 31  0  1 30.0000000  0  9G09G28G10G17G12G04G27G20G02
 -25769011.49247 -20057996.84745  22154313.0004                   22154314.2194
 -80422172.23047 -62629751.52645  22132368.0704                   22132368.5204
 -15709476.51646 -12221185.17144  23111599.4614                   23111601.8014
 -66024054.45747 -51425380.51246  21613314.0784                   21613313.4064
   -259311.88756   -186546.01553  24713074.9924                   24713076.7344
 -53559558.80147 -41711235.85346  19936653.4304                   19936652.9144
 -37163499.90647 -28937311.78445  22460224.7034                   22460226.0394
 -19711861.30546 -15343890.93442  24508739.7584                   24508739.8324
 -28166685.52047 -21926444.74145  22005318.5164                   22005317.3404
 11  7 31  0  2  0.0000000  0  9G09G28G10G17G12G04G27G20G02
 -25859584.15247 -20128572.94344  22137077.9144                   22137078.7854
 -80441646.81247 -62644926.57145  22128662.4534                   22128662.6094
 -15879599.80546 -12353748.64944  23079225.4534                   23079227.5124
 -66070154.65647 -51461302.76146  21604541.0394                   21604540.8754
   -435252.09846   -323642.27043  24679593.9454                   24679596.4264
 -53637368.53947 -41771866.79246  19921846.8134                   19921846.5394
 -37240811.78546 -28997554.85545  22445513.0394                   22445514.5354
 -19742710.09046 -15367929.02742  24502870.6414                   24502870.7274
 -28316921.63347 -22043511.78145  21976729.3984                   21976728.3714
 11  7 31  0  2 30.0000000  0  9G09G28G10G17G12G04G27G20G02
 -25949468.57047 -20198612.73945  22119973.2034                   22119974.5394
 -80460702.50047 -62659775.21145  22125036.1254                   22125036.0204
 -16049540.61746 -12486169.91843  23046887.3054                   23046888.3754
 -66116122.00447 -51497121.48845  21595794.3984                   21595793.4924
   -611166.14146   -460718.06143  24646118.6334                   24646121.0084
 -53714574.01247 -41832026.88346  19907155.0394                   19907154.6094
 -37317591.98046 -29057383.60945  22430902.2274                   22430902.9414
 -19773042.91046 -15391565.00442  24497097.3204                   24497097.3594
 -28466784.95347 -22160288.32145  21948211.8754                   21948210.1334
 11  7 31  0  3  0.0000000  0  9G09G28G10G17G12G04G27G20G02
 -26038666.16847 -20268117.33345  22102999.5314                   22103000.6644
 -80479340.75447 -62674298.58145  22121489.5554                   22121489.4534
 -16219297.50046 -12618447.87144  23014583.1484                   23014584.8204
 -66161957.93747 -51532837.80946  21587071.9454                   21587071.1884
   -787054.29746   -597773.80542  24612648.8674                   24612649.4654
 -53791177.59847 -41891717.98446  19892578.0004                   19892577.6054
 -37393842.46146 -29116799.62145  22416392.4064                   22416393.3244
 -19802862.43446 -15414801.01343  24491423.1484                   24491423.2734
 -28616275.76647 -22276774.60045  21919764.1094                   21919763.1884
 11  7 31  0  3 30.0000000  0  9G09G28G10G17G12G04G27G20G02
 -26127168.63347 -20337080.29544  22086158.0234                   22086158.9454
 -80497553.35947 -62688490.28045  22118023.8364                   22118023.8094
 -16388858.72746 -12750573.39344  22982316.3834                   22982318.2664
 -66207654.44947 -51568445.50846  21578376.1024                   21578375.3524
   -962906.25046   -734801.22343  24579185.0944                   24579185.9494
 -53867171.32047 -41950933.85346  19878116.6414                   19878116.4884
 -37469555.27046 -29175796.66445  22401984.6884                   22401985.5864
 -19832161.56646 -15437631.53142  24485847.8754                   24485848.8674
 -28765384.56647 -22392963.20145  21891389.3444                   21891388.3954
 11  7 31  0  4  0.0000000  0  9G09G28G10G17G12G04G27G20G02
 -26214977.16447 -20405502.53544  22069449.2274                   22069449.2194
 -80515342.01647 -62702351.64845  22114639.0784                   22114639.2664
 -16558221.98846 -12882544.64844  22950086.8754                   22950089.8714
 -66253212.37547 -51603945.19645  21569706.5634                   21569706.3834
  -1138721.37546   -871799.93743  24545728.7194                   24545730.6174
 -53942557.68748 -42009676.46946  19863771.2974                   19863770.6524
 -37544732.09047 -29234376.04045  22387679.0864                   22387679.9924
 -19860942.05946 -15460057.88742  24480370.8364                   24480371.3834
 -28914111.28947 -22508854.08745  21863087.6564                   21863086.3794
 11  7 31  0  4 30.0000000  0  9G09G28G10G17G12G04G27G20G02
 -26302090.09447 -20473382.73945  22052871.6884                   22052872.6054
 -80532705.03147 -62715881.33644  22111334.7734                   22111334.7034
 -16727381.82046 -13014357.37244  22917897.1884                   22917899.7774
 -66298629.61747 -51639335.27946  21561064.0704                   21561063.9924
  -1314495.93046  -1008767.03943  24512279.3364                   24512281.5124
 -54017335.43748 -42067944.84246  19849541.4064                   19849540.9964
 -37619371.53547 -29292536.70445  22373475.8364                   22373476.5274
 -19889203.40246 -15482079.70143  24474993.2194                   24474994.4694
 -29062453.04747 -22624445.00845  21834858.9694                   21834857.9384
 11  7 31  0  5  0.0000000  0  9G09G28G10G17G12G04G27G20G02
 -26388504.38347 -20540718.55444  22036427.6564                   22036428.3054
 -80549639.59447 -62729077.14644  22108112.0634                   22108112.3674
 -16896331.83246 -13146006.61244  22885746.7274                   22885749.1804
 -66343903.48847 -51674613.60346  21552448.5314                   21552448.4654
  -1490224.96546  -1145698.63343  24478838.8444                   24478840.3834
 -54091502.50047 -42125737.33346  19835428.1254                   19835427.4654
 -37693471.36747 -29350276.87445  22359374.2114                   22359375.9264
 -19916943.75046 -15503695.64243  24469713.9144                   24469715.8054
 -29210405.85547 -22739732.82045  21806704.9224                   21806703.8554
 11  7 31  0  5 30.0000000  0  9G09G28G10G17G12G04G27G20G02
 -26474217.48847 -20607508.00644  22020116.7114                   22020117.7154
 -80566143.12947 -62741937.12544  22104971.8984                   22104971.6334
 -17065066.00446 -13277487.66844  22853637.9844                   22853640.5044
 -66389031.12147 -51709778.01746  21543861.0084                   21543861.2704
  -1665904.24245  -1282591.39743  24445408.9384                   24445410.1254
 -54165056.85948 -42183052.42146  19821431.4304                   19821430.6684
 -37767029.09847 -29407594.60545  22345377.1414                   22345378.4024
 -19944161.32846 -15524904.14943  24464534.5784                   24464535.8634
 -29357965.53947 -22854714.34345  21778625.1724                   21778623.6564
 11  7 31  0  6  0.0000000  0  9G09G28G10G17G12G04G27G20G02
 -26559227.41847 -20673749.54245  22003940.4614                   22003940.6414
 -80582213.83247 -62754459.80744  22101913.7344                   22101913.9614
 -17233578.58246 -13408796.06944  22821570.8834                   22821573.6334
 -66434010.27347 -51744826.70346  21535302.3914                   21535301.6334
  -1841529.47345  -1419442.16042  24411988.3364                   24411989.1374
 -54237997.77048 -42239889.49646  19807550.6254                   19807550.4844
 -37840043.33647 -29464488.84445  22331483.2344                   22331484.6564
 -19970855.22346 -15545704.62243  24459454.9224                   24459456.9184
 -29505128.90647 -22969387.03445  21750620.8914                   21750619.7774
 11  7 31  0  6 30.0000000  0  9G09G28G10G17G12G04G27G20G02
 -26643539.69947 -20739447.41044  21987895.8054                   21987897.0354
 -80597857.12947 -62766649.45244  22098936.6724                   22098937.4224
 -17401871.11347 -13539932.96444  22789545.9844                   22789548.5554
 -66478845.91047 -51779763.55945  21526770.1094                   21526770.0864
  -2017103.78545  -1556253.16443  24378577.4144                   24378578.7304
 -54310330.78547 -42296252.88246  19793786.0704                   19793785.8054
 -37912519.69947 -29520963.94045  22317691.3754                   22317692.8674
 -19997031.77046 -15566102.01943  24454473.6094                   24454475.3094
 -29651900.11747 -23083754.13845  21722690.9224                   21722690.1454
 11  7 31  0  7  0.0000000  0  9G09G28G10G17G12G04G27G20G02
 -26727153.50847 -20804601.06645  21971984.2974                   21971985.8674
 -80613072.46547 -62778505.62744  22096041.5474                   22096041.7544
 -17569939.06246 -13670894.87844  22757563.8914                   22757566.5904
 -66523537.21147 -51814587.96046  21518265.6724                   21518265.4884
  -2192625.01646  -1693022.75643  24345175.8444                   24345178.3404
 -54382056.27047 -42352142.85946  19780137.2974                   19780137.1054
 -37984457.89146 -29577019.69645  22304002.1024                   22304003.5004
 -20022691.52746 -15586096.64643  24449590.7034                   24449592.1254
 -29798277.00447 -23197813.98445  21694836.4774                   21694834.7194
 11  7 31  0  7 30.0000000  0  9G09G28G10G17G12G04G27G20G02
 -26810066.51647 -20869208.62445  21956207.2664                   21956208.2304
 -80627857.43047 -62790026.41844  22093227.6174                   22093228.1764
 -17737776.84446 -13801677.44644  22725625.6884                   22725627.0084
 -66568081.64847 -51849297.91746  21509789.0314                   21509789.1564
  -2368088.52046  -1829747.45043  24311786.4694                   24311788.8324
 -54453172.37147 -42407558.00946  19766604.3364                   19766604.0744
 -38055856.19146 -29632654.76445  22290415.2734                   22290416.7774
 -20047832.69946 -15605687.14043  24444807.5554                   24444808.8874
 -29944255.66447 -23311563.52345  21667057.1094                   21667056.3244
 11  7 31  0  8  0.0000000  0  9G09G28G10G17G12G04G27G20G02
 -26892280.13747 -20933271.22944  21940562.5004                   21940562.6914
 -80642213.87147 -62801213.32644  22090496.2664                   22090496.5944
 -17905382.02746 -13932278.76244  22693730.1174                   22693733.1214
 -66612480.11347 -51883894.13346  21501340.5554                   21501340.1644
  -2543493.27746  -1966426.33243  24278408.0394                   24278410.3554
 -54523681.74247 -42462500.37046  19753187.0864                   19753186.4024
 -38126716.27746 -29687870.42745  22276931.3984                   22276932.3914
 -20072457.79746 -15624875.69243  24440120.1564                   24440122.4844
 -30089836.38347 -23425002.98745  21639354.1954                   21639353.1844
 11  7 31  0  8 30.0000000  0  8G09G28G10G17G12G04G27G02
 -26973793.30547 -20996788.02744  21925051.2584                   21925052.0704
 -80656140.43047 -62812065.24744  22087845.9924                   22087846.8594
 -18072749.41446 -14062694.79444  22661881.6174                   22661883.4454
 -66656731.40647 -51918375.63946  21492919.7344                   21492919.2344
  -2718835.83646  -2103056.76343  24245041.7974                   24245043.7894
 -54593583.43447 -42516969.21146  19739885.0704                   19739884.9064
 -38197037.25847 -29742665.99745  22263549.0474                   22263550.5594
 -30235016.59847 -23538130.34345  21611727.2894                   21611725.8164
 11  7 31  0  9  0.0000000  0  8G09G28G10G17G12G04G27G02
 -25479184.40647 -19832157.73744  22209465.8444                   22209466.6054
 -79094217.70347 -61594982.66444  22385069.9304                   22385070.4654
 -16664451.09846 -12965319.36944  22929872.0784                   22929874.2114
 -65125414.14147 -50725141.41745  21784319.6564                   21784319.6884
  -1318689.34046  -1012033.36344  24511480.4304                   24511482.3674
 -53087457.06248 -41343364.24246  20026491.5314                   20026491.3594
 -36691398.32447 -28569440.88045  22550063.6484                   22550064.1484
 -28804371.26647 -22423341.71345  21883970.4924                   21883969.2114
 11  7 31  0  9 30.0000000  0  8G09G28G10G17G12G04G27G02
 -25559284.42647 -19894573.37644  22194222.7584                   22194224.0664
 -79107272.16047 -61605155.04244  22382585.9304                   22382586.3914
 -16831319.73846 -13095346.76944  22898117.8754                   22898119.9304
 -65169356.63747 -50759382.32645  21775957.8524                   21775957.3874
  -1493888.95346  -1148552.36344  24478141.0084                   24478143.3324
 -53156133.37948 -41396878.24646  20013422.6484                   20013422.1174
 -36760630.10247 -28623387.73145  22536888.8834                   22536890.0944
 -28948734.14547 -22535832.19045  21856498.4384                   21856497.8054
 11  7 31  0 10  0.0000000  0  8G09G28G10G17G12G04G27G02
 -25638663.59047 -19956427.33444  22179117.7114                   22179118.7464
 -79119876.43747 -61614976.59144  22380187.6334                   22380188.2234
 -16997918.90247 -13225164.13444  22866415.0004                   22866416.4184
 -65213129.51247 -50793491.04546  21767628.0634                   21767627.8714
  -1668999.10546  -1285001.60444  24444819.0554                   24444820.5864
 -53224183.80948 -41449904.53046  20000473.0554                   20000472.6334
 -36829303.50047 -28676899.45444  22523820.3364                   22523821.7544
 -29092671.87148 -22647991.38945  21829108.3674                   21829107.3094
 11  7 31  0 10 30.0000000  0  8G09G28G10G17G12G04G27G02
 -25717322.59047 -20017720.09844  22164149.2734                   22164150.2304
 -79132030.94547 -61624447.69744  22377874.4304                   22377875.1254
 -17164244.89846 -13354768.70244  22834763.4844                   22834765.9844
 -65256732.85947 -50827467.68446  21759330.3284                   21759330.4224
  -1844018.01646  -1421379.82744  24411513.5864                   24411515.5864
 -53291609.47348 -41502444.00146  19987642.5164                   19987642.1684
 -36897419.34847 -28729976.73444  22510858.7734                   22510860.0904
 -29236183.57047 -22759818.61945  21801798.8674                   21801797.2234
 11  7 31  0 11  0.0000000  0  8G09G28G10G17G12G04G27G02
 -25795265.83247 -20078455.11745  22149317.5004                   22149318.3834
 -79143740.12147 -61633571.79044  22375646.3364                   22375647.3364
 -17330298.70746 -13484161.17844  22803165.3364                   22803166.7584
 -65300171.13747 -50861315.68846  21751065.0554                   21751064.6804
  -2018947.86346  -1557688.61443  24378225.2894                   24378227.1094
 -53358415.72348 -41554500.80946  19974929.7344                   19974929.4304
 -36964982.52047 -28782623.36745  22498001.5164                   22498002.6844
 -29379272.36747 -22871316.31445  21774569.8054                   21774568.6054
 11  7 31  0 11 30.0000000  0  8G09G28G10G17G12G04G27G02
 -25872497.78947 -20138635.91845  22134620.7504                   22134621.5394
 -79155008.53947 -61642352.43144  22373502.3284                   22373502.7624
 -17496080.67246 -13613341.80144  22771617.7274                   22771619.4264
 -65343447.77747 -50895037.75545  21742828.8204                   21742829.0634
  -2193790.80946  -1693929.66243  24344953.5784                   24344955.2934
 -53424607.60947 -41606078.89046  19962333.8444                   19962333.3404
 -37031997.76246 -28834843.05145  22485249.1644                   22485250.2464
 -29521940.87147 -22982486.50945  21747421.2424                   21747420.0704
 11  7 31  0 12  0.0000000  0  8G09G28G10G17G12G04G27G02
 -25949025.34847 -20198267.79745  22120058.1564                   22120058.7194
 -79165843.08647 -61650794.98344  22371440.4304                   22371441.0594
 -17661593.86346 -13742312.97944  22740121.5394                   22740123.3714
 -65386568.99247 -50928638.69645  21734623.3524                   21734623.1024
  -2368550.99246  -1830106.28143  24311698.6804                   24311699.6414
 -53490192.76648 -41657184.18846  19949853.3134                   19949852.6524
 -37098472.26247 -28886641.37845  22472599.0944                   22472600.7234
 -29664194.63747 -23093333.53545  21720350.9304                   21720349.6024
 11  7 31  0 12 30.0000000  0  8G09G28G10G17G12G04G27G02
 -26024849.13747 -20257351.28945  22105629.1724                   22105630.4844
 -79176243.98447 -61658899.67644  22369462.0234                   22369462.3444
 -17826834.58647 -13871071.84944  22708677.4304                   22708678.5784
 -65429534.55947 -50962118.37545  21726447.1484                   21726447.3794
  -2543226.60946  -1966216.95943  24278458.2504                   24278459.4184
 -53555172.27748 -41707817.55146  19937488.0474                   19937487.6564
 -37164406.74647 -28938018.90345  22460052.2974                   22460053.6724
 -29806032.78947 -23203856.71545  21693359.4694                   21693358.2504
 11  7 31  0 13  0.0000000  0  8G09G28G10G17G12G04G27G02
 -26099970.28147 -20315887.25345  22091333.8054                   22091335.5664
 -79186212.23047 -61666667.19644  22367564.9064                   22367564.8404
 -17991799.85247 -13999616.09144  22677285.9454                   22677286.8954
 -65472344.96947 -50995477.12546  21718300.8524                   21718300.5704
  -2717815.88346  -2102260.38643  24245235.0784                   24245235.7504
 -53619547.46148 -41757980.01846  19925237.7974                   19925237.6524
 -37229802.41847 -28988976.58645  22447608.3834                   22447609.2894
 -29947454.71148 -23314055.53845  21666448.3594                   21666447.0474
 11  7 31  0 13 30.0000000  0  8G09G28G10G17G12G04G27G02
 -26174391.15247 -20373877.55545  22077172.2504                   22077173.1644
 -79195750.17247 -61674099.41544  22365749.8054                   22365750.1604
 -18156488.00047 -14127944.39844  22645945.7114                   22645947.1644
 -65515001.65647 -51028716.10846  21710183.7664                   21710183.0864
  -2892319.25046  -2238236.85743  24212027.5084                   24212028.9024
 -53683321.68748 -41807674.20146  19913102.0004                   19913101.7154
 -37294662.10247 -29039516.61845  22435265.8594                   22435267.4844
 -30088461.49647 -23423930.87945  21639615.5004                   21639614.2934
 11  7 31  0 14  0.0000000  0  8G09G28G10G17G12G04G27G02
 -26248110.60947 -20431321.29545  22063143.7894                   22063144.6334
 -79204856.48047 -61681195.32744  22364016.5784                   22364017.1414
 -18320893.98846 -14256052.83844  22614660.6484                   22614662.2704
 -65557502.78147 -51061833.87346  21702096.0164                   21702095.7034
  -3066732.41446  -2374143.19043  24178837.3984                   24178838.3874
 -53746494.32848 -41856899.62546  19901080.5944                   19901080.3954
 -37358985.01646 -29089638.37945  22423025.6644                   22423027.2274
 -30229050.33247 -23533480.56245  21612862.4844                   21612860.8754
 11  7 31  0 14 30.0000000  0  8G09G28G10G17G12G04G27G02
 -26321128.95347 -20488218.73145  22049249.2274                   22049249.7074
 -79213531.33247 -61687955.00544  22362365.6804                   22362366.2894
 -18485013.79746 -14383938.28744  22583429.1804                   22583431.0354
 -65599847.69947 -51094829.90246  21694038.0234                   21694037.6254
  -3241053.03546  -2509977.23243  24145665.8364                   24145665.9884
 -53809066.43448 -41905657.09246  19889173.5864                   19889173.2464
 -37422771.63347 -29139342.25945  22410887.4384                   22410888.6374
 -30369219.49648 -23642703.20345  21586188.7344                   21586187.7704
 11  7 31  0 15  0.0000000  0  8G09G28G10G17G12G04G27G02
 -26393449.64847 -20544572.50945  22035486.8984                   22035487.8324
 -79221778.21547 -61694381.21744  22360796.6954                   22360797.2304
 -18648846.60246 -14511600.06744  22552252.7034                   22552254.6954
 -65642039.11347 -51127706.33645  21686009.1724                   21686008.9454
  -3415281.73846  -2645739.77743  24112511.3284                   24112511.7344
 -53871041.85548 -41953949.61746  19877380.0554                   19877379.8984
 -37486025.72347 -29188631.20245  22398851.0474                   22398852.0784
 -30508971.40647 -23751600.73246  21559594.5554                   21559593.3674
 11  7 31  0 15 30.0000000  0  8G09G28G10G17G12G04G27G02
 -26465075.59047 -20600384.91844  22021857.0784                   22021857.8834
 -79229599.58647 -61700475.85444  22359308.4144                   22359308.6844
 -18812390.83647 -14639037.01344  22521131.6024                   22521133.3594
 -65684078.55147 -51160464.34045  21678009.5474                   21678008.7974
  -3589418.53146  -2781430.62843  24079372.9304                   24079374.8634
 -53932423.71148 -42001779.62746  19865699.5554                   19865699.2304
 -37548750.05946 -29237507.32945  22386914.3204                   22386915.5744
 -30648306.69947 -23860173.63746  21533080.6414                   21533078.7974
 11  7 31  0 16  0.0000000  0  8G09G28G10G17G12G04G27G02
 -26536008.54747 -20655657.36145  22008359.0944                   22008359.8164
 -79236997.05947 -61706240.19044  22357900.6724                   22357900.6524
 -18975644.37946 -14766247.41744  22490064.9924                   22490066.9264
 -65725966.96947 -51193104.66945  21670038.0474                   21670037.7504
  -3763462.10947  -2917048.93443  24046253.8984                   24046254.6414
 -53993214.66448 -42049149.18846  19854131.3674                   19854131.3094
 -37610946.83247 -29285972.38845  22375078.6884                   22375080.7154
 -30787225.91847 -23968422.29846  21506644.8284                   21506643.6564
 11  7 31  0 16 30.0000000  0  8G09G28G10G17G12G04G27G02
 -26606247.35547 -20710388.91345  21994992.8524                   21994993.4494
 -79243969.17247 -61711673.06944  22356574.4774                   22356574.6054
 -19138601.36347 -14893226.78844  22459055.3524                   22459056.9964
 -65767702.44147 -51225625.83645  21662096.3674                   21662095.9614
  -3937409.18747  -3052591.97443  24013152.9774                   24013154.0744
 -54053414.00848 -42096057.75146  19842675.6334                   19842675.2974
 -37672614.83247 -29334025.40945  22363343.6954                   22363344.9384
 -30925726.13747 -24076344.47945  21480289.1884                   21480287.6604
 11  7 31  0 17  0.0000000  0  8G09G28G10G17G12G04G27G02
 -26675798.01247 -20764584.20645  21981757.9384                   21981758.3164
 -79250522.05147 -61716779.27744  22355327.2194                   22355327.8324
 -19301263.62147 -15019976.46444  22428101.7114                   22428103.7384
 -65809289.89547 -51258031.62845  21654182.5704                   21654182.1214
  -4111262.50847  -3188061.95744  23980069.6334                   23980071.1174
 -54113028.27348 -42142510.42146  19831331.3754                   19831331.5274
 -37733760.48047 -29381671.39445  22351708.6414                   22351709.8674
 -31063811.46947 -24183943.35945  21454012.2814                   21454010.2774
 11  7 31  0 17 30.0000000  0  8G09G28G10G17G12G04G27G02
 -26744660.28147 -20818243.14144  21968654.0084                   21968654.5984
 -79256654.86347 -61721558.18544  22354160.5634                   22354161.2384
 -19463626.84847 -15146493.15144  22397204.9304                   22397206.6414
 -65850727.66047 -51290320.79745  21646296.7974                   21646296.7074
  -4285018.84047  -3323456.33844  23947005.3054                   23947006.3164
 -54172057.80948 -42188507.45446  19820098.6334                   19820098.5004
 -37794383.77347 -29428910.33445  22340172.4774                   22340174.0904
 -31201479.89547 -24291217.38745  21427814.4694                   21427813.0634
 11  7 31  0 18  0.0000000  0  8G09G28G10G17G12G04G27G02
 -26812835.83247 -20871366.96945  21955680.7274                   21955681.2814
 -79262369.17247 -61726010.95444  22353073.0864                   22353073.6414
 -19625688.19547 -15272774.57044  22366365.5474                   22366367.6724
 -65892016.84047 -51322494.18745  21638440.0474                   21638439.3404
  -4458676.94147  -3458774.23144  23913958.8204                   23913960.1994
 -54230504.65248 -42234050.44046  19808976.5784                   19808976.2424
 -37854486.58647 -29475743.74945  22328734.8754                   22328736.1374
 -31338731.51247 -24398166.62746  21401696.3914                   21401695.0514
 11  7 31  0 18 30.0000000  0  8G09G28G10G17G12G04G27G02
 -26880327.27747 -20923957.71045  21942837.4614                   21942838.5044
 -79267667.19147 -61730139.37744  22352064.7424                   22352065.7704
 -19787446.02047 -15398819.55444  22335584.3054                   22335586.0044
 -65933158.46547 -51354552.59345  21630610.7734                   21630610.6134
  -4632236.46147  -3594015.25744  23880931.4614                   23880932.7304
 -54288371.75448 -42279141.68746  19797964.8914                   19797964.4574
 -37914071.53147 -29522173.61345  22317396.2424                   22317397.5554
 -31475567.27747 -24504791.84346  21375657.5704                   21375655.7034
 11  7 31  0 19  0.0000000  0  8G09G28G10G17G12G04G27G02
 -25371711.25047 -19748412.76245  22229917.5314                   22229918.4694
 -77697127.32847 -60506342.15844  22650928.3594                   22650929.4104
 -18373468.77347 -14297018.98544  22604654.5864                   22604656.2274
 -64398728.78947 -50158893.08645  21922603.5234                   21922603.0234
  -3230266.95346  -2501571.37444  24147717.2424                   24147718.2664
 -52770236.41048 -41096179.06946  20086855.9924                   20086855.8554
 -36397715.49246 -28340597.50545  22605949.0634                   22605950.7704
 -30036559.70347 -23383487.17945  21649491.0864                   21649490.0554
 11  7 31  0 19 30.0000000  0  8G09G28G10G17G12G04G27G02
 -25437833.19547 -19799936.36345  22217334.9534                   22217335.9384
 -77701590.66847 -60509820.16244  22650079.4144                   22650080.1764
 -18534604.05547 -14422578.83944  22573991.9614                   22573993.3094
 -64439570.23447 -50190717.59045  21914831.1644                   21914830.7624
  -3403618.22346  -2636650.12844  24114729.1884                   24114730.4654
 -52826944.15248 -41140366.90246  20076065.0944                   20076064.7774
 -36456263.53947 -28386219.38645  22594808.3204                   22594809.7504
 -30172556.96547 -23489458.99646  21623612.1334                   21623610.4804
 11  7 31  0 20  0.0000000  0  8G09G28G10G17G12G04G27G02
 -25503271.35247 -19850927.12745  22204881.8524                   22204883.4734
 -77705637.13347 -60512973.33244  22649309.5944                   22649310.4184
 -18695422.51247 -14547891.79444  22543389.2114                   22543390.1054
 -64480260.73047 -50222424.48245  21907088.4304                   21907087.7074
  -3576861.90646  -2771645.10044  24081762.1094                   24081763.3794
 -52883073.93748 -41184104.38446  20065383.9384                   20065383.6764
 -36514294.48447 -28431438.33845  22583765.1564                   22583766.4694
 -30308133.22347 -23595102.77245  21597812.3284                   21597811.0904
 11  7 31  0 20 30.0000000  0  8G09G28G10G17G12G04G27G02
 -25568032.71147 -19901390.55345  22192558.5474                   22192559.1994
 -77709273.54347 -60515806.97744  22648617.5394                   22648618.5634
 -18855926.73447 -14672959.90444  22512845.9924                   22512847.3954
 -64520806.30547 -50254018.42245  21899372.6644                   21899372.3794
  -3750001.67246  -2906559.05643  24048815.4144                   24048815.9494
 -52938633.19948 -41227397.30646  20054811.1644                   20054811.0824
 -36571815.60247 -28476260.03344  22572819.0944                   22572820.2814
 -30443293.70747 -23700422.57246  21572092.2344                   21572091.0704
 11  7 31  0 21  0.0000000  0  8G09G28G10G17G12G04G27G02
 -25632116.10947 -19951325.67445  22180364.2344                   22180364.8834
 -77712497.99247 -60518319.64844  22648004.0864                   22648004.9104
 -19016110.70747 -14797778.49544  22482363.8674                   22482364.8164
 -64561203.59047 -50285496.84445  21891685.2974                   21891684.8914
  -3923032.94946  -3041388.45943  24015887.6174                   24015889.4774
 -52993620.90648 -41270244.86246  20044347.6024                   20044347.0864
 -36628825.34047 -28520683.24344  22561971.2114                   22561971.9804
 -30578035.10547 -23805415.81046  21546452.2504                   21546450.3014
 11  7 31  0 21 30.0000000  0  8G09G28G10G17G12G04G27G02
 -25695525.16047 -20000735.35445  22168297.4454                   22168299.0164
 -77715314.19547 -60520514.15344  22647468.4224                   22647469.1134
 -19175973.64847 -14922346.89844  22451942.6024                   22451943.6644
 -64601455.50847 -50316861.95545  21884025.6094                   21884025.3754
  -4095956.42646  -3176133.93043  23982981.2974                   23982982.9804
 -53048041.35948 -41312650.39946  20033991.4144                   20033991.2974
 -36685327.68047 -28564711.07545  22551218.5554                   22551220.3094
 -30712359.47747 -23910084.08446  21520891.1884                   21520889.1334
 11  7 31  0 22  0.0000000  0  8G09G28G10G17G12G04G27G02
 -25758261.72347 -20049620.99845  22156359.4064                   22156360.4304
 -77717723.34047 -60522391.49044  22647009.6884                   22647010.5354
 -19335512.92647 -15046663.09544  22421583.2034                   22421584.7384
 -64641562.73847 -50348114.35245  21876393.2504                   21876393.1054
  -4268770.57846  -3310794.17843  23950095.3594                   23950096.6374
 -53101896.75448 -41354615.62846  20023743.1954                   20023742.8554
 -36741324.77347 -28608345.21745  22540563.0944                   22540564.2424
 -30846267.07047 -24014427.60445  21495409.2894                   21495407.4144
 11  7 31  0 22 30.0000000  0  8G09G28G10G17G12G04G27G02
 -25820329.30147 -20097985.37544  22144548.1254                   22144549.1644
 -77719728.39847 -60523953.98044  22646628.7034                   22646628.9224
 -19494727.20747 -15170726.08444  22391285.5784                   22391286.7704
 -64681526.64547 -50379255.06345  21868788.5004                   21868788.0744
  -4441475.13746  -3445369.06344  23917230.8754                   23917232.9224
 -53155190.84448 -41396143.50546  20013601.5394                   20013601.1844
 -36796819.67247 -28651588.02545  22530002.5474                   22530003.4104
 -30979759.17648 -24118447.37146  21470006.3284                   21470004.7734
 11  7 31  0 23  0.0000000  0  8G09G28G10G17G12G04G27G02
 -25881727.09847 -20145827.81745  22132864.5084                   22132865.7734
 -77721328.36347 -60525200.78944  22646323.9454                   22646324.3164
 -19653610.97347 -15294531.49444  22361051.4224                   22361052.3914
 -64721345.02347 -50410282.37545  21861211.1414                   21861211.1914
  -4614065.97746  -3579855.29144  23884388.8284                   23884389.6134
 -53207922.94948 -41437233.45346  20003566.8914                   20003567.2274
 -36851811.62547 -28694438.93744  22519538.0944                   22519539.1294
 -31112832.70348 -24222140.97546  21444683.1484                   21444681.4614
 11  7 31  0 23 30.0000000  0  8G09G28G10G17G12G04G27G02
 -25942455.55547 -20193148.71345  22121309.0164                   22121309.1914
 -77722523.28947 -60526131.94344  22646096.6174                   22646097.1764
 -19812160.05947 -15418076.13644  22330880.4384                   22330881.8244
 -64761017.03947 -50441195.62845  21853662.3364                   21853661.9024
  -4786540.86746  -3714251.22344  23851567.5634                   23851568.6954
 -53260094.19948 -41477886.37746  19993639.2734                   19993638.8364
 -36906301.38347 -28736898.50345  22509168.5784                   22509170.3484
 -31245486.65247 -24325507.62646  21419439.6024                   21419438.1254
 11  7 31  0 24  0.0000000  0  8G09G28G10G17G12G04G27G02
 -26002519.83247 -20239952.03145  22109878.5944                   22109879.3674
 -77723317.86747 -60526751.22144  22645945.4224                   22645946.4264
 -19970375.07847 -15541360.40744  22300773.0944                   22300774.0824
 -64800546.51647 -50471997.82845  21846139.9384                   21846139.6684
  -4958901.34046  -3848558.01244  23818768.0864                   23818769.7854
 -53311710.23448 -41518106.66846  19983817.0234                   19983816.9734
 -36960294.20747 -28778970.87444  22498894.3674                   22498895.7114
 -31377724.26247 -24428549.86446  21394275.6334                   21394274.1134
 11  7 31  0 24 30.0000000  0  8G09G28G10G17G12G04G27G02
 -26061921.24647 -20286238.86944  22098574.4224                   22098575.8204
 -77723712.71147 -60527058.98544  22645870.9774                   22645871.9344
 -20128252.38347 -15664381.61244  22270729.7504                   22270731.1724
 -64839932.44947 -50502688.17845  21838645.0634                   21838644.8404
  -5131144.66446  -3982773.47344  23785991.3134                   23785992.6094
 -53362772.30948 -41557895.30846  19974100.0394                   19974100.2234
 -37013791.27047 -28820656.93244  22488713.7664                   22488715.6954
 -31509544.62548 -24531266.97846  21369191.4064                   21369189.4454
 11  7 31  0 25  0.0000000  0  8G09G28G10G17G12G04G27G02
 -26120661.66447 -20332010.63845  22087396.8674                   22087397.9614
 -77723709.57847 -60527056.59944  22645871.3054                   22645872.0824
 -20285789.18047 -15787137.40144  22240751.2194                   22240752.5474
 -64879175.46947 -50533267.17245  21831177.6414                   21831177.0314
  -5303269.52046  -4116896.60043  23753237.0314                   23753237.6374
 -53413282.90248 -41597254.21246  19964488.3984                   19964488.2034
 -37066794.65647 -28861958.29044  22478628.3594                   22478629.5084
 -31640947.97748 -24633659.12446  21344185.9844                   21344184.3014
 11  7 31  0 25 30.0000000  0  8G09G28G10G17G12G04G27G02
 -26178736.35247 -20377263.65245  22076345.9144                   22076346.3444
 -77723303.05547 -60526739.94544  22645948.7974                   22645949.4804
 -20442976.07447 -15909620.57544  22210839.7584                   22210840.9224
 -64918269.38747 -50563729.96145  21823737.8524                   21823737.7194
  -5475267.07046  -4250920.58844  23720506.5634                   23720507.6564
 -53463237.12548 -41636179.58346  19954982.3524                   19954982.3834
 -37119299.31647 -28902871.06744  22468636.5004                   22468638.5354
 -31771927.60247 -24735721.11246  21319261.1334                   21319259.5234
 11  7 31  0 26  0.0000000  0  8G09G28G10G17G12G04G27G02
 -26236148.89547 -20422000.72145  22065420.3364                   22065421.5394
 -77722496.87547 -60526111.84344  22646101.8524                   22646102.8244
 -20599812.10247 -16031830.33744  22180994.6414                   22180995.6884
 -64957216.22347 -50594078.17145  21816326.8204                   21816326.1684
  -5647138.52347  -4384846.29044  23687800.7424                   23687801.1724
 -53512639.48448 -41674674.93546  19945581.3284                   19945581.1454
 -37171309.21947 -28943398.27344  22458739.1804                   22458740.9304
 -31902484.92247 -24837454.03546  21294416.9924                   21294415.1054
 11  7 31  0 26 30.0000000  0  8G09G28G10G17G12G04G27G02
 -26292899.09447 -20466221.63545  22054620.9534                   22054622.7664
 -77721289.61747 -60525171.18344  22646331.4064                   22646332.6174
 -20756291.60947 -16153762.32445  22151217.7504                   22151218.8244
 -64996013.85547 -50624310.08945  21808943.5474                   21808943.1174
  -5818879.33647  -4518670.20643  23655119.6024                   23655120.7504
 -53561489.53548 -41712739.91846  19936285.7344                   19936285.5434
 -37222823.83247 -28983539.55744  22448937.0004                   22448938.1094
 -32032617.62547 -24938856.09046  21269653.4384                   21269652.0664
 11  7 31  0 27  0.0000000  0  8G09G28G10G17G12G04G27G02
 -26348992.91847 -20509931.15145  22043946.6724                   22043948.0944
 -77719686.70747 -60523922.26144  22646636.4534                   22646637.8594
 -20912415.67647 -16275417.33944  22121507.8914                   22121509.1134
 -65034666.02747 -50654428.67245  21801587.7894                   21801588.2774
  -5990491.62947  -4652393.94044  23622462.9614                   23622463.7664
 -53609793.61748 -41750379.46246  19927093.5944                   19927093.3984
 -37273849.26247 -29023299.68844  22439226.7894                   22439228.7034
 -32162329.93747 -25039930.54446  21244970.1334                   21244968.2894
 11  7 31  0 27 30.0000000  0  8G09G28G10G17G12G04G27G02
 -26404430.50847 -20553129.26844  22033397.2114                   22033398.2304
 -77717687.72747 -60522364.69544  22647016.9614                   22647018.3954
 -21068179.98847 -16396792.01144  22091866.8444                   22091868.2504
 -65073171.28547 -50684432.78245  21794260.7814                   21794261.0004
  -6161971.95747  -4786014.88544  23589831.2504                   23589831.6254
 -53657551.97348 -41787593.76546  19918005.4304                   19918005.1994
 -37324385.49247 -29062678.58744  22429609.8284                   22429611.4454
 -32291619.53147 -25140675.62546  21220366.9224                   21220365.6134
 11  7 31  0 28  0.0000000  0  8G09G28G10G17G12G04G27G02
 -26459210.93447 -20595815.34445  22022973.2814                   22022974.4884
 -77715291.29747 -60520497.42844  22647473.8984                   22647474.4654
 -21223578.58247 -16517881.72945  22062295.1484                   22062296.3834
 -65111526.83247 -50714320.22345  21786961.9064                   21786961.7934
  -6333315.55146  -4919529.24144  23557225.6254                   23557226.6684
 -53704763.84048 -41824382.23446  19909021.3364                   19909021.1254
 -37374431.35247 -29101675.38544  22420087.4844                   22420088.3484
 -32420483.50448 -25241089.04946  21195844.8594                   21195843.2974
 11  7 31  0 28 30.0000000  0  8G09G28G10G17G12G04G27G02
 -26513334.79747 -20637989.80944  22012674.0314                   22012675.0044
 -77712497.63747 -60518320.62144  22648004.8204                   22648006.4144
 -21378607.16847 -16638683.15145  22032794.5314                   22032795.6684
 -65149731.85547 -50744090.39545  21779692.4224                   21779692.1764
  -6504519.24246  -5052934.57444  23524646.1414                   23524647.0744
 -53751430.40648 -41860745.77046  19900141.0864                   19900140.9454
 -37423987.69947 -29140290.73344  22410656.8364                   22410657.8714
 -32548920.46148 -25341169.72046  21171404.4774                   21171402.8484
 11  7 31  0 29  0.0000000  0  8G09G28G10G17G12G04G27G02
 -26566807.63347 -20679656.94144  22002498.1024                   22002498.9384
 -77709311.72747 -60515838.16644  22648610.8914                   22648612.2974
 -21533265.93747 -16759196.38745  22003363.7504                   22003364.9104
 -65187789.91847 -50773746.04145  21772450.1024                   21772449.6414
  -6675585.01246  -5186232.48444  23492093.3204                   23492094.4494
 -53797557.22348 -41896688.74746  19891363.3524                   19891362.9694
 -37473060.00847 -29178528.95344  22401318.1884                   22401320.1604
 -32676934.04348 -25440920.51046  21147044.4384                   21147042.0784
 11  7 31  0 29 30.0000000  0  8G09G28G10G17G12G04G27G02
 -25044206.88747 -19493214.83044  22292239.2664                   22292240.2734
 -76130312.27747 -59285449.05544  22949084.3984                   22949086.2114
 -20112124.28547 -15651813.19845  22273798.2114                   22273799.1374
 -63650276.43047 -49575683.60145  22065029.0864                   22065028.5984
  -5271082.55546  -4091814.84544  23759360.7814                   23759361.7624
 -52267722.16848 -40704609.47546  20182481.2664                   20182480.7894
 -35946225.90647 -27988788.11544  22691865.7034                   22691867.2154
 -31229097.32448 -24312736.00646  21422558.0784                   21422556.1804
 11  7 31  0 30  0.0000000  0  8G09G28G10G17G12G04G27G02
 -25096375.78947 -19533865.93645  22282312.3364                   22282313.1484
 -76126338.12147 -59282352.40944  22949841.3674                   22949842.6684
 -20266027.44147 -15771737.65244  22244511.2274                   22244512.3674
 -63688032.38747 -49605103.83045  22057844.3594                   22057843.9024
  -5441858.99246  -4224887.27744  23726863.6414                   23726863.8054
 -52312768.30148 -40739710.33346  20173909.0234                   20173908.9694
 -35994328.30147 -28026270.53344  22682712.3054                   22682712.3054
 -31356256.22748 -24411820.78446  21398360.4064                   21398359.0004
 11  7 31  0 30 30.0000000  0  8G09G28G10G17G12G04G27G02
 -25147896.23447 -19574011.75645  22272507.8984                   22272508.6604
 -76121972.44947 -59278950.64844  22950672.0474                   22950673.2274
 -20419548.78547 -15891364.60644  22215296.7034                   22215298.1024
 -63725637.86347 -49634406.82145  22050688.1094                   22050688.1914
  -5612488.34846  -4357845.11144  23694393.5784                   23694394.3794
 -52357277.78547 -40774393.04046  20165439.2584                   20165438.7624
 -36041948.94947 -28063377.57344  22673649.9144                   22673652.0164
 -31482987.94547 -24510572.70846  21374244.3594                   21374242.5984
 11  7 31  0 31  0.0000000  0  8G09G28G10G17G12G04G27G02
 -25198768.73847 -19613652.66944  22262827.5394                   22262828.5554
 -76117215.04747 -59275243.66044  22951577.5864                   22951578.8014
 -20572683.79347 -16010690.50545  22186155.7504                   22186157.3484
 -63763091.29747 -49663591.33745  22043560.8914                   22043560.6684
  -5782966.73047  -4490685.32344  23661952.5084                   23661952.7704
 -52401251.33648 -40808658.13946  20157071.3524                   20157071.0784
 -36089088.31647 -28100109.61244  22664680.1174                   22664681.7704
 -31609290.70748 -24608990.39346  21350209.8284                   21350207.5234
 11  7 31  0 31 30.0000000  0  8G09G28G10G17G12G04G27G02
 -25248991.80947 -19652787.55145  22253270.5234                   22253271.4694
 -76112063.78147 -59271229.78044  22952557.4924                   22952559.2344
 -20725426.03147 -16129710.33145  22157090.1564                   22157091.1294
 -63800389.21547 -49692654.67345  22036463.4534                   22036463.1374
  -5953289.40247  -4623404.17144  23629541.4224                   23629542.1094
 -52444687.52748 -40842504.51546  20148805.7194                   20148805.5744
 -36135744.88347 -28136465.43244  22655801.4534                   22655802.6374
 -31735160.92247 -24707071.02046  21326257.0784                   21326255.4304
 11  7 31  0 32  0.0000000  0  8G09G28G10G17G12G04G27G02
 -25298570.97347 -19691420.67345  22243835.4454                   22243836.7464
 -76106523.75447 -59266912.96144  22953612.4844                   22953613.6374
 -20877775.83647 -16248424.38844  22128098.9064                   22128100.2624
 -63837535.14147 -49721599.57945  22029394.9304                   22029394.8244
  -6123457.66447  -4756002.75544  23597159.2584                   23597159.3634
 -52487592.00848 -40875936.58146  20140641.3204                   20140641.3834
 -36181924.10947 -28172449.28344  22647014.0314                   22647014.2274
 -31860602.45347 -24804817.60346  21302386.4384                   21302384.6994
 11  7 31  0 32 30.0000000  0  8G09G28G10G17G12G04G27G02
 -25347509.30947 -19729554.47545  22234522.6564                   22234524.4454
 -76100597.56247 -59262295.23044  22954739.5784                   22954741.2154
 -21029731.41847 -16366831.21245  22099182.4454                   22099183.7154
 -63874530.12547 -49750426.84645  22022354.7814                   22022355.1484
  -6293470.67247  -4888480.33744  23564806.8204                   23564807.1484
 -52529968.24248 -40908957.01246  20132577.4924                   20132577.2894
 -36227629.01247 -28208063.55645  22638316.7814                   22638318.2934
 -31985615.99247 -24902230.68646  21278597.3444                   21278595.2034
 11  7 31  0 33  0.0000000  0  8G09G28G10G17G12G04G27G02
 -25395806.91447 -19767188.97044  22225332.1414                   22225333.7154
 -76094284.17647 -59257375.78944  22955940.9454                   22955942.7154
 -21181287.30947 -16484926.61245  22070342.2584                   22070343.6524
 -63911371.73047 -49779134.61045  22015344.2734                   22015343.7384
  -6463324.01247  -5020833.50444  23532484.6024                   23532484.8674
 -52571816.04348 -40941565.70046  20124614.5164                   20124613.3714
 -36272859.25447 -28243307.96544  22629709.4844                   22629711.2504
 -32110199.30948 -24999308.55146  21254889.7034                   21254887.8204
 11  7 31  0 33 30.0000000  0  8G09G28G10G17G12G04G27G02
 -25443465.67247 -19804325.68545  22216263.0004                   22216263.9384
 -76087584.71947 -59252155.50044  22957216.6174                   22957217.4734
 -21332440.42647 -16602708.17044  22041579.2584                   22041579.4614
 -63948059.90247 -49807722.84345  22008363.0164                   22008362.5744
  -6633015.56647  -5153060.58344  23500192.8914                   23500193.1914
 -52613137.48448 -40973764.23246  20116750.9064                   20116750.4884
 -36317616.72347 -28278183.97844  22621192.2814                   22621193.2074
 -32234351.95348 -25096050.80846  21231264.1644                   21231262.4494
 11  7 31  0 34  0.0000000  0  8G09G28G10G17G12G04G27G02
 -25490486.78947 -19840965.51244  22207315.7424                   22207316.4344
 -76080500.34847 -59246635.30343  22958564.7194                   22958565.4654
 -21483187.01247 -16720172.91945  22012893.2664                   22012893.7664
 -63984593.89147 -49836190.88245  22001410.5784                   22001410.3404
  -6802542.62547  -5285159.48744  23467933.2974                   23467933.2734
 -52653933.86748 -41005553.61346  20108987.7114                   20108987.3524
 -36361902.55947 -28312692.46644  22612765.3524                   22612766.1764
 -32358072.93448 -25192456.72446  21207720.9304                   21207718.9654
 11  7 31  0 34 30.0000000  0  8G09G28G10G17G12G04G27G02
 -25536870.75447 -19877108.88244  22198488.9534                   22198490.5274
 -76073030.34847 -59240814.61443  22959986.0704                   22959987.1174
 -21633522.05547 -16837317.01645  21984285.1334                   21984285.3834
 -64020971.20347 -49864536.86945  21994488.5004                   21994488.1174
  -6971901.31647  -5417127.24844  23435704.8444                   23435705.7424
 -52694205.70348 -41036934.27946  20101324.2194                   20101324.0634
 -36405717.01247 -28346833.65044  22604427.2114                   22604429.4414
 -32481360.55548 -25288524.93946  21184260.1954                   21184258.0514
 11  7 31  0 35  0.0000000  0  8G09G28G10G17G12G04G27G02
 -25582625.73847 -19912762.14644  22189781.8364                   22189782.9454
 -76065182.02747 -59234699.10443  22961479.3444                   22961480.4614
 -21783448.53147 -16954142.73445  21955754.8284                   21955754.9184
 -64057198.07847 -49892765.63545  21987594.7664                   21987594.6024
  -7141095.28147  -5548966.60344  23403508.7584                   23403508.9144
 -52733961.12948 -41067912.53846  20093759.0234                   20093758.6214
 -36449067.83247 -28380613.60444  22596178.1484                   22596180.2854
 -32604220.90648 -25384260.22646  21160880.2424                   21160878.2154
 11  7 31  0 35 30.0000000  0  9G09G28G10G17G12G05G04G27G02
 -25627751.85547 -19947925.37044  22181194.6644                   22181195.8554
 -76056955.09447 -59228288.54743  22963045.3204                   22963046.1954
 -21932961.80147 -17070646.48045  21927303.2504                   21927303.5744
 -64093272.79347 -49920875.82645  21980730.0944                   21980729.6174
  -7310120.92247  -5680674.80544  23371344.4694                   23371344.3634
   4462332.33656   3493171.25853  24626333.3204                   24626339.9884
 -52773200.55548 -41098488.72146  20086292.2974                   20086291.7624
 -36491955.35247 -28414032.53144  22588017.7734                   22588018.6484
 -32726652.15648 -25479661.16246  21137582.5004                   21137580.6334
 11  7 31  0 36  0.0000000  0  9G09G28G10G17G12G05G04G27G02
 -25672262.84447 -19982609.27644  22172723.9844                   22172725.8404
 -76048362.32847 -59221592.96643  22964680.1094                   22964681.6914
 -22082070.01647 -17186834.57145  21898928.7734                   21898929.7814
 -64129206.27047 -49948875.96145  21973892.3984                   21973891.5354
  -7478987.35947  -5812258.93544  23339209.7114                   23339210.4574
   4282978.71546   3353415.57743  24592203.6174                   24592209.4494
 -52811937.46948 -41128673.32746  20078920.6174                   20078920.1764
 -36534392.84447 -28447100.74344  22579941.3674                   22579942.5664
 -32848665.28548 -25574736.26446  21114364.1724                   21114362.0164
 11  7 31  0 36 30.0000000  0  9G09G28G10G17G12G05G04G27G02
 -25716164.09047 -20016818.05644  22164370.1644                   22164371.3364
 -76039408.71547 -59214616.18743  22966384.4304                   22966385.5234
 -22230773.50447 -17302707.34145  21870630.9144                   21870632.5084
 -64165001.45747 -49976768.33145  21967080.4614                   21967080.3524
  -7647695.67647  -5943719.87644  23307105.4774                   23307106.1884
   4103586.20346   3213629.49643  24558064.8754                   24558071.5314
 -52850177.18748 -41158470.51346  20071643.7034                   20071643.5164
 -36576385.56246 -28479822.41744  22571950.8284                   22571952.8754
 -32970263.42248 -25669488.00946  21091224.7584                   21091222.4654
 11  7 31  0 37  0.0000000  0  9G09G28G10G17G12G05G04G27G02
 -25759457.76647 -20050553.41444  22156132.1254                   22156132.9884
 -76030095.34047 -59207359.08544  22968156.4144                   22968157.7934
 -22379069.12947 -17418262.28345  21842411.8674                   21842412.2504
 -64200658.42647 -50004552.99845  21960295.1644                   21960294.9494
  -7816243.78547  -6075055.94544  23275031.8594                   23275032.5044
   3924157.07446   3073815.00042  24523920.4224                   24523927.0274
 -52887922.00848 -41187882.05946  20064461.2344                   20064460.5744
 -36617935.64547 -28512199.19444  22564044.2274                   22564046.0864
 -33091446.56248 -25763916.37846  21068164.1094                   21068162.0434
 11  7 31  0 37 30.0000000  0  9G09G28G10G17G12G05G04G27G02
 -25802141.90647 -20083813.80944  22148009.2894                   22148010.5634
 -76020419.56646 -59199819.61844  22969997.3834                   22969999.2234
 -22526949.77747 -17533493.86145  21814270.5314                   21814271.8094
 -64236172.73447 -50032226.50445  21953537.4454                   21953536.9104
  -7984625.71547  -6206262.57744  23242990.0004                   23242990.2814
   3744698.19546   2933977.21942  24489770.5004                   24489776.4064
 -52925170.08248 -41216906.54446  20057373.3524                   20057372.5664
 -36659040.80147 -28544229.24944  22556221.6954                   22556223.8134
 -33212210.70348 -25858018.24446  21045183.9384                   21045181.2274
 11  7 31  0 38  0.0000000  0  9G09G28G10G17G12G05G04G27G02
 -25844216.63347 -20116599.34544  22140002.8364                   22140004.1334
 -76010380.69946 -59191997.18243  22971908.3984                   22971909.8244
 -22674410.11747 -17648397.92445  21786209.6024                   21786210.9224
 -64271541.95347 -50059786.93845  21946806.3284                   21946806.1524
  -8152836.55947  -6337335.83044  23210980.2274                   23210980.4534
   3565213.98846   2794119.80142  24455614.7504                   24455621.2304
 -52961921.39148 -41245543.91946  20050379.4694                   20050379.1644
 -36699701.11346 -28575912.62944  22548485.0704                   22548485.5664
 -33332553.60248 -25951791.88646  21022282.9384                   21022280.9184
 11  7 31  0 38 30.0000000  0  9G09G28G10G17G12G05G04G27G02
 -25885683.01247 -20148910.83944  22132112.1484                   22132113.3204
 -75999978.98046 -59183892.02544  22973887.3444                   22973889.2304
 -22821446.19947 -17762971.42145  21758229.8754                   21758230.6724
 -64306764.68447 -50087233.23945  21940103.6334                   21940103.5354
  -8320873.38347  -6468273.52744  23179003.8284                   23179004.2544
   3385707.95345   2654245.29742  24421456.0864                   24421462.8164
 -52998176.80948 -41273794.89446  20043480.6254                   20043480.1684
 -36739917.39547 -28607250.06644  22540831.9924                   22540834.2704
 -33452474.04348 -26045236.32646  20999462.8834                   20999460.9264
 11  7 31  0 39  0.0000000  0  9G09G28G10G17G12G05G04G27G02
 -25926539.21547 -20180746.86944  22124337.3594                   22124338.6684
 -75989211.79346 -59175502.10344  22975936.7274                   22975938.5904
 -22968050.35947 -17877208.33845  21730332.0394                   21730332.8554
 -64341836.40647 -50114561.87145  21933429.8914                   21933429.3754
  -8488729.36747  -6599070.28844  23147062.1804                   23147062.4104
   3206187.03946   2514359.20343  24387295.0554                   24387301.2464
 -53033934.32848 -41301657.90146  20036676.2504                   20036675.6954
 -36779687.27747 -28638239.63945  22533263.4144                   22533267.0864
 -33571967.45348 -26138348.02646  20976724.5554                   20976722.0514
 11  7 31  0 39 30.0000000  0  9G09G28G10G17G12G05G04G27G02
 -25966790.16047 -20212111.29144  22116677.7114                   22116679.2814
 -75978083.38346 -59166830.64944  22978054.5784                   22978056.0664
 -23114222.55547 -17991108.65445  21702515.9924                   21702516.8484
 -64376759.76647 -50141774.89645  21926784.2584                   21926783.6484
  -8656405.39147  -6729726.85044  23115154.0554                   23115154.6214
   3026651.11346   2374461.47743  24353129.3754                   24353135.5004
 -53069198.93748 -41329136.81946  20029965.3204                   20029965.0084
 -36819015.58247 -28668885.11844  22525779.6724                   22525781.7154
 -33691036.66448 -26231129.17546  20954065.8284                   20954063.5474
 11  7 31  0 40  0.0000000  0  9G09G28G10G17G12G05G04G27G02
 -24431015.43047 -19015403.74744  22408926.4614                   22408926.9534
 -74391174.23047 -57930278.09743  23280033.4534                   23280034.1334
 -21684533.39147 -16877065.07345  21974577.2344                   21974577.8134
 -62836112.17247 -48941270.26245  22219959.9534                   22219959.4104
  -7248472.28147  -5632636.04044  23383075.3054                   23383075.1954
   4422529.84046   3462159.51843  24618755.9844                   24618763.0084
 -51528550.56648 -40128631.59046  20323141.2814                   20323140.9924
 -35282481.94947 -27471586.20844  22818173.1254                   22818173.1094
 -32234256.55148 -25095975.78446  21231281.7584                   21231279.7304
 11  7 31  0 40 30.0000000  0  9G09G28G10G17G12G05G04G27G02
 -24470057.19547 -19045825.94444  22401497.1724                   22401498.2234
 -74379322.09846 -57921042.76644  23282288.9534                   23282290.3404
 -21829826.74647 -16990280.59545  21946928.4614                   21946929.3134
 -62870732.60547 -48968247.25245  22213372.1884                   22213371.2974
  -7415776.02747  -5763002.53044  23351238.1024                   23351237.9064
   4242976.62546   3322248.26343  24584588.3134                   24584594.6484
 -51562830.74248 -40155343.42646  20316617.7974                   20316617.7114
 -35320927.97747 -27501544.17645  22810856.8054                   22810859.2074
 -32352471.82048 -25188091.52546  21208786.3054                   21208783.8364
 11  7 31  0 41  0.0000000  0  9G09G28G10G17G12G05G04G27G02
 -24508493.55947 -19075776.42044  22394183.0864                   22394183.8754
 -74367105.92646 -57911523.74344  23284613.6024                   23284614.8714
 -21974671.77047 -17103146.77845  21919365.5394                   21919365.9454
 -62905196.58647 -48995102.31045  22206813.5704                   22206813.0204
  -7582885.76247  -5893217.85244  23319437.9064                   23319438.3634
   4063422.91046   3182336.57744  24550420.5634                   24550425.8874
 -51596617.57048 -40181670.82446  20310188.1414                   20310188.1524
 -35358931.21947 -27531157.16344  22803625.1024                   22803627.7464
 -32470255.54748 -25279871.00746  21186372.9774                   21186370.4694
 11  7 31  0 41 30.0000000  0  9G09G28G10G17G12G05G04G27G02
 -24546324.68047 -19105255.26644  22386984.0474                   22386985.0594
 -74354525.11746 -57901720.55943  23287008.0394                   23287009.1994
 -22119063.52747 -17215659.73245  21891888.6334                   21891889.0164
 -62939501.69947 -49021833.57745  22200285.2274                   22200285.0904
  -7749797.27347  -6023278.68944  23287676.1254                   23287675.8954
   3883873.17246   3042427.99343  24516253.5394                   24516258.1994
 -51629910.95748 -40207613.72346  20303853.2034                   20303852.8594
 -35396491.91847 -27560425.28444  22796477.3444                   22796478.6764
 -32587605.76248 -25371312.68446  21164041.3364                   21164039.2774
 11  7 31  0 42  0.0000000  0  9G09G28G10G17G12G05G04G27G02
 -24583555.18747 -19134266.11144  22379899.3594                   22379900.3404
 -74341583.50446 -57891636.25443  23289469.9384                   23289471.9574
 -22263001.18447 -17327818.88645  21864497.8754                   21864498.7154
 -62973650.05147 -49048442.70145  22193787.1414                   22193786.8554
  -7916510.48847  -6153185.03944  23255951.1254                   23255950.8674
   3704328.06646   2902523.01344  24482086.5314                   24482092.1564
 -51662715.57448 -40233175.77346  20297610.4924                   20297610.0124
 -35433614.40647 -27589351.87444  22789413.2974                   22789415.2194
 -32704524.91048 -25462418.47546  21141792.5314                   21141790.3484
 11  7 31  0 42 30.0000000  0  9G09G28G10G17G12G05G04G27G02
 -24620193.17247 -19162815.26244  22372927.1484                   22372928.4804
 -74328287.80146 -57881276.00543  23292000.6564                   23292001.3094
 -22406487.24647 -17439626.08545  21837193.3754                   21837194.1094
 -63007646.54747 -49074933.49345  22187318.0944                   22187317.6254
  -8083028.23847  -6282939.09044  23224263.8594                   23224263.9964
   3524784.45747   2762619.25544  24447921.7274                   24447925.8714
 -51695039.25848 -40258363.05746  20291459.4844                   20291459.3714
 -35470306.32047 -27617943.02244  22782430.7974                   22782433.4144
 -32821018.49248 -25553192.65246  21119624.5004                   21119622.5514
 11  7 31  0 43  0.0000000  0  9G09G28G10G17G12G05G04G27G02
 -24656234.47347 -19190899.48444  22366068.3444                   22366070.0744
 -74314633.33246 -57870636.25743  23294598.2974                   23294600.7234
 -22549512.06247 -17551073.91945  21809976.6644                   21809977.2504
 -63041485.07847 -49101301.19645  22180878.5554                   22180878.3244
  -8249342.29747  -6412534.40744  23192615.3914                   23192615.5824
   3345251.40446   2622723.69843  24413755.7894                   24413761.1054
 -51726877.68448 -40283172.20646  20285400.7734                   20285400.3874
 -35506563.46547 -27646195.41744  22775531.6174                   22775533.5784
 -32937079.98448 -25643630.13446  21097538.5944                   21097536.1524
 11  7 31  0 43 30.0000000  0  9G09G28G10G17G12G05G04G27G02
 -24691677.82847 -19218517.73744  22359324.7424                   22359325.6954
 -74300618.13346 -57859715.41443  23297265.5164                   23297267.4414
 -22692069.04347 -17662157.21145  21782848.6954                   21782849.2774
 -63075161.20747 -49127542.38345  22174470.1414                   22174469.9734
  -8415446.40247  -6541966.14344  23161007.2034                   23161006.8014
   3165735.37946   2482841.29544  24379595.8284                   24379600.1644
 -51758229.37148 -40307602.09346  20279434.5704                   20279434.4104
 -35542384.18747 -27674107.70144  22768715.6724                   22768717.6564
 -33052705.59048 -25733727.97246  21075536.2424                   21075534.0354
 11  7 31  0 44  0.0000000  0  9G09G28G10G17G12G05G04G27G02
 -24726529.90647 -19245675.29144  22352692.1644                   22352693.3054
 -74286247.73446 -57848517.73443  23300000.1804                   23300001.7894
 -22834159.58647 -17772877.04745  21755809.6174                   21755810.2934
 -63108678.87147 -49153660.07845  22168091.9144                   22168091.8874
  -8581343.01647  -6671236.18244  23129437.9144                   23129437.8524
   2986234.35546   2342970.64843  24345436.7584                   24345441.8754
 -51789100.87148 -40331657.81246  20273559.7344                   20273560.1724
 -35577774.96947 -27701684.96244  22761980.4454                   22761982.6334
 -33167899.64148 -25823489.54146  21053615.2974                   21053613.1884
 11  7 31  0 44 30.0000000  0  9G09G28G10G17G12G05G04G27G02
 -24760789.76647 -19272371.33445  22346172.9614                   22346174.1604
 -74271520.66446 -57837042.22143  23302802.7504                   23302804.3094
 -22975776.80147 -17883228.04945  21728860.6024                   21728861.3554
 -63142033.82447 -49179650.96545  22161744.8984                   22161744.9384
  -8747025.70747  -6800339.52444  23097909.5084                   23097908.8754
   2806754.69546   2203116.60343  24311281.8834                   24311287.7624
 -51819490.94948 -40355338.38546  20267776.5394                   20267776.7034
 -35612734.45347 -27728926.14944  22755327.9534                   22755329.1994
 -33282658.70748 -25912912.14846  21031777.4384                   21031775.2624
 11  7 31  0 45  0.0000000  0  9G09G28G10G17G12G05G04G27G02
 -24794462.69947 -19298610.06144  22339765.7344                   22339767.0554
 -74256440.86746 -57825291.81543  23305672.7734                   23305674.8634
 -23116920.91447 -17993210.40245  21702002.2504                   21702002.2344
 -63175229.36347 -49205517.65245  22155427.8054                   22155428.0274
  -8912495.05547  -6929276.63844  23066421.2584                   23066421.8984
   2627296.18046   2063279.17743  24277132.0864                   24277137.2664
 -51849404.67648 -40378647.78346  20262084.6954                   20262084.3634
 -35647267.58247 -27755835.14745  22748757.1414                   22748758.5744
 -33396985.90248 -26001998.24846  21010021.5474                   21010019.0784
 11  7 31  0 45 30.0000000  0  9G09G28G10G17G12G05G04G27G02
 -24827547.87547 -19324390.77245  22333469.6484                   22333470.9774
 -74241006.51646 -57813265.08343  23308610.5004                   23308612.1914
 -23257585.70347 -18102819.26445  21675234.7584                   21675234.7734
 -63208261.27047 -49231256.81945  22149142.2344                   22149142.4384
  -9077745.64847  -7058043.31945  23034975.6884                   23034975.4384
   2447864.59446   1923462.59842  24242987.5944                   24242992.5204
 -51878841.00448 -40401585.18246  20256482.9384                   20256482.6604
 -35681373.14847 -27782410.96644  22742266.5944                   22742268.7234
 -33510877.84848 -26090745.18846  20988348.6804                   20988346.7504
 11  7 31  0 46  0.0000000  0  9G09G28G10G17G12G05G04G27G02
 -24860049.34047 -19349716.64044  22327284.4924                   22327285.8834
 -74225220.82046 -57800964.64043  23311614.2344                   23311616.2774
 -23397769.81647 -18212053.57145  21648558.2114                   21648558.6844
 -63241131.05947 -49256869.68645  22142887.1254                   22142887.7304
  -9242776.63747  -7186638.83845  23003570.8444                   23003570.8714
   2268461.05946   1783667.97143  24208848.3834                   24208853.1374
 -51907803.78948 -40424153.59146  20250971.8754                   20250970.9884
 -35715054.91846 -27808656.53844  22735856.7344                   22735858.4414
 -33624336.10948 -26179154.19746  20966758.0164                   20966755.5984
 11  7 31  0 46 30.0000000  0  9G09G28G10G17G12G05G04G27G02
 -24891967.07847 -19374587.67544  22321210.9224                   22321212.4844
 -74209082.97746 -57788389.76943  23314684.5004                   23314686.3794
 -23537467.74247 -18320909.01945  21621974.4694                   21621975.3244
 -63273835.68447 -49282353.82545  22136663.9304                   22136663.9494
  -9407582.85947  -7315059.23445  22972209.3284                   22972209.7344
   2089091.02046   1643899.37543  24174715.1484                   24174718.7624
 -51936292.69148 -40446352.74446  20245550.3284                   20245550.0904
 -35748312.57847 -27834571.66144  22729528.8204                   22729530.3524
 -33737358.20748 -26267223.32846  20945251.0634                   20945248.6994
 11  7 31  0 47  0.0000000  0  9G09G28G10G17G12G05G04G27G02
 -24923303.63347 -19399005.79645  22315247.7034                   22315249.0434
 -74192594.13746 -57775541.41243  23317822.1564                   23317824.3164
 -23676676.12147 -18429383.00145  21595483.9614                   21595484.4454
 -63306374.85547 -49307709.03545  22130471.9224                   22130472.1764
  -9572162.11347  -7443302.75945  22940890.9844                   22940891.2464
   1909756.99646   1504158.86943  24140589.1334                   24140593.0944
 -51964309.88748 -40468184.33646  20240218.9534                   20240218.6254
 -35781148.29747 -27860157.97844  22723280.3834                   22723282.4774
 -33849944.01248 -26354952.50446  20923826.1334                   20923824.3754
 11  7 31  0 47 30.0000000  0  9G09G28G10G17G12G05G04G27G02
 -24954063.32447 -19422974.46245  22309394.0474                   22309396.0164
 -74175758.25446 -57762422.63843  23321026.3984                   23321028.6994
 -23815394.32847 -18537475.02845  21569086.7194                   21569087.1604
 -63338749.71547 -49332936.22045  22124310.9144                   22124311.3244
  -9736513.73847  -7571368.90345  22909616.0784                   22909615.9774
   1730459.95346   1364447.18543  24106470.2734                   24106473.1454
 -51991859.52048 -40489651.58446  20234976.3054                   20234976.2544
 -35813566.03547 -27885418.64344  22717110.6334                   22717113.1994
 -33962095.74248 -26442343.43346  20902484.4844                   20902482.4224
 11  7 31  0 48  0.0000000  0  9G09G28G10G17G12G05G04G27G02
 -24984243.76647 -19446491.75144  22303651.5314                   22303652.3244
 -74158571.75446 -57749030.66243  23324296.6484                   23324298.5664
 -23953613.99647 -18645178.61445  21542784.0084                   21542784.3484
 -63370954.54747 -49358030.90945  22118183.1414                   22118182.7344
  -9900630.26647  -7699251.85645  22878385.6484                   22878385.7774
   1551207.63746   1224770.35043  24072358.7424                   24072363.4144
 -52018938.70748 -40510752.26646  20229822.7814                   20229823.2664
 -35845562.91447 -27910351.37944  22711022.2584                   22711023.8524
 -34073808.14548 -26529392.02646  20881226.1954                   20881224.1214
 11  7 31  0 48 30.0000000  0  9G09G28G10G17G12G05G04G27G02
 -25013849.37947 -19469561.12444  22298017.4454                   22298018.8524
 -74141037.92246 -57735368.04943  23327633.7274                   23327635.5634
 -24091334.03547 -18752492.85345  21516577.1724                   21516577.3134
 -63402991.50047 -49382994.78045  22112086.6414                   22112086.4804
 -10064511.38747  -7826951.36045  22847200.0864                   22847199.9064
   1372000.89846   1085129.04543  24038256.5084                   24038261.7584
 -52045551.66048 -40531489.62646  20224759.0474                   20224759.0084
 -35877142.97747 -27934959.21644  22705013.4384                   22705014.6954
 -34185083.50848 -26616100.07046  20860051.5084                   20860049.2304
 11  7 31  0 49  0.0000000  0  9G09G28G10G17G12G05G04G27G02
 -25042883.33647 -19492185.02044  22292492.3524                   22292494.5204
 -74123158.87146 -57721436.46443  23331035.8444                   23331038.1804
 -24228552.35547 -18859416.15245  21490465.0084                   21490465.6254
 -63434860.61747 -49407827.87645  22106022.1564                   22106022.0204
 -10228155.01647  -7954465.81845  22816059.1564                   22816059.1174
   1192841.33646    945524.49743  24004163.3524                   24004168.0984
 -52071701.34848 -40551866.02246  20219783.1804                   20219782.5984
 -35908309.26247 -27959244.71544  22699081.9844                   22699085.1564
 -34295922.50848 -26702468.10546  20838959.5084                   20838957.2034
 11  7 31  0 49 30.0000000  0  9G09G28G10G17G12G05G04G27G02
 -25071349.53547 -19514366.51845  22287075.5474                   22287076.8284
 -74104937.89546 -57707238.38043  23334502.7504                   23334505.6684
 -24365267.49247 -18965947.36545  21464449.1564                   21464449.5514
 -63466562.53947 -49432530.68945  22099989.6094                   22099989.1334
 -10391560.11747  -8081794.39644  22784964.1174                   22784964.4574
   1013730.61346    805957.99344  23970080.1564                   23970084.0474
 -52097391.14548 -40571884.06946  20214894.4224                   20214894.0514
 -35939065.20347 -27983210.46244  22693229.3054                   22693231.7854
 -34406326.58648 -26788497.22746  20817950.1804                   20817947.9144
 11  7 31  0 50  0.0000000  0  9G09G28G10G17G12G05G04G27G02
 -25099245.32047 -19536103.54544  22281767.3594                   22281768.8754
 -74086370.92646 -57692770.72444  23338036.4694                   23338039.0394
 -24501470.95347 -19072079.86145  21438530.7894                   21438530.8984
 -63498091.44547 -49457098.66545  22093989.6724                   22093989.2734
 -10554718.89147  -8208931.03545  22753916.7894                   22753916.4024
    834677.26246    666436.17843  23936006.0314                   23936011.0314
 -52122618.28948 -40591541.59446  20210094.0554                   20210093.5234
 -35969407.52047 -28006853.90444  22687456.8594                   22687457.7424
 -34516290.59848 -26874183.42946  20797024.4614                   20797022.2074
 11  7 31  0 50 30.0000000  0  9G09G28G10G17G12G05G04G27G02
 -23551153.08647 -18329797.95644  22576359.4144                   22576361.2544
 -72492041.03546 -56450435.86243  23641427.7734                   23641429.8984
 -23061735.84447 -17950208.28045  21712502.7974                   21712503.0004
 -61954026.89847 -48253931.50745  22387814.9454                   22387815.3714
  -9142204.12547  -7108270.12945  23022708.8984                   23022708.7384
   2231109.25846   1754565.29344  24201738.9224                   24201742.8284
 -50571964.66048 -39383240.06746  20505173.4224                   20505172.9454
 -34423918.59847 -26802576.85644  22981553.0944                   22981554.8164
 -33050391.70348 -25731924.53046  21075976.1484                   21075973.9064
 11  7 31  0 51  0.0000000  0  9G09G28G10G17G12G05G04G27G02
 -23577915.37947 -18350651.72244  22571266.9774                   22571268.5904
 -72472786.62146 -56435432.53743  23645091.4304                   23645093.8674
 -23196906.60947 -18055536.08645  21686780.8054                   21686780.9734
 -61985208.36347 -48278228.73545  22381881.4694                   22381881.8204
  -9304862.59047  -7235016.90045  22991755.7894                   22991756.0634
   2052179.01246   1615139.42544  24167689.7194                   24167693.2504
 -50596272.44548 -39402181.20946  20500548.0554                   20500547.5864
 -34453440.52047 -26825581.01044  22975933.9844                   22975937.2664
 -33159475.10248 -25816924.54046  21055217.9144                   21055215.6844
 11  7 31  0 51 30.0000000  0  9G09G28G10G17G12G05G04G27G02
 -23604114.73847 -18371066.83144  22566281.1174                   22566282.3984
 -72453190.84046 -56420163.21443  23648820.3054                   23648822.9884
 -23331556.68447 -18160458.15445  21661157.9774                   21661157.9104
 -62016214.96547 -48302389.75545  22375981.0784                   22375981.0744
  -9467266.80147  -7361565.57345  22960851.2114                   22960850.9924
   1873314.44946   1475764.74844  24133652.6484                   24133656.0744
 -50620123.52048 -39420766.47946  20496009.3984                   20496008.5744
 -34482555.35947 -26848268.01144  22970395.1724                   22970397.3134
 -33268118.39148 -25901581.61346  21034543.9614                   21034541.6334
 11  7 31  0 52  0.0000000  0  9G09G28G10G17G12G05G04G27G02
 -23629754.59447 -18391045.99944  22561402.0704                   22561403.4804
 -72433256.01646 -56404629.75643  23652614.3444                   23652616.5864
 -23465684.09847 -18264972.94545  21635634.3524                   21635634.3134
 -62047047.21947 -48326414.91045  22370113.6644                   22370113.9144
  -9629414.94547  -7487914.71645  22929995.3674                   22929995.2934
   1694517.56646   1336442.75343  24099627.4614                   24099632.4414
 -50643521.27048 -39438998.50546  20491556.6564                   20491556.1604
 -34511266.00447 -26870639.98744  22964931.4924                   22964932.7774
 -33376322.19948 -25985896.23246  21013953.0084                   21013951.5234
 11  7 31  0 52 30.0000000  0  9G09G28G10G17G12G05G04G27G02
 -23654837.00847 -18410590.77144  22556628.8914                   22556630.8014
 -72412982.57046 -56388832.36643  23656472.5474                   23656475.1414
 -23599284.77747 -18369077.32745  21610210.9774                   21610210.7344
 -62077703.54347 -48350302.97345  22364280.6334                   22364280.6414
  -9791303.73447  -7614061.78845  22899189.0394                   22899189.3554
   1515792.30546   1197176.58144  24065616.6414                   24065622.3204
 -50666466.66848 -39456878.04246  20487190.5784                   20487189.8794
 -34539573.75446 -26892698.07344  22959543.8054                   22959546.0124
 -33484086.00448 -26069867.99246  20993446.6174                   20993443.9144
 11  7 31  0 53  0.0000000  0  9G09G28G10G17G12G05G04G27G02
 -23679365.83246 -18429704.19144  22551961.3444                   22551963.4264
 -72392374.12946 -56372773.96542  23660393.7034                   23660395.5984
 -23732357.25447 -18472770.09745  21584887.5394                   21584887.9144
 -62108184.82847 -48374054.65545  22358480.4224                   22358480.1134
  -9952932.32047  -7740006.08245  22868432.2664                   22868432.0044
   1337140.00846   1057967.27044  24031620.6414                   24031624.9064
 -50688963.82848 -39474408.31046  20482909.2814                   20482908.9494
 -34567482.44947 -26914445.16844  22954233.2114                   22954236.0164
 -33591411.54748 -26153498.25146  20973022.9534                   20973020.8674
 11  7 31  0 53 30.0000000  0  9G09G28G10G17G12G05G04G27G02
 -23703344.34047 -18448388.79744  22547398.5784                   22547400.6684
 -72371432.85246 -56356456.12943  23664379.0084                   23664380.7664
 -23864899.54747 -18576049.74745  21559665.7584                   21559665.9494
 -62138491.48447 -48397670.24845  22352712.5864                   22352713.1454
 -10114298.34047  -7865745.79745  22837725.4534                   22837725.1024
   1158562.93846    918816.57643  23997638.5164                   23997641.8164
 -50711015.27348 -39491591.26646  20478713.2504                   20478712.4384
 -34594995.00447 -26935883.59044  22948998.3594                   22949000.8834
 -33698299.10248 -26236787.22546  20952683.1024                   20952680.6884
 11  7 31  0 54  0.0000000  0  9G09G28G10G17G12G05G04G27G02
 -23726772.50446 -18466644.55944  22542940.3834                   22542941.7584
 -72350157.27347 -56339877.91343  23668427.9534                   23668429.9384
 -23996905.84847 -18678911.74645  21534545.8284                   21534545.6804
 -62168620.05947 -48421147.08345  22346980.3594                   22346979.7814
 -10275396.62547  -7991276.87745  22807069.4224                   22807069.0744
    980066.96946    779729.05643  23963671.2114                   23963675.5594
 -50732620.45748 -39508426.49246  20474602.0784                   20474601.4804
 -34622110.69547 -26957012.78344  22943838.8364                   22943840.2584
 -33804746.12148 -26319732.93546  20932426.6884                   20932424.4024
 11  7 31  0 54 30.0000000  0  9G09G28G10G17G12G05G04G27G02
 -23749655.41447 -18484475.42444  22538585.8834                   22538587.1024
 -72328551.72747 -56323042.49643  23672539.4844                   23672541.4804
 -24128375.79747 -18781355.80645  21509527.7034                   21509527.5864
 -62198571.93447 -48444486.22245  22341280.1414                   22341279.7154
 -10436227.19547  -8116599.34145  22776464.4384                   22776464.6644
    801652.12146    640704.74344  23929720.2114                   23929724.2894
 -50753784.09848 -39524917.66146  20470574.7194                   20470574.0904
 -34648834.17646 -26977836.36044  22938752.3914                   22938755.0084
 -33910755.48848 -26402337.59746  20912253.9844                   20912251.6804
 11  7 31  0 55  0.0000000  0  9G09G28G10G17G12G05G04G27G02
 -23771987.56247 -18501877.15844  22534336.4144                   22534338.0664
 -72306609.47746 -56305944.73043  23676714.6884                   23676716.6844
 -24259298.51647 -18883373.44945  21484613.6334                   21484613.5354
 -62228338.98047 -48467681.35145  22335615.8284                   22335615.6994
 -10596779.25847  -8241704.80145  22745912.2664                   22745912.0164
    623329.66847    501752.39844  23895786.5474                   23895790.3954
 -50774500.36748 -39541060.22846  20466632.3834                   20466632.0394
 -34675159.77047 -26998349.90344  22933743.9224                   22933745.3674
 -34016319.27748 -26484595.05446  20892165.8834                   20892163.4104
 11  7 31  0 55 30.0000000  0  9G09G28G10G17G12G05G04G27G02
 -23793776.28947 -18518855.41744  22530190.1024                   22530191.9064
 -72284336.89846 -56288589.60643  23680952.9924                   23680955.2504
 -24389675.61347 -18984965.93945  21459803.6954                   21459804.0664
 -62257925.34047 -48490735.67445  22329985.9064                   22329985.6844
 -10757054.75447  -8366594.73145  22715412.6884                   22715412.3914
    445097.71946    362870.58044  23861869.9614                   23861873.3054
 -50794776.13348 -39556859.53846  20462773.9844                   20462773.6994
 -34701094.33647 -27018558.71044  22928808.4534                   22928810.8284
 -34121442.15248 -26566508.95346  20872161.2584                   20872159.3754
 11  7 31  0 56  0.0000000  0  9G09G28G10G17G12G05G04G27G02
 -23815020.84046 -18535409.68544  22526147.2274                   22526149.0084
 -72261732.03946 -56270975.55143  23685254.8524                   23685257.5514
 -24519500.48447 -19086128.12745  21435098.9384                   21435098.8914
 -62287326.50447 -48513645.69845  22324390.6254                   22324390.3954
 -10917047.43747  -8491264.33645  22684967.0784                   22684967.1994
    266963.03547    224064.57643  23827971.3674                   23827974.9064
 -50814609.82047 -39572314.38446  20459000.1024                   20458999.4454
 -34726636.38347 -27038461.65244  22923947.5394                   22923950.3134
 -34226120.53948 -26648076.49746  20852241.7504                   20852239.3674
 11  7 31  0 56 30.0000000  0  9G09G28G10G17G12G05G04G27G02
 -23835725.37146 -18551543.13844  22522207.4694                   22522209.0124
 -72238797.78546 -56253104.83043  23689619.3914                   23689621.7664
 -24648772.02047 -19186859.12845  21410499.6804                   21410499.1884
 -62316543.13747 -48536411.92245  22318830.8524                   22318830.7894
 -11076755.99647  -8615712.51345  22654575.6024                   22654575.3524
     88927.04346     85335.41344  23794093.0164                   23794095.7934
 -50834005.14847 -39587427.64746  20455309.0234                   20455308.7074
 -34751789.77347 -27058061.85044  22919161.1094                   22919163.7274
 -34330356.13348 -26729299.00046  20832406.5634                   20832404.3164
 11  7 31  0 57  0.0000000  0  9G09G28G10G17G12G05G04G27G02
 -23855897.38347 -18567261.67344  22518369.2814                   22518370.8364
 -72215540.18746 -56234982.29443  23694045.1804                   23694048.0704
 -24777491.93747 -19287160.31945  21386004.9614                   21386005.1094
 -62345579.12947 -48559037.38045  22313305.3834                   22313305.7464
 -11236182.59047  -8739940.98645  22624237.2034                   22624237.5864
    -89011.95747    -53318.11044  23760231.9224                   23760235.4924
 -50852968.86348 -39602204.59946  20451700.0234                   20451699.8554
 -34776561.18047 -27077364.32844  22914447.8054                   22914449.8874
 -34434153.63747 -26810180.15046  20812654.6644                   20812652.1454
 11  7 31  0 57 30.0000000  0  9G09G28G10G17G12G05G04G27G02
 -23875540.46947 -18582567.99744  22514631.0784                   22514632.9804
 -72191962.30946 -56216610.01643  23698531.5474                   23698534.4774
 -24905658.07447 -19387029.98645  21361615.8054                   21361615.3914
 -62374435.60247 -48581522.97645  22307814.2034                   22307814.1294
 -11395325.56247  -8863948.42645  22593953.4844                   22593953.8364
   -266851.76646   -191894.32744  23726390.0234                   23726393.1994
 -50871504.21548 -39616647.75646  20448173.2274                   20448172.8284
 -34800954.01247 -27096371.77344  22909806.7274                   22909808.5664
 -34537514.31648 -26890720.91046  20792985.8674                   20792983.3244
 11  7 31  0 58  0.0000000  0  9G09G28G10G17G12G05G04G27G02
 -23894655.33647 -18597462.76844  22510993.2274                   22510994.9104
 -72168063.87546 -56197988.06143  23703079.9224                   23703082.5904
 -25033266.23047 -19486464.86545  21337332.5704                   21337332.4494
 -62403109.13747 -48603866.01445  22302358.0474                   22302357.8284
 -11554180.26247  -8987731.26045  22563724.5234                   22563724.4224
   -444587.95747   -330389.82144  23692567.5554                   23692571.3014
 -50889611.41048 -39630757.27546  20444727.2584                   20444727.1524
 -34824968.60947 -27115084.55944  22905236.2504                   22905239.0354
 -34640436.46548 -26970919.96146  20773400.1564                   20773398.0554
 11  7 31  0 58 30.0000000  0  9G09G28G10G17G12G05G04G27G02
 -23913241.19947 -18611945.32244  22507457.2504                   22507459.0084
 -72143842.88746 -56179114.66443  23707688.9224                   23707691.1374
 -25160309.84847 -19585459.82845  21313156.9224                   21313156.8484
 -62431596.26647 -48626063.80345  22296937.0164                   22296936.8484
 -11712740.45747  -9111284.59245  22533551.5864                   22533551.4264
   -622213.77746   -468799.33844  23658766.0634                   23658769.5744
 -50907289.17648 -39644532.18146  20441363.3674                   20441363.6054
 -34848603.76247 -27133501.63144  22900738.6884                   22900741.6804
 -34742916.40647 -27050774.42946  20753898.7584                   20753896.4494
 11  7 31  0 59  0.0000000  0  9G09G28G10G17G12G05G04G27G02
 -23931302.32047 -18626018.94544  22504020.1024                   22504022.0944
 -72119302.14546 -56159992.11443  23712359.6954                   23712361.8714
 -25286787.24647 -19684013.60845  21289088.8834                   21289088.9304
 -62459897.34447 -48648116.59445  22291551.5164                   22291551.7344
 -11871004.85247  -9234607.44645  22503434.9304                   22503435.0044
   -799727.64546   -607121.56344  23624986.2034                   23624989.2304
 -50924541.01648 -39657975.19746  20438080.5084                   20438080.4734
 -34871862.95347 -27151625.76344  22896313.3284                   22896314.8244
 -34844955.96148 -27130285.75146  20734481.4694                   20734478.7854
 11  7 31  0 59 30.0000000  0  9G09G28G10G17G12G05G04G27G02
 -23948843.37947 -18639687.38544  22500682.3054                   22500684.0704
 -72094445.12546 -56140623.14443  23717089.7894                   23717091.2194
 -25412697.81647 -19782125.68845  21265128.8984                   21265128.6914
 -62488013.56247 -48670025.35245  22286200.8984                   22286200.9734
 -12028972.13747  -9357698.77845  22473374.6334                   22473374.1684
   -977128.19546   -745355.53244  23591227.8054                   23591231.3594
 -50941370.86748 -39671089.38546  20434877.8134                   20434878.2544
 -34894750.40247 -27169460.25244  22891957.6644                   22891959.5274
 -34946557.17248 -27209455.49546  20715147.5234                   20715145.1604
 11  7 31  1  0  0.0000000  0  9G09G28G10G17G12G05G04G27G02
 -23965860.77347 -18652947.74844  22497443.7034                   22497446.1254
 -72069267.48046 -56121004.22342  23721881.2274                   23721882.4064
 -25538032.41447 -19879788.95445  21241278.6334                   21241278.9384
 -62515937.80947 -48691784.51845  22280887.2034                   22280887.4144
 -12186634.18447  -9480552.26845  22443372.5864                   22443371.7704
  -1154406.24246   -883493.96644  23557492.9304                   23557495.3874
 -50957774.83648 -39683871.71846  20431756.3524                   20431756.3874
 -34917262.12547 -27187001.89944  22887673.1334                   22887675.8364
 -35047713.98848 -27288278.96246  20695897.9304                   20695894.9924
 11  7 31  1  0 30.0000000  0  9G09G28G10G17G12G05G04G27G02
 -23982359.25047 -18665803.77544  22494303.7584                   22494305.4224
 -72043772.72346 -56101138.16743  23726731.5164                   23726733.5704
 -25662790.73047 -19977003.18345  21217537.8444                   21217538.0664
 -62543671.38347 -48713395.11545  22275609.7034                   22275609.7424
 -12343990.02747  -9603167.14945  22413428.5084                   22413428.2274
  -1331560.57446  -1021536.08344  23523781.5164                   23523784.0044
 -50973756.86748 -39696325.27046  20428714.9774                   20428715.1484
 -34939402.53147 -27204254.26544  22883461.0864                   22883463.4024
 -35148428.51248 -27366757.79446  20676732.5394                   20676730.1524
 11  7 31  1  1  0.0000000  0  9G09G28G10G17G12G05G04G27G02
 -23998342.94547 -18678258.67144  22491262.8754                   22491264.3364
 -72017963.71146 -56081027.39842  23731643.3134                   23731645.8794
 -25786970.85947 -20073766.87145  21193907.1804                   21193907.5234
 -62571215.31247 -48734857.95645  22270368.7424                   22270368.1174
 -12501038.02347  -9725542.14245  22383543.2584                   22383542.8284
  -1508589.53547  -1159480.47544  23490093.2664                   23490096.2664
 -50989320.44948 -39708452.76146  20425753.3914                   20425753.5944
 -34961175.13347 -27221220.03744  22879317.5944                   22879320.1094
 -35248702.44948 -27444893.29846  20657650.9224                   20657648.4614
 11  7 31  1  1 30.0000000  0  9G09G28G10G17G12G05G04G27G02
 -22438393.32847 -17462713.56044  22788110.9064                   22788113.7424
 -70416422.55546 -54833073.43043  24036406.7664                   24036408.7774
 -24335145.35947 -18942474.22645  21470180.2584                   21470180.0434
 -61023147.08647 -47528571.03245  22564955.9224                   22564955.6994
 -11082349.37947  -8620070.43545  22653510.8054                   22653510.1844
   -110063.56647    -69719.73844  23756224.1564                   23756227.1684
 -49429046.59848 -38492654.95646  20722663.8674                   20722663.4844
 -33407160.56247 -26010299.64644  23175036.6884                   23175038.7934
 -33773111.68448 -26295082.29146  20938446.5474                   20938443.9574
 11  7 31  1  2  0.0000000  0  9G09G28G10G17G12G05G04G27G02
 -22453352.94147 -17474370.50644  22785264.6564                   22785266.9144
 -70389987.48845 -54812474.70342  24041436.4534                   24041439.4774
 -24458158.22347 -19038328.34945  21446771.7194                   21446771.9064
 -61050306.33247 -47549734.07445  22559787.9064                   22559787.7114
 -11238770.69547  -8741957.09845  22623744.5704                   22623744.2344
   -286829.86747   -207459.48644  23722586.7664                   23722589.7854
 -49443776.94948 -38504133.16346  20719860.4844                   20719860.6764
 -33428201.24247 -26026695.07244  23171032.8914                   23171034.9414
 -33872501.81248 -26372529.11446  20919533.1024                   20919530.7234
 11  7 31  1  2 30.0000000  0  9G09G28G10G17G12G05G04G27G02
 -22467810.89847 -17485636.51044  22782513.9064                   22782515.1334
 -70363247.78145 -54791638.76242  24046524.8594                   24046528.2814
 -24580589.07847 -19133728.97945  21423473.6954                   21423473.5634
 -61077277.96947 -47570750.95645  22554655.5164                   22554655.2194
 -11394880.33247  -8863600.92045  22594037.7894                   22594037.4144
   -463466.31647   -345098.08544  23688973.1254                   23688976.2504
 -49458099.93448 -38515293.94446  20717135.1564                   20717135.1684
 -33448885.57447 -26042812.85044  23167096.7974                   23167099.6454
 -33971456.52348 -26449636.66146  20900702.7034                   20900700.1214
 11  7 31  1  3  0.0000000  0  9G09G28G10G17G12G05G04G27G02
 -22481767.53947 -17496511.85344  22779858.2114                   22779859.4064
 -70336202.66445 -54770564.87043  24051672.2344                   24051674.9844
 -24702433.46547 -19228672.60945  21400287.5004                   21400287.6214
 -61104059.09847 -47591619.37545  22549559.3834                   22549559.1644
 -11550673.68047  -8984998.26945  22564391.1954                   22564391.0354
   -639967.18747   -482631.01144  23655386.2664                   23655389.1684
 -49472015.49248 -38526137.22746  20714487.2584                   20714486.8324
 -33469213.50847 -26058652.87944  23163228.3134                   23163230.8634
 -34069973.46148 -26526403.07146  20881955.2814                   20881952.6524
 11  7 31  1  3 30.0000000  0  9G09G28G10G17G12G05G04G27G02
 -22495229.67647 -17507001.86444  22777296.3834                   22777297.8984
 -70308857.82846 -54749257.39843  24056876.6644                   24056878.8134
 -24823692.27747 -19323159.94745  21377213.0634                   21377212.7074
 -61130652.86347 -47612341.80445  22544498.7274                   22544498.8674
 -11706151.66447  -9106149.88145  22534804.4844                   22534804.4414
   -816333.37947   -620058.98844  23621825.1484                   23621827.7424
 -49485529.39548 -38536667.55046  20711915.6414                   20711915.0984
 -33489191.17647 -26074219.95444  23159427.1024                   23159429.6414
 -34168056.77348 -26602831.60046  20863290.8834                   20863288.2464
 11  7 31  1  4  0.0000000  0  9G09G28G10G17G12G05G04G27G02
 -22508193.71547 -17517103.82044  22774829.0164                   22774831.6414
 -70281208.28946 -54727712.38643  24062137.7194                   24062140.8674
 -24944356.01247 -19417183.60145  21354251.3134                   21354251.6024
 -61157051.63747 -47632912.29045  22539475.0554                   22539474.9774
 -11861304.33247  -9227047.99245  22505280.1644                   22505279.6954
   -992555.30147   -757374.57844  23588290.4694                   23588293.2624
 -49498637.12148 -38546881.35746  20709421.1954                   20709420.7034
 -33508814.08247 -26089510.63544  23155692.4924                   23155695.4024
 -34265699.97347 -26678917.19246  20844709.7974                   20844707.1994
 11  7 31  1  4 30.0000000  0  9G09G28G10G17G12G05G04G27G02
 -22520661.95747 -17526819.37244  22772456.9844                   22772458.7624
 -70253255.28146 -54705930.98643  24067457.5474                   24067460.0784
 -25064422.12947 -19510741.55345  21331403.1094                   21331403.7974
 -61183254.55947 -47653330.15345  22534489.3134                   22534489.3204
 -12016129.19947  -9347690.69345  22475817.6644                   22475817.7194
  -1168629.70347   -894575.22344  23554784.3594                   23554787.3914
 -49511340.62548 -38556780.17746  20707004.1644                   20707003.5124
 -33528084.34847 -26104526.51143  23152025.8754                   23152028.7704
 -34362903.35548 -26754660.05746  20826212.5944                   20826210.1764
 11  7 31  1  5  0.0000000  0  9G09G28G10G17G12G05G04G27G02
 -22532645.26647 -17536157.07344  22770176.5004                   22770177.7194
 -70225008.52046 -54683920.61743  24072832.4304                   24072835.6804
 -25183895.80947 -19603837.89245  21308668.3134                   21308668.1024
 -61209269.16047 -47673601.28245  22529538.3054                   22529538.3984
 -12170631.42647  -9468081.95545  22446417.4534                   22446417.0314
  -1344561.14847  -1031664.41744  23521305.9774                   23521308.2464
 -49523649.99248 -38566371.90346  20704661.5944                   20704660.7974
 -33547012.27347 -26119275.61544  23148424.1024                   23148425.9384
 -34459675.20748 -26830066.67546  20807797.6174                   20807795.5124
 11  7 31  1  5 30.0000000  0  9G09G28G10G17G12G05G04G27G02
 -22544141.37947 -17545115.15244  22767988.4454                   22767990.2424
 -70196464.92246 -54661678.96843  24078264.1254                   24078266.9924
 -25302769.34047 -19696466.57645  21286047.2194                   21286047.0164
 -61235089.29347 -47693720.87745  22524625.2584                   22524625.0234
 -12324803.00447  -9588215.60745  22417078.8834                   22417078.6914
  -1520341.41447  -1168635.86544  23487855.8134                   23487858.4384
 -49535562.37548 -38575654.28346  20702394.7504                   20702394.3014
 -33565595.11747 -26133755.84944  23144887.6884                   23144891.0124
 -34556010.43048 -26905133.06546  20789465.7194                   20789462.7894
 11  7 31  1  6  0.0000000  0  9G09G28G10G17G12G05G04G27G02
 -22555153.42247 -17553696.00744  22765893.4224                   22765895.1254
 -70167626.00846 -54639207.22343  24083752.3674                   24083755.6454
 -25421040.73047 -19788626.05645  21263540.8834                   21263540.9494
 -61260714.67647 -47713688.70645  22519748.7504                   22519748.9454
 -12478641.44147  -9708089.63045  22387804.7894                   22387804.1524
  -1695967.59047  -1305487.22844  23454434.3204                   23454437.7274
 -49547080.09048 -38584629.12246  20700202.8834                   20700202.1994
 -33583835.45747 -26147969.14944  23141416.9384                   23141419.7384
 -34651909.47748 -26979859.57446  20771216.6334                   20771214.2584
 11  7 31  1  6 30.0000000  0  9G09G28G10G17G12G05G04G27G02
 -22565678.90247 -17561897.75744  22763890.2424                   22763892.7854
 -70138488.16446 -54616502.47843  24089297.6564                   24089300.1174
 -25538701.40647 -19880309.66445  21241150.4454                   21241150.5124
 -61286138.74247 -47733499.68045  22514910.7424                   22514911.0704
 -12632138.28947  -9827697.52145  22358594.9224                   22358594.8054
  -1871431.28946  -1442211.96244  23421045.1334                   23421047.5204
 -49558199.73448 -38593293.77646  20698086.9614                   20698086.4734
 -33601730.16447 -26161913.17544  23138012.0704                   23138014.5784
 -34747367.32448 -27054242.29846  20753051.3054                   20753049.0744
 11  7 31  1  7  0.0000000  0  9G09G28G10G17G12G05G04G27G02
 -22575728.37947 -17569728.57244  22761977.4614                   22761980.2074
 -70109060.79346 -54593572.20742  24094896.6724                   24094900.3554
 -25655756.70747 -19971521.56045  21218875.9614                   21218875.7194
 -61311368.23847 -47753159.04945  22510109.4694                   22510109.8714
 -12785298.63347  -9947043.18245  22329449.5554                   22329448.9774
  -2046736.87946  -1578813.51444  23387685.8674                   23387687.4804
 -49568931.09048 -38601655.87546  20696044.6484                   20696044.3594
 -33619289.30546 -26175595.71844  23134670.4924                   23134673.4184
 -34842392.10948 -27128287.57446  20734968.7194                   20734966.2034
 11  7 31  1  7 30.0000000  0  9G09G28G10G17G12G05G04G27G02
 -22585299.34847 -17577186.53744  22760156.8914                   22760158.8874
 -70079340.27345 -54570413.46142  24100552.1644                   24100555.1954
 -25772198.89547 -20062255.68645  21196717.4224                   21196717.6414
 -61336397.43747 -47772662.33945  22505346.8054                   22505346.7274
 -12938114.16847 -10066120.16145  22300370.0004                   22300369.4884
  -2221875.71547  -1715285.13844  23354357.2974                   23354360.4494
 -49579270.84448 -38609712.81246  20694077.3984                   20694076.7854
 -33636509.55946 -26189014.17543  23131393.6414                   23131396.3554
 -34936978.28948 -27201991.06846  20716969.9304                   20716967.2544
 11  7 31  1  8  0.0000000  0  9G09G28G10G17G12G05G04G27G02
 -22594400.09847 -17584278.09644  22758425.2194                   22758426.4614
 -70049333.53146 -54547031.65242  24106261.3594                   24106265.6524
 -25888030.82047 -20152514.30045  21174675.9694                   21174675.5204
 -61361231.02047 -47792013.18245  22500620.8134                   22500621.0944
 -13090587.60247 -10184930.57545  22271354.7504                   22271354.6764
  -2396850.10247  -1851628.59844  23321060.6024                   23321063.8714
 -49589226.50448 -38617470.47546  20692182.7584                   20692182.4614
 -33653398.84046 -26202174.75144  23128179.5704                   23128182.1604
 -35031131.76648 -27275357.39346  20699053.0784                   20699050.5314
 11  7 31  1  8 30.0000000  0  9G09G28G10G17G12G05G04G27G02
 -22603033.13347 -17591005.15544  22756782.4924                   22756784.4534
 -70019041.84445 -54523427.88342  24112026.2734                   24112029.5784
 -26003249.46947 -20242295.01845  21152750.0234                   21152749.8134
 -61385867.41847 -47811210.37845  22495932.9304                   22495933.0944
 -13242715.59847 -10303471.82545  22242406.2424                   22242405.6844
  -2571656.25447  -1987840.98744  23287796.6884                   23287798.2544
 -49598800.14548 -38624930.46946  20690360.7584                   20690360.4144
 -33669959.06247 -26215078.94244  23125028.7734                   23125031.5864
 -35124852.49248 -27348386.50746  20681218.6644                   20681216.0124
 11  7 31  1  9  0.0000000  0  9G09G28G10G17G12G05G04G27G02
 -22611203.19947 -17597371.52344  22755227.0474                   22755229.6174
 -69988469.23046 -54499605.16442  24117845.5704                   24117847.6524
 -26117854.43047 -20331597.55245  21130941.5314                   21130941.0474
 -61410307.96147 -47830254.96445  22491282.3284                   22491281.5704
 -13394497.41447 -10421743.32045  22213522.9384                   22213522.6334
  -2746293.65647  -2123921.90144  23254564.3674                   23254565.6764
 -49607995.29748 -38632095.51946  20688611.0474                   20688610.8484
 -33686194.68047 -26227730.10943  23121939.8834                   23121942.0004
 -35218142.89848 -27421080.30146  20663465.9224                   20663463.4184
 11  7 31  1  9 30.0000000  0  9G09G28G10G17G12G05G04G27G02
 -22618907.64846 -17603375.09144  22753761.9844                   22753763.9924
 -69957611.30546 -54475560.20743  24123716.9224                   24123719.9304
 -26231837.19947 -20420415.25045  21109251.2814                   21109251.0744
 -61434546.18447 -47849141.90745  22486669.6954                   22486669.3954
 -13545924.17247 -10539738.15345  22184707.2194                   22184706.8914
  -2920752.85947  -2259863.95344  23221365.5394                   23221367.1564
 -49616808.63347 -38638963.05846  20686933.8444                   20686933.3984
 -33702102.20747 -26240125.72344  23118912.1334                   23118914.8984
 -35310997.10548 -27493434.21646  20645796.0164                   20645793.6054
 11  7 31  1 10  0.0000000  0  9G09G28G10G17G12G05G04G27G02
 -22626148.85546 -17609017.58444  22752384.4064                   22752385.1914
 -69926469.21946 -54451293.74943  24129644.2274                   24129646.7344
 -26345194.69147 -20508745.72345  21087680.2034                   21087679.8754
 -61458580.53947 -47867869.98544  22482096.1414                   22482095.7854
 -13696992.43047 -10657453.62645  22155959.9144                   22155959.2774
  -3095030.04347  -2395664.17044  23188200.9304                   23188203.4224
 -49625241.30547 -38645533.98246  20685328.9534                   20685328.4574
 -33717683.21546 -26252266.84444  23115948.1414                   23115949.8834
 -35403415.06648 -27565448.19246  20628209.7894                   20628207.3164
 11  7 31  1 10 30.0000000  0  9G09G28G10G17G12G05G04G27G02
 -22632929.57446 -17614301.33344  22751092.8594                   22751093.9224
 -69895044.44146 -54426807.06643  24135623.2664                   24135625.9804
 -26457924.32847 -20596586.97245  21066228.3204                   21066228.1724
 -61482409.90647 -47886438.33644  22477561.6644                   22477561.3914
 -13847699.20347 -10774887.45045  22127281.0084                   22127281.0634
  -3269121.62547  -2531319.76444  23155072.7894                   23155074.8834
 -49633295.44547 -38651809.94646  20683796.3834                   20683796.1684
 -33732939.98446 -26264155.36144  23113043.8914                   23113047.0904
 -35495396.82847 -27637122.27346  20610705.9224                   20610703.8794
 11  7 31  1 11  0.0000000  0  9G09G28G10G17G12G05G04G27G02
 -22639253.09846 -17619228.83444  22749889.7814                   22749892.2624
 -69863339.27346 -54402101.83943  24141656.9224                   24141660.1174
 -26570024.16047 -20683937.45845  21044896.4304                   21044896.0354
 -61506034.08647 -47904846.79945  22473066.1414                   22473065.2034
 -13998042.15647 -10892037.75845  22098672.1954                   22098671.5704
  -3443025.27747  -2666828.92244  23121979.3914                   23121981.6054
 -49640973.78548 -38657793.07346  20682335.5554                   20682335.1914
 -33747875.31647 -26275793.37844  23110201.7424                   23110204.8204
 -35586943.40647 -27708457.24146  20593285.4534                   20593282.7234
 11  7 31  1 11 30.0000000  0  9G09G28G10G17G12G05G04G27G02
 -22645127.74247 -17623806.54344  22748772.4924                   22748774.8554
 -69831360.86746 -54377183.68443  24147741.8134                   24147745.3794
 -26681497.26247 -20770799.55545  21023683.8204                   21023683.6564
 -61529457.51647 -47923098.82144  22468608.2894                   22468608.0594
 -14148024.10547 -11008906.76245  22070131.2664                   22070130.5044
  -3616742.74247  -2802193.01044  23088921.9224                   23088924.4384
 -49648283.16448 -38663488.69646  20680944.4304                   20680944.1684
 -33762496.81647 -26287186.86844  23107420.0864                   23107422.6724
 -35678060.30947 -27779457.40546  20575946.4534                   20575943.9224
 11  7 31  1 12  0.0000000  0  9G09G28G10G17G12G05G04G27G02
 -22650547.28147 -17628029.62744  22747740.6724                   22747742.5274
 -69799101.62546 -54352046.83643  24153881.1174                   24153883.8204
 -26792331.90647 -20857164.18245  21002592.8834                   21002592.1604
 -61552670.22747 -47941186.64345  22464191.6724                   22464191.1214
 -14297632.62947 -11125484.80045  22041661.3284                   22041661.2074
  -3790261.80547  -2937402.51644  23055902.1724                   23055904.4654
 -49655216.74248 -38668891.49346  20679625.0314                   20679624.8554
 -33776797.65247 -26298330.49644  23104698.1334                   23104701.6724
 -35768738.60248 -27850115.79846  20558690.7734                   20558688.2854
 11  7 31  1 12 30.0000000  0  9G09G28G10G17G12G05G04G27G02
 -21080098.92246 -16404303.68443  23046586.8754                   23046588.8914
 -68191148.68746 -53099096.56143  24459864.7194                   24459868.1254
 -25327106.40247 -19715430.00745  21281415.5634                   21281415.7154
 -60000254.96147 -46731512.40645  22759606.4304                   22759606.1214
 -12871444.30147 -10014169.17045  22313056.4924                   22313056.0744
  -2388157.85947  -1844853.81544  23322713.3364                   23322715.3524
 -48086360.84848 -37446406.40246  20978168.2814                   20978167.9024
 -32215364.40247 -25081629.34444  23401829.8284                   23401832.3134
 -34283560.10948 -26692833.82646  20841310.8054                   20841308.2274
 11  7 31  1 13  0.0000000  0  8G09G10G17G12G05G04G27G02
 -21084624.35946 -16407830.09444  23045726.3364                   23045727.6174
 -25436664.60247 -19800799.99345  21260567.3914                   21260567.1804
 -60023051.12547 -46749275.66445  22755268.1724                   22755268.0864
 -13020304.57047 -10130164.15445  22284728.6174                   22284728.5634
  -2561277.81647  -1979752.32544  23289770.0234                   23289771.7464
 -48092556.39848 -37451234.12046  20976989.0864                   20976989.3914
 -32229038.54746 -25092284.66944  23399227.2734                   23399230.6644
 -34373369.85548 -26762815.42746  20824221.1024                   20824217.9884
 11  7 31  1 13 30.0000000  0  8G09G10G17G12G05G04G27G02
 -21088705.96946 -16411010.64044  23044949.9534                   23044951.9964
 -25545579.60547 -19885668.79645  21239841.4304                   21239841.2114
 -60045636.37147 -46766874.54545  22750970.6414                   22750970.2464
 -13168785.49647 -10245863.54845  22256473.9924                   22256473.4264
  -2734191.68447  -2114490.25444  23256865.2974                   23256867.9924
 -48098384.71947 -37455775.67746  20975880.2664                   20975880.4024
 -32242401.52047 -25102697.45144  23396684.6954                   23396687.7464
 -34462744.73447 -26832458.16646  20807213.3134                   20807210.5044
 11  7 31  1 14  0.0000000  0  8G09G10G17G12G05G04G27G02
 -21092334.04746 -16413837.80544  23044259.3364                   23044261.8674
 -25653836.46547 -19970024.75446  21219240.9304                   21219240.6844
 -60067996.87547 -46784298.35045  22746715.1334                   22746715.4024
 -13316871.41447 -10361255.12545  22228294.0704                   22228293.8834
  -2906883.75447  -2249055.32544  23224003.1094                   23224005.4574
 -48103835.34048 -37460022.91446  20974843.2034                   20974842.7624
 -32255443.18046 -25112859.92044  23394203.3444                   23394205.8674
 -34551672.15248 -26901752.23746  20790290.9384                   20790288.3244
 11  7 31  1 14 30.0000000  0  8G09G10G17G12G05G04G27G02
 -21095506.10547 -16416309.64743  23043655.4844                   23043657.8444
 -25761427.89147 -20053862.19545  21198767.4144                   21198766.6214
 -60090127.20347 -46801542.79745  22742504.2584                   22742503.6844
 -13464554.09447 -10476332.49345  22200191.3674                   22200190.5274
  -3079345.84847  -2383441.23444  23191184.6484                   23191186.3954
 -48108904.63347 -37463973.04246  20973878.2194                   20973878.3054
 -32268160.44546 -25122769.61044  23391782.9774                   23391785.9064
 -34640147.10248 -26970693.72946  20773454.6024                   20773452.1454
 11  7 31  1 15  0.0000000  0  8G09G10G17G12G05G04G27G02
 -21098229.66846 -16418432.03143  23043137.4614                   23043138.8484
 -25868355.61347 -20137182.46545  21178419.2194                   21178418.8054
 -60112030.53547 -46818610.32645  22738336.1484                   22738335.9964
 -13611834.86747 -10591096.70845  22172164.2114                   22172163.7584
  -3251578.66047  -2517648.48144  23158410.2194                   23158411.5704
 -48113599.28548 -37467631.21746  20972985.1414                   20972984.8404
 -32280560.14546 -25132431.84644  23389423.8284                   23389426.5824
 -34728174.57048 -27039286.53646  20756703.5004                   20756701.2114
 11  7 31  1 15 30.0000000  0  8G09G10G17G12G05G04G27G02
 -21100511.71147 -16420210.27544  23042703.9454                   23042704.8714
 -25974621.60547 -20219987.09945  21158197.6254                   21158196.6524
 -60133709.85547 -46835503.31545  22734211.2814                   22734211.0744
 -13758714.33247 -10705548.20345  22144214.1644                   22144213.7974
  -3423582.96147  -2651677.66344  23125678.0164                   23125680.2704
 -48117925.07447 -37471001.99046  20972162.2194                   20972161.8284
 -32292648.37146 -25141851.36344  23387123.6484                   23387126.7344
 -34815759.13748 -27107534.23646  20740036.7584                   20740034.3444
 11  7 31  1 16  0.0000000  0  8G09G10G17G12G05G04G27G02
 -21102353.79347 -16421645.74344  23042353.7034                   23042355.5634
 -26080222.14148 -20302273.19545  21138102.6804                   21138102.0124
 -60155162.92647 -46852220.01945  22730128.2344                   22730128.5704
 -13905188.85247 -10819684.15745  22116340.8134                   22116340.6884
  -3595354.10247  -2785525.14644  23092991.3984                   23092992.5164
 -48121882.71148 -37474085.87946  20971408.9384                   20971408.4654
 -32304426.20346 -25151029.02943  23384882.1954                   23384885.4344
 -34902899.24248 -27175435.58746  20723454.3284                   20723451.7854
 11  7 31  1 16 30.0000000  0  8G09G10G17G12G05G04G27G02
 -21103765.32846 -16422745.76744  23042082.8204                   23042086.9454
 -26185161.59047 -20384044.15145  21118132.8594                   21118132.2274
 -60176395.17647 -46868764.66245  22726087.7814                   22726088.1414
 -14051262.09847 -10933507.44945  22088544.2424                   22088543.4924
  -3766895.24647  -2919193.39544  23060348.2034                   23060350.1024
 -48125480.57047 -37476889.41446  20970724.5314                   20970724.0744
 -32315902.59446 -25159971.78443  23382698.3594                   23382701.4384
 -34989601.86748 -27242996.04946  20706955.6254                   20706952.9734
 11  7 31  1 17  0.0000000  0  8G09G10G17G12G05G04G27G02
 -21104747.92646 -16423511.59644  23041897.2894                   23041900.0164
 -26289436.37147 -20465297.19945  21098290.2274                   21098289.4384
 -60197404.56247 -46885135.61945  22722089.9064                   22722090.7034
 -14196929.43047 -11047014.42245  22060824.7194                   22060824.3484
  -3938201.73847  -3052678.82545  23027749.6564                   23027751.1844
 -48128719.44948 -37479413.24446  20970108.0944                   20970107.8834
 -32327078.57846 -25168680.45843  23380571.9774                   23380575.1254
 -35075866.19548 -27310214.96746  20690540.3914                   20690537.0434
 11  7 31  1 17 30.0000000  0  8G09G10G17G12G05G04G27G02
 -21105310.41447 -16423949.98944  23041791.2424                   23041792.5124
 -26393049.65248 -20546034.77245  21078573.3204                   21078572.7894
 -60218195.84047 -46901336.64645  22718133.8834                   22718134.0554
 -14342193.98447 -11160207.54545  22033181.8054                   22033181.0354
  -4109275.93447  -3185983.24644  22995194.3674                   22995196.7814
 -48131606.83648 -37481663.17346  20969558.4384                   20969558.3284
 -32337961.96546 -25177161.09843  23378500.7814                   23378503.3364
 -35161698.35247 -27377097.15146  20674206.7274                   20674203.9694
 11  7 31  1 18  0.0000000  0  8G09G10G17G12G05G04G27G02
 -21105454.19147 -16424062.06344  23041763.9534                   23041765.5004
 -26495998.28947 -20626254.47145  21058982.7424                   21058982.0824
 -60238766.92247 -46917366.09345  22714218.7664                   22714219.3714
 -14487051.50047 -11273083.48945  22005615.9534                   22005615.7664
  -4280113.41447  -3319103.20944  22962685.4534                   22962687.2304
 -48134143.66048 -37483639.94246  20969076.1724                   20969075.9964
 -32348554.05146 -25185414.77343  23376485.4924                   23376488.6334
 -35247097.37948 -27443641.82446  20657955.7424                   20657953.3284
 11  7 31  1 18 30.0000000  0  8G09G10G17G12G05G04G27G02
 -21105183.19946 -16423851.00144  23041813.8914                   23041817.2154
 -26598281.22347 -20705955.42445  21039518.9224                   21039518.5554
 -60259117.46547 -46933223.68745  22710346.4614                   22710346.7974
 -14631499.72747 -11385640.53645  21978128.2974                   21978127.9654
  -4450711.72347  -3452036.82345  22930221.5004                   22930223.4654
 -48136332.78948 -37485345.78346  20968659.3054                   20968659.3324
 -32358858.15646 -25193444.13143  23374525.0314                   23374528.1454
 -35332064.64848 -27509850.06746  20641787.0084                   20641784.4264
 11  7 31  1 19  0.0000000  0  8G09G10G17G12G05G04G27G02
 -21104499.81247 -16423318.68244  23041944.4144                   23041947.2814
 -26699895.53947 -20785135.36945  21020182.1024                   21020182.0944
 -60279246.52347 -46948908.71444  22706516.2664                   22706516.5434
 -14775535.09047 -11497875.83245  21950719.8524                   21950718.6914
  -4621066.80547  -3584780.90644  22897803.7034                   22897805.6844
 -48138175.46148 -37486781.66246  20968308.6414                   20968309.0204
 -32368875.93446 -25201250.24443  23372618.4694                   23372621.0704
 -35416600.01648 -27575721.75446  20625700.3834                   20625697.6024
 11  7 31  1 19 30.0000000  0  8G09G10G17G12G05G04G27G02
 -21103413.41847 -16422472.27744  23042152.5784                   23042154.2584
 -26800845.28948 -20863797.48745  21000971.8134                   21000971.7424
 -60299159.13347 -46964425.06544  22702727.0234                   22702727.4264
 -14919161.28547 -11609792.33545  21923388.0944                   21923387.7234
  -4791181.58247  -3717337.74444  22865432.1024                   22865433.3094
 -48139679.76248 -37487953.87246  20968022.5084                   20968022.3164
 -32378615.82846 -25208839.90543  23370764.8204                   23370768.7384
 -35500709.89548 -27641261.90146  20609695.1334                   20609691.7934
 11  7 31  1 20  0.0000000  0  8G09G10G17G12G05G04G27G02
 -21101927.38347 -16421314.37744  23042435.8984                   23042437.3714
 -26901129.07047 -20941940.66145  20981888.6254                   20981888.4804
 -60318854.76647 -46979772.32044  22698979.0944                   22698979.1134
 -15062375.80147 -11721388.02845  21896135.5234                   21896135.1174
  -4961052.99247  -3849704.95644  22833106.7504                   22833107.6564
 -48140848.24248 -37488864.41046  20967800.2344                   20967800.1334
 -32388080.64146 -25216215.20443  23368964.9304                   23368967.6374
 -35584395.28148 -27706471.28446  20593770.3284                   20593767.3364
 11  7 31  1 20 30.0000000  0  8G09G10G17G12G05G04G27G02
 -21100043.64547 -16419846.61044  23042793.2664                   23042795.5394
 -27000743.64147 -21019562.35945  20962932.6484                   20962932.5204
 -60338331.54747 -46994949.07344  22695272.8284                   22695272.7114
 -15205174.58247 -11832659.75445  21868961.7974                   21868961.1214
  -5130676.85247  -3981879.24944  22800827.6724                   22800828.9844
 -48141681.55547 -37489513.76446  20967641.4924                   20967641.3874
 -32397271.81146 -25223377.26843  23367215.5944                   23367218.5744
 -35667655.64848 -27771349.46946  20577925.9694                   20577923.1524
 11  7 31  1 21  0.0000000  0  8G09G10G17G12G05G04G27G02
 -21097767.70746 -16418073.32644  23043226.5704                   23043228.8954
 -27099689.38347 -21096662.90745  20944103.9304                   20944103.5704
 -60357591.28947 -47009956.68345  22691608.2194                   22691607.7344
 -15347557.25847 -11943607.27045  21841866.7974                   21841866.7854
  -5300052.35247  -4113860.03644  22768597.0234                   22768598.3914
 -48142184.43748 -37489905.63946  20967545.8524                   20967545.9064
 -32406194.23046 -25230329.90143  23365517.2034                   23365520.7034
 -35750493.78548 -27835898.65746  20562162.8364                   20562159.7424
 11  7 31  1 21 30.0000000  0  8G09G10G17G12G05G04G27G02
 -21095106.15247 -16415999.52944  23043732.9534                   23043736.0864
 -27197968.03147 -21173243.64546  20925401.8754                   20925401.6914
 -60376636.32047 -47024796.99644  22687983.5234                   22687983.2194
 -15489524.34047 -12054230.93645  21814851.5234                   21814851.2814
  -5469179.73047  -4245647.48045  22736412.9304                   22736414.3714
 -48142362.44947 -37490044.37646  20967512.1174                   20967512.0394
 -32414853.67646 -25237077.61544  23363869.6024                   23363872.5004
 -35832913.81248 -27900122.02646  20546478.8364                   20546475.8134
 11  7 31  1 22  0.0000000  0  8G09G10G17G12G05G04G27G02
 -21092061.68047 -16413627.31144  23044313.1174                   23044315.2624
 -27295577.09047 -21249302.62045  20906827.8984                   20906827.3484
 -60395465.03547 -47039468.73944  22684400.1644                   22684400.2934
 -15631072.35547 -12164528.05245  21787915.9534                   21787915.1024
  -5638055.32847  -4377238.77045  22704277.3984                   22704278.1414
 -48142216.50448 -37489930.67346  20967539.7274                   20967539.9804
 -32423252.25846 -25243622.12043  23362271.3204                   23362274.2344
 -35914915.55948 -27964019.47546  20530874.0164                   20530871.6334
 11  7 31  1 22 30.0000000  0  8G09G10G17G12G05G04G27G02
 -21088636.89847 -16410958.77144  23044964.0634                   23044966.5124
 -27392514.07847 -21324837.91045  20888381.3134                   20888381.0704
 -60414076.50047 -47053971.15944  22680858.5944                   22680858.5204
 -15772198.18447 -12274496.20545  21761060.6644                   21761060.0234
  -5806675.19547  -4508630.74145  22672189.7034                   22672191.3404
 -48141748.74648 -37489566.21346  20967628.8524                   20967628.9844
 -32431391.80546 -25249964.69144  23360722.7664                   23360726.4574
 -35996499.18048 -28027591.11646  20515349.1644                   20515346.5044
 11  7 31  1 23  0.0000000  0  8G09G10G17G12G05G04G27G02
 -21084836.65646 -16407997.69044  23045687.9384                   23045689.8914
 -27488779.14547 -21399849.62145  20870062.3834                   20870062.0434
 -60432471.52047 -47068304.96244  22677358.6174                   22677358.4304
 -15912900.44947 -12384134.30445  21734285.8754                   21734285.4344
  -5975037.95347  -4639822.37045  22640151.3834                   22640152.2734
 -48140962.66448 -37488953.69746  20967778.7424                   20967778.4104
 -32439276.78146 -25256108.97544  23359222.2734                   23359225.6334
 -36077666.93048 -28090838.69946  20499903.6804                   20499900.6524
 11  7 31  1 23 30.0000000  0  8G09G10G17G12G05G04G27G02
 -21080660.44946 -16404743.66844  23046481.9774                   23046485.0664
 -27584366.88747 -21474333.57245  20851872.7734                   20851872.4104
 -60450645.94547 -47082466.86744  22673899.7344                   22673899.8594
 -16053173.67647 -12493438.08245  21707592.6564                   21707592.0664
  -6143136.88347  -4770808.44045  22608162.7114                   22608164.3874
 -48139856.74648 -37488091.98745  20967989.3754                   20967989.0944
 -32446906.14846 -25262054.03743  23357770.3914                   23357774.4024
 -36158416.16448 -28153760.17046  20484537.4224                   20484534.7384
 11  7 31  1 24  0.0000000  0  8G09G10G17G12G05G04G27G02
 -19500697.85247 -15173604.06244  23347139.5864                   23347142.2584
 -26103858.93748 -20320690.96245  21133603.9454                   21133603.3794
 -58893184.78947 -45868860.79144  22970274.8754                   22970274.9844
 -14617596.12547 -11374806.18646  21980774.2034                   21980773.6334
  -4735549.14847  -3673986.69345  22876017.5164                   22876018.8554
 -46563019.48048 -36259387.63645  21268051.1094                   21268051.0744
 -30878868.28946 -24040206.54343  23656158.5394                   23656161.8164
 -34663330.64147 -26988758.44346  20769042.5004                   20769040.0044
 11  7 31  1 24 30.0000000  0  8G09G10G17G12G05G04G27G02
 -19495786.73447 -15169777.33144  23348073.4924                   23348076.5594
 -26198094.73448 -20394121.43445  21115671.5164                   21115671.0904
 -58910923.12947 -45882682.91744  22966900.0864                   22966899.7854
 -14757009.25447 -11483439.78045  21954244.7034                   21954244.1024
  -4903117.98447  -3804559.71545  22844130.4454                   22844131.8794
 -46561287.71148 -36258038.23945  21268380.9144                   21268381.0514
 -30886001.22746 -24045764.76043  23654801.1564                   23654804.6214
 -34743251.70348 -27051034.58446  20753834.5234                   20753831.1914
 11  7 31  1 25  0.0000000  0  8G09G10G17G12G05G04G27G02
 -19490515.55946 -15165670.08144  23349076.7504                   23349080.0474
 -26291654.66047 -20467025.25146  21097867.7974                   21097867.0354
 -58928444.95747 -45896336.31144  22963564.9774                   22963565.4964
 -14895991.13747 -11591737.33645  21927797.0314                   21927796.5634
  -5070419.91847  -3934924.73645  22812293.8674                   22812294.7704
 -46559248.68748 -36256449.40645  21268768.5394                   21268768.4264
 -30892892.48046 -24051134.71144  23653489.8914                   23653493.3874
 -34822762.47748 -27112991.01346  20738703.6644                   20738700.9694
 11  7 31  1 25 30.0000000  0  8G09G10G17G12G05G04G27G02
 -19484888.57446 -15161285.54543  23350147.4614                   23350151.1134
 -26384537.69948 -20539401.60845  21080192.6414                   21080192.2664
 -58945750.48847 -45909821.17944  22960271.8674                   22960272.5354
 -15034539.86747 -11699697.35345  21901432.7034                   21901431.6094
  -5237452.43446  -4065079.82045  22780508.4454                   22780509.5634
 -46556905.50847 -36254623.58145  21269214.7814                   21269214.5434
 -30899545.50446 -24056319.06644  23652223.9534                   23652227.7974
 -34901864.33648 -27174628.81446  20723651.3984                   20723648.7074
 11  7 31  1 26  0.0000000  0  8G09G10G17G12G05G04G27G02
 -19478910.14846 -15156627.14744  23351285.7814                   23351288.5744
 -26476743.50047 -20611250.26346  21062646.3674                   21062645.9064
 -58962839.66447 -45923137.45744  22957019.6884                   22957020.0824
 -15172653.56247 -11807318.40645  21875150.1564                   21875149.7304
  -5404213.45347  -4195023.36745  22748774.2814                   22748775.8244
 -46554261.38747 -36252563.24245  21269717.7194                   21269717.8874
 -30905963.75046 -24061320.39544  23651003.1884                   23651006.2774
 -34980559.14548 -27235949.43146  20708675.9844                   20708673.3594
 11  7 31  1 26 30.0000000  0  8G09G10G17G12G05G04G27G02
 -19472583.59047 -15151697.49044  23352490.1174                   23352492.6914
 -26568270.75847 -20682570.18645  21045229.2894                   21045228.7854
 -58979712.20347 -45936284.91344  22953808.9614                   22953809.3054
 -15310330.00047 -11914598.74145  21848951.2424                   21848950.6094
  -5570699.88747  -4324752.92745  22717093.2664                   22717094.4264
 -46551318.14148 -36250269.84345  21270277.8364                   21270277.6684
 -30912149.94146 -24066140.94743  23649825.2664                   23649829.1994
 -35058847.59048 -27296953.39946  20693777.9844                   20693775.5984
 11  7 31  1 27  0.0000000  0  8G09G10G17G12G05G04G27G02
 -19465914.81247 -15146501.09944  23353758.4224                   23353760.7664
 -26659121.04347 -20753362.59245  21027940.8054                   21027940.6884
 -58996370.28547 -45949265.26644  22950639.7274                   22950639.9774
 -15447569.44147 -12021538.54345  21822835.1414                   21822834.6524
  -5736911.81247  -4454268.63345  22685464.1564                   22685465.3164
 -46548081.10247 -36247747.49245  21270893.7114                   21270893.7734
 -30918109.77846 -24070785.06743  23648691.9304                   23648695.0394
 -35136733.62148 -27357643.79846  20678957.0554                   20678954.4024
 11  7 31  1 27 30.0000000  0  8G09G10G17G12G05G04G27G02
 -19458906.39847 -15141040.13244  23355092.7114                   23355095.7384
 -26749291.63348 -20823625.34945  21010782.2664                   21010781.6374
 -59012812.41447 -45962077.34144  22947510.8054                   22947511.5234
 -15584368.02047 -12128134.82046  21796803.3444                   21796802.5514
  -5902845.00447  -4583567.11145  22653888.1174                   22653889.3134
 -46544551.27348 -36244997.00345  21271565.4844                   21271565.6844
 -30923845.06646 -24075254.25743  23647600.2664                   23647604.0594
 -35214217.00048 -27418020.44846  20664212.0394                   20664209.8794
 11  7 31  1 28  0.0000000  0  9G09G25G10G17G12G05G04G27G02
 -19451563.96546 -15135318.87143  23356488.8984                   23356492.3324
  12352678.78556   9640684.76753  24698682.0394                   24698686.8954
 -26838783.60547 -20893359.34245  20993752.2424                   20993751.8984
 -59029039.98446 -45974722.26044  22944422.6804                   22944423.4414
 -15720725.48847 -12234387.37446  21770855.3674                   21770854.7854
  -6068498.73847  -4712647.84045  22622365.1564                   22622366.5084
 -46540733.15648 -36242021.86945  21272292.1644                   21272292.2424
 -30929360.66446 -24079552.26943  23646549.7974                   23646554.7584
 -35291300.64847 -27478085.61946  20649543.7894                   20649541.2304
 11  7 31  1 28 30.0000000  0  9G09G25G10G17G12G05G04G27G02
 -19443900.74647 -15129347.62643  23357948.4454                   23357951.4734
  12182593.16046   9508150.60043  24666316.6094                   24666320.7584
 -26927605.39848 -20962571.10745  20976850.1024                   20976849.7384
 -59045062.35947 -45987207.27244  22941373.8834                   22941374.2304
 -15856649.40247 -12340302.10646  21744989.7894                   21744989.3284
  -6233879.99247  -4841516.25545  22590894.0704                   22590894.9064
 -46536638.79748 -36238831.48246  21273071.6724                   21273071.3634
 -30934669.12946 -24083688.86743  23645539.7344                   23645544.8834
 -35367995.47747 -27537847.81546  20634949.1484                   20634946.6524
 11  7 31  1 29  0.0000000  0  9G09G25G10G17G12G05G04G27G02
 -19435930.40246 -15123137.09243  23359465.0004                   23359467.7234
  12012668.86746   9375742.12943  24633980.8984                   24633984.8954
 -27015766.05547 -21031267.70045  20960074.0634                   20960073.5594
 -59060889.20746 -45999539.90444  22938361.9304                   22938362.3324
 -15992147.43447 -12445884.98545  21719205.1644                   21719205.0164
  -6398995.64547  -4970177.71045  22559473.7584                   22559474.8914
 -46532280.51248 -36235435.43445  21273901.2194                   21273900.5234
 -30939783.18446 -24087674.03343  23644567.7664                   23644571.3954
 -35444312.59447 -27597315.70046  20620426.5554                   20620424.1414
 11  7 31  1 29 30.0000000  0  9G09G25G10G17G12G05G04G27G02
 -19427647.36347 -15116682.86644  23361041.0234                   23361044.5314
  11842917.30946   9243468.25743  24601677.9924                   24601681.3914
 -27103255.76247 -21099441.48246  20943424.5554                   20943424.6134
 -59076511.46146 -46011713.14144  22935389.5944                   22935389.7234
 -16127208.12947 -12551127.07246  21693504.0704                   21693503.7464
  -6563834.18447  -5098623.22445  22528105.5704                   22528106.6914
 -46527652.02747 -36231828.83745  21274781.5554                   21274781.6454
 -30944696.93046 -24091503.05343  23643633.0314                   23643636.0824
 -35520243.78947 -27656482.84546  20605977.0314                   20605974.5784
 11  7 31  1 30  0.0000000  0  9G09G25G10G17G12G05G04G27G02
 -19419056.64847 -15109988.89744  23362676.3444                   23362679.7424
  11673339.43446   9111329.64643  24569408.2664                   24569412.7854
 -27190074.66447 -21167092.54346  20926903.6094                   20926903.6374
 -59091929.88346 -46023727.57144  22932455.5394                   22932455.5594
 -16261830.60547 -12656027.70745  21667886.7504                   21667885.3914
  -6728394.13347  -5226851.65845  22496791.2894                   22496791.8284
 -46522756.83647 -36228014.41745  21275713.1884                   21275713.1644
 -30949414.76246 -24095179.38843  23642735.2504                   23642738.5704
 -35595791.81247 -27715351.43746  20591601.2504                   20591598.4144
 11  7 31  1 30 30.0000000  0  9G09G25G10G17G12G05G04G27G02
 -19410165.70747 -15103061.00143  23364368.0554                   23364370.6644
  11503933.62546   8979325.20843  24537171.7974                   24537175.9964
 -27276225.65647 -21234223.16346  20910509.5944                   20910509.5124
 -59107147.67246 -46035585.61444  22929559.3134                   22929560.0474
 -16396016.43747 -12760588.08246  21642351.6884                   21642350.9734
  -6892676.53547  -5354863.82245  22465528.9534                   22465530.1294
 -46517600.98047 -36223996.88745  21276694.1564                   21276693.9304
 -30953943.61346 -24098708.49543  23641873.7424                   23641877.3634
 -35670961.55947 -27773925.24946  20577297.0704                   20577294.2664
 11  7 31  1 31  0.0000000  0  9G09G25G10G17G12G05G04G27G02
 -19400972.12546 -15095897.29144  23366117.4534                   23366120.3524
  11334708.40246   8847461.45943  24504968.9384                   24504973.0084
 -27361701.50047 -21300827.68845  20894244.3054                   20894243.8364
 -59122158.43746 -46047282.34544  22926703.1954                   22926703.4064
 -16529757.10547 -12864801.58845  21616901.5164                   21616900.7114
  -7056672.16447  -5482652.53545  22434322.1414                   22434322.2424
 -46512180.70747 -36219773.32845  21277725.7734                   21277725.7034
 -30958280.10246 -24102087.70043  23641048.2034                   23641052.6564
 -35745747.93447 -27832200.33346  20563065.2894                   20563062.6644
 11  7 31  1 31 30.0000000  0  9G09G25G10G17G12G05G04G27G02
 -19391479.19147 -15088500.25544  23367924.7664                   23367927.2304
  11165666.16846   8715740.28143  24472801.4384                   24472805.1914
 -27446501.37947 -21366905.50045  20878107.2814                   20878107.1294
 -59136961.98846 -46058817.62544  22923886.0474                   22923886.6764
 -16663050.24247 -12968666.35046  21591536.8984                   21591536.1054
  -7220378.59447  -5610215.90345  22403168.8914                   22403170.5704
 -46506498.58647 -36215345.69545  21278807.0004                   21278806.7344
 -30962427.20746 -24105319.30643  23640259.4384                   23640263.0234
 -35820152.05147 -27890177.55546  20548906.6954                   20548903.6564
 11  7 31  1 32  0.0000000  0  9G09G25G10G17G12G05G04G27G02
 -19381688.53947 -15080871.30244  23369787.1174                   23369790.3834
  10996811.20346   8584165.04143  24440668.7894                   24440673.3754
 -27530622.14548 -21432454.12246  20862099.6884                   20862099.0824
 -59151555.91846 -46070189.59344  22921108.8134                   22921109.3134
 -16795891.69147 -13072179.16446  21566258.0004                   21566257.6214
  -7383790.82847  -5737550.02845  22372072.8984                   22372074.1764
 -46500554.78548 -36210714.19245  21279938.3364                   21279938.2814
 -30966385.71546 -24108403.98243  23639505.4844                   23639509.6174
 -35894173.02747 -27947856.21846  20534821.1094                   20534818.1914
 11  7 31  1 32 30.0000000  0  9G09G25G10G17G12G05G04G27G02
 -19371609.61747 -15073017.70344  23371704.8984                   23371708.8484
  10828140.13746   8452733.20943  24408572.3364                   24408576.0784
 -27614068.68448 -21497477.37846  20846220.3594                   20846220.0044
 -59165945.50046 -46081402.29144  22918371.3834                   22918371.1884
 -16928284.69547 -13175342.53546  21541064.2814                   21541063.7734
  -7546911.85947  -5864657.21845  22341032.0474                   22341032.7344
 -46494357.26247 -36205884.98845  21281117.6174                   21281117.3594
 -30970164.45746 -24111348.62343  23638786.9614                   23638790.8284
 -35967817.70747 -28005241.68646  20520807.0474                   20520804.2664
 11  7 31  1 33  0.0000000  0  9G09G25G10G17G12G05G04G27G02
 -19361241.79746 -15064938.96544  23373678.8754                   23373681.3364
  10659659.48846   8321449.62043  24376510.1724                   24376514.8754
 -27696836.25847 -21561971.57045  20830470.1804                   20830470.0984
 -59180126.23446 -46092452.25845  22915672.4534                   22915673.1174
 -17060222.89147 -13278151.50946  21515957.8674                   21515956.7424
  -7709734.62147  -5991532.00345  22310047.6254                   22310048.3554
 -46487904.34447 -36200856.73845  21282345.3984                   21282345.5704
 -30973762.14546 -24114152.17343  23638102.3914                   23638106.0634
 -36041082.96947 -28062331.48846  20506864.7504                   20506862.5554
 11  7 31  1 33 30.0000000  0  9G09G25G10G17G12G05G04G27G02
 -19350585.53546 -15056635.48244  23375705.9924                   23375709.1644
  10491374.53546   8190318.62743  24344487.0084                   24344490.6524
 -27778920.91847 -21625933.61246  20814849.9144                   20814849.8444
 -59194094.35246 -46103336.54844  22913014.4304                   22913014.8674
 -17191700.88747 -13380601.86646  21490937.8594                   21490937.4104
  -7872253.37947  -6118169.91045  22279120.9534                   22279121.8554
 -46481195.28947 -36195628.92045  21283622.2114                   21283622.3794
 -30977178.50446 -24116814.40643  23637452.2274                   23637456.3874
 -36113966.82447 -28119124.08746  20492995.6254                   20492993.2384
 11  7 31  1 34  0.0000000  0  9G09G25G10G17G12G05G04G27G02
 -19339647.32446 -15048112.32544  23377787.5704                   23377790.8484
  10323284.90646   8059339.87543  24312499.9384                   24312504.7194
 -27860324.78947 -21689365.18446  20799359.4224                   20799359.2894
 -59207852.57047 -46114057.28044  22910396.5554                   22910396.4104
 -17322719.56647 -13482694.34146  21466006.0474                   21466005.3444
  -8034468.09847  -6244570.89145  22248252.7424                   22248253.4024
 -46474235.07847 -36190205.39545  21284946.1484                   21284946.5124
 -30980419.53546 -24119339.94943  23636835.9844                   23636840.0784
 -36186473.56247 -28175622.82546  20479198.0474                   20479195.1564
 11  7 31  1 34 30.0000000  0  9G09G25G10G17G12G05G04G27G02
 -19328426.42246 -15039368.86344  23379923.2894                   23379926.5394
  10155397.44147   7928518.51644  24280552.7974                   24280556.8164
 -27941042.69547 -21752262.23946  20783999.0084                   20783998.7814
 -59221395.91046 -46124610.54644  22907819.4774                   22907819.6524
 -17453272.05547 -13584423.54346  21441162.7814                   21441162.1644
  -8196371.41847  -6370729.23745  22217443.7504                   22217444.6054
 -46467021.75847 -36184584.63145  21286319.1334                   21286318.9964
 -30983483.55146 -24121727.70743  23636252.7504                   23636256.2664
 -36258599.76647 -28231825.05546  20465472.8914                   20465469.9924
 11  7 31  1 35  0.0000000  0  9G09G25G10G17G12G05G04G27G02
 -19316930.26246 -15030410.95044  23382110.7274                   23382114.7774
   9987710.53947   7797853.49444  24248643.1484                   24248647.2384
 -28021077.56648 -21814627.04045  20768769.1094                   20768768.7624
 -59234728.52047 -46134999.62544  22905282.2114                   22905282.1564
 -17583359.86747 -13685790.65446  21416407.9384                   21416407.2304
  -8357964.46947  -6496645.82645  22186693.4064                   22186694.7114
 -46459561.43447 -36178771.40245  21287738.6414                   21287738.6334
 -30986377.35946 -24123982.63043  23635702.0164                   23635706.0944
 -36330350.60248 -28287734.79046  20451819.3364                   20451816.3954
 11  7 31  1 35 30.0000000  0  9G09G25G10G17G12G05G04G27G02
 -19305158.82846 -15021238.50743  23384351.3674                   23384354.3014
   9820230.33646   7667349.63144  24216772.2114                   24216776.7934
 -28100424.96147 -21876456.15646  20753669.7584                   20753669.3914
 -59247845.77046 -46145220.90744  22902785.6484                   22902786.3244
 -17712976.86747 -13786790.90446  21391742.7504                   21391742.0664
  -8519240.70747  -6622315.52645  22156003.2504                   22156004.4734
 -46451852.69547 -36172764.61445  21289205.7814                   21289205.8364
 -30989100.03946 -24126104.33143  23635184.2034                   23635188.5904
 -36401723.36747 -28343349.91646  20438236.9844                   20438234.6374
 11  7 31  1 36  0.0000000  0  9G09G25G10G17G12G05G04G27G02
 -17717693.77746 -13784252.86343  23686435.6094                   23686438.6334
  11228386.71546   8764614.47944  24484735.8524                   24484739.7854
 -26603659.70747 -20710145.55446  21038494.7504                   21038494.1484
 -57685325.14546 -44927672.39044  23200123.8914                   23200124.1214
 -16266694.92247 -12659817.93346  21666960.8204                   21666960.1024
  -7104770.12147  -5520130.58145  22425168.3524                   22425169.3324
 -44868476.07447 -34938964.66745  21590512.0004                   21590512.4414
 -29416232.88746 -22900493.66243  23934491.2344                   23934495.0824
 -34897294.75047 -27171067.87146  20724520.5634                   20724517.7154
 11  7 31  1 36 30.0000000  0  9G09G25G10G17G12G05G04G27G02
 -17705378.69146 -13774656.82044  23688779.1484                   23688782.7464
  11061330.29346   8634440.75744  24452945.0864                   24452949.8794
 -26681626.82048 -20770899.10746  21023657.8444                   21023657.4454
 -57698007.60947 -44937554.84644  23197710.1804                   23197710.9454
 -16395360.78147 -12760077.02046  21642476.7424                   21642475.8714
  -7265401.24647  -5645297.60045  22394601.1254                   22394601.8984
 -44860274.11347 -34932573.55545  21592072.8914                   21592072.9264
 -29418619.41846 -22902353.46543  23934036.8444                   23934041.3674
 -34967911.15647 -27226093.62046  20711082.9144                   20711079.8014
 11  7 31  1 37  0.0000000  0  9G09G25G10G17G12G05G04G27G02
 -17692799.01646 -13764854.62843  23691172.4064                   23691177.0864
  10894487.48846   8504433.51144  24421196.7734                   24421201.0394
 -26758904.73047 -20831115.64546  21008952.3284                   21008952.2034
 -57710473.58247 -44947268.61744  23195337.9454                   23195338.3794
 -16523549.56647 -12859964.37046  21618082.6564                   21618082.3714
  -7425707.62947  -5770211.59145  22364095.3834                   22364096.2424
 -44851830.82847 -34925994.36445  21593679.5394                   21593679.8014
 -29420844.12946 -22904087.17343  23933613.3054                   23933617.8404
 -35038153.25048 -27280827.71046  20697716.1174                   20697713.3444
 11  7 31  1 37 30.0000000  0  9G09G25G10G17G12G05G04G27G02
 -17679958.81246 -13754849.37543  23693616.4304                   23693620.3404
  10727860.52346   8374594.51444  24389488.0944                   24389492.2344
 -26835493.07447 -20890794.85245  20994377.8674                   20994377.9064
 -57722723.40247 -44956813.91544  23193006.8204                   23193007.8594
 -16651259.41847 -12959478.49846  21593780.6804                   21593779.6174
  -7585686.71947  -5894870.54045  22333652.2814                   22333653.4414
 -44843148.51248 -34919228.94145  21595332.1954                   21595332.0664
 -29422909.93746 -22905697.10943  23933221.3984                   23933225.4494
 -35108022.56248 -27335271.31446  20684420.2344                   20684417.6054
 11  7 31  1 38  0.0000000  0  9G09G25G10G17G12G05G04G27G02
 -17666860.95346 -13744643.40843  23696108.8674                   23696112.5124
  10561452.29346   8244925.87643  24357821.6644                   24357825.6254
 -26911390.84447 -20949935.95446  20979935.2584                   20979934.9064
 -57734756.19547 -44966190.11444  23190716.9614                   23190717.8714
 -16778487.46147 -13058617.20346  21569570.1884                   21569569.0314
  -7745335.04747  -6019271.74745  22303272.6094                   22303273.4774
 -44834228.99647 -34912278.68345  21597029.3444                   21597029.6054
 -29424819.32446 -22907185.07143  23932856.6484                   23932862.2074
 -35177519.32048 -27389424.61846  20671195.5784                   20671192.6134
 11  7 31  1 38 30.0000000  0  9G09G25G10G17G12G05G04G27G02
 -17653508.10246 -13734238.73343  23698650.2034                   23698653.3094
  10395266.29746   8115430.41643  24326197.7664                   24326201.6134
 -26986596.29747 -21008537.58745  20965624.0164                   20965624.0434
 -57746570.30547 -44975395.96644  23188469.1174                   23188469.8674
 -16905230.31647 -13157377.84146  21545451.2664                   21545450.4344
  -7904648.89147  -6143412.31645  22272956.2114                   22272956.3134
 -44825073.34447 -34905144.41845  21598771.5164                   21598771.6804
 -29426574.04346 -22908552.56843  23932523.8284                   23932528.4804
 -35246644.18448 -27443288.15146  20658041.6564                   20658038.9534
 11  7 31  1 39  0.0000000  0  9G09G25G10G17G12G05G04G27G02
 -17639906.62546 -13723640.30743  23701239.0084                   23701242.2854
  10229301.85246   7986107.59143  24294615.0394                   24294618.7624
 -27061111.84847 -21066601.62645  20951444.2894                   20951444.0004
 -57758168.13347 -44984433.25044  23186262.2504                   23186262.7934
 -17031488.76247 -13255761.01646  21521425.3204                   21521424.6294
  -8063628.20347  -6267292.22045  22242703.1094                   22242703.6954
 -44815686.97347 -34897830.38545  21600557.6024                   21600557.6764
 -29428180.22346 -22909804.24043  23932218.0474                   23932223.2774
 -35315400.55548 -27496864.52246  20644957.5004                   20644954.9264
 11  7 31  1 39 30.0000000  0  9G09G25G10G17G12G05G04G27G02
 -17626059.88346 -13712850.76343  23703873.2894                   23703876.9184
  10063561.58646   7856959.36843  24263075.7584                   24263078.8634
 -27134937.24648 -21124127.88745  20937395.7424                   20937395.1174
 -57769549.94147 -44993302.20644  23184096.9224                   23184096.3674
 -17157260.48847 -13353764.92846  21497491.6804                   21497490.8164
  -8222270.35247  -6390909.39045  22212514.3914                   22212515.4774
 -44806071.89547 -34890338.11745  21602387.4614                   21602387.9964
 -29429640.72346 -22910942.49943  23931940.3674                   23931944.7034
 -35383790.03948 -27550155.02346  20631943.6724                   20631940.8324
 11  7 31  1 40  0.0000000  0  9G09G25G10G17G12G05G04G27G02
 -17611972.92646 -13701874.00943  23706554.7894                   23706557.9344
   9898046.57046   7727986.82243  24231578.2274                   24231582.7814
 -27208073.17247 -21181116.90245  20923478.6094                   20923478.0554
 -57780716.29747 -45002003.28744  23181971.1414                   23181971.8594
 -17282544.58647 -13451388.87546  21473650.7034                   21473649.9694
  -8380573.80547  -6514262.63045  22182390.2584                   22182390.9454
 -44796231.60948 -34882670.39245  21604260.0554                   21604260.2974
 -29430959.48046 -22911970.34043  23931690.3054                   23931694.6914
 -35451815.11347 -27603161.55446  20618998.8594                   20618995.9884
 11  7 31  1 40 30.0000000  0  9G09G25G10G17G12G05G04G27G02
 -17597646.09046 -13690710.36243  23709280.3754                   23709284.6684
   9732762.50446   7599194.08143  24200126.6804                   24200130.0004
 -27280515.96947 -21237565.82046  20909693.1954                   20909692.8714
 -57791663.53147 -45010533.60044  23179888.7734                   23179888.6954
 -17407335.97747 -13548628.88746  21449903.7034                   21449903.1454
  -8538532.71147  -6637347.42445  22152331.5944                   22152332.1484
 -44786165.01647 -34874826.30345  21606176.0004                   21606176.0594
 -29432136.60946 -22912887.65343  23931466.1334                   23931470.5004
 -35519473.78147 -27655882.58546  20606123.8054                   20606121.0824
 11  7 31  1 41  0.0000000  0  9G09G25G10G17G12G05G04G27G02
 -17583086.11746 -13679365.00943  23712050.8914                   23712055.6024
   9567708.60546   7470580.66143  24168717.4774                   24168722.0864
 -27352268.37148 -21293476.76746  20896039.1094                   20896038.4494
 -57802394.64546 -45018895.54644  23177846.3754                   23177846.8404
 -17531635.67247 -13645485.74946  21426250.5234                   21426249.3204
  -8696147.27747  -6760163.88645  22122338.4224                   22122339.6604
 -44775877.87147 -34866810.35145  21608133.1254                   21608133.8404
 -29433177.79346 -22913699.18943  23931268.7034                   23931272.0904
 -35586770.10547 -27708321.25446  20593317.8364                   20593314.7774
 11  7 31  1 41 30.0000000  0  9G09G25G10G17G12G05G04G27G02
 -17568294.52046 -13667839.26843  23714866.5394                   23714870.3244
   9402889.67246   7342150.49543  24137354.3364                   24137357.4924
 -27423327.86747 -21348847.78645  20882516.9144                   20882516.1604
 -57812906.86346 -45027086.90144  23175846.2424                   23175846.4304
 -17655439.22348 -13741956.03146  21402691.1254                   21402690.4924
  -8853412.62147  -6882708.22745  22092412.0084                   22092412.5234
 -44765369.77348 -34858622.25545  21610133.0004                   21610133.2894
 -29434083.96546 -22914405.47343  23931095.4924                   23931100.1684
 -35653703.33248 -27760477.00046  20580580.9924                   20580578.0824
 11  7 31  1 42  0.0000000  0  9G09G25G10G17G12G05G04G27G02
 -17553275.80146 -13656136.51543  23717725.1954                   23717728.4304
   9238307.09847   7213904.38243  24106034.8834                   24106037.9924
 -27493694.90647 -21403679.23546  20869126.3984                   20869126.1054
 -57823200.70346 -45035108.12244  23173887.3284                   23173887.5864
 -17778745.16047 -13838038.54246  21379227.0474                   21379225.7304
  -9010326.98847  -7004979.06745  22062551.9064                   22062552.8984
 -44754643.98847 -34850264.51845  21612174.0784                   21612173.9104
 -29434858.89546 -22915009.51143  23930947.7974                   23930953.5944
 -35720275.82447 -27812351.65346  20567912.6414                   20567909.7664
 11  7 31  1 42 30.0000000  0  9G09G25G10G17G12G05G04G27G02
 -17538032.84447 -13644258.96443  23720625.8444                   23720628.8984
   9073963.83647   7085844.73843  24074761.4384                   24074764.8364
 -27563369.02747 -21457970.74346  20855867.8054                   20855867.3634
 -57833275.26646 -45042958.45744  23171969.7814                   23171970.1804
 -17901550.98047 -13933731.36046  21355857.9774                   21355856.9454
  -9166887.10947  -7126973.88845  22032759.6174                   22032760.3244
 -44743702.06647 -34841738.36745  21614255.8054                   21614256.3284
 -29435504.86046 -22915513.10743  23930825.2734                   23930830.9104
 -35786487.96147 -27863945.51146  20555312.5704                   20555309.9224
 11  7 31  1 43  0.0000000  0  9G09G25G10G17G12G05G04G27G02
 -17522573.23846 -13632212.67943  23723567.5004                   23723571.1054
   8909858.44547   6957970.48743  24043533.3134                   24043536.1134
 -27632353.91447 -21511725.18345  20842740.7504                   20842740.0664
 -57843134.86346 -45050641.34244  23170093.4694                   23170094.1604
 -18023858.84047 -14029036.14746  21332583.4144                   21332582.7774
  -9323094.11347  -7248693.53945  22003034.4224                   22003035.1294
 -44732550.52347 -34833048.86945  21616378.3594                   21616378.5784
 -29436028.93746 -22915921.61243  23930725.7114                   23930730.6374
 -35852344.89847 -27915262.58146  20542780.7424                   20542777.8444
 11  7 31  1 43 30.0000000  0  9G09G25G10G17G12G05G04G27G02
 -17506896.84446 -13619997.46843  23726550.7034                   23726554.7234
   8745996.95347   6830286.27744  24012351.3204                   24012354.5744
 -27700645.44147 -21564939.35546  20829744.9694                   20829744.5784
 -57852775.17247 -45058153.29244  23168259.4694                   23168259.6414
 -18145662.71147 -14123948.24846  21309404.8524                   21309403.9264
  -9478942.02047  -7370133.39345  21973377.6174                   21973377.9654
 -44721187.54747 -34824194.63445  21618540.7584                   21618540.8364
 -29436430.23446 -22916234.54143  23930650.4224                   23930654.7584
 -35917844.56248 -27966301.27246  20530316.4844                   20530313.3444
 11  7 31  1 44  0.0000000  0  9G09G25G10G17G12G05G04G27G02
 -17491002.64546 -13607612.50843  23729574.7974                   23729578.6914
   8582386.45347   6702797.66244  23981217.3984                   23981220.9734
 -27768238.65647 -21617609.39646  20816882.4534                   20816881.9804
 -57862191.19547 -45065490.49744  23166467.7734                   23166467.9344
 -18266955.85247 -14218462.35746  21286323.5864                   21286322.9304
  -9634423.08247  -7491287.37145  21943790.1954                   21943790.3834
 -44709610.58247 -34815173.62945  21620743.6724                   21620743.4694
 -29436707.14146 -22916450.51843  23930597.4924                   23930602.3054
 -35982983.23447 -28017058.65746  20517920.8674                   20517918.0744
 11  7 31  1 44 30.0000000  0  9G09G25G10G17G12G05G04G27G02
 -17474896.75846 -13595062.56743  23732640.3914                   23732643.6254
   8419026.88347   6575504.57844  23950130.8284                   23950134.9304
 -27835136.08247 -21669737.25646  20804151.9924                   20804151.6214
 -57871385.12947 -45072654.65744  23164717.6334                   23164718.3204
 -18387738.87548 -14312578.95346  21263339.2974                   21263338.6094
  -9789537.35547  -7612155.55845  21914273.0234                   21914273.3674
 -44697824.53947 -34805989.72745  21622986.0474                   21622986.7934
 -29436865.10246 -22916573.78443  23930567.1564                   23930571.9384
 -36047764.85547 -28067537.82646  20505593.3754                   20505590.3484
 11  7 31  1 45  0.0000000  0  9G09G25G10G17G12G05G04G27G02
 -17458583.46147 -13582351.05943  23735744.3754                   23735747.5594
   8255919.83647   6448408.29244  23919092.1334                   23919096.5664
 -27901338.73047 -21721323.73046  20791554.5634                   20791553.6254
 -57880357.49247 -45079646.15744  23163011.2974                   23163011.4654
 -18508010.41447 -14406297.02646  21240452.4774                   21240451.0314
  -9944282.82047  -7732736.35445  21884825.2974                   21884826.2384
 -44685832.27747 -34796645.13845  21625268.5084                   21625268.7854
 -29436907.71946 -22916607.18043  23930558.6724                   23930564.2424
 -36112191.37948 -28117740.28746  20493333.3204                   20493330.2504
 11  7 31  1 45 30.0000000  0  9G09G25G10G17G12G05G04G27G02
 -17442071.03146 -13569484.29543  23738886.8364                   23738890.4924
   8093063.19947   6321507.15744  23888101.7424                   23888105.4924
 -27966850.57047 -21772371.91746  20779087.8284                   20779087.3204
 -57889112.34447 -45086468.16044  23161344.5164                   23161345.7544
 -18627773.05948 -14499618.53746  21217662.1954                   21217661.5124
 -10098661.01247  -7853030.97245  21855448.3054                   21855448.6334
 -44673640.56647 -34787145.13145  21627588.6254                   21627588.6094
 -29436842.65646 -22916556.67343  23930571.1954                   23930576.9344
 -36176268.75848 -28167670.69846  20481139.8364                   20481137.0204
 11  7 31  1 46  0.0000000  0  9G09G25G10G17G12G05G04G27G02
 -17425361.96946 -13556464.43443  23742066.8054                   23742070.3484
   7930460.47346   6194803.83844  23857160.0234                   23857163.2624
 -28031670.78147 -21822881.17345  20766753.1804                   20766752.4774
 -57897648.78547 -45093119.99244  23159720.6644                   23159721.1644
 -18747023.69947 -14592541.08946  21194969.5474                   21194968.9024
 -10252668.93447  -7973037.05945  21826141.7814                   21826142.2194
 -44661250.48847 -34777490.54045  21629946.2664                   21629946.3954
 -29436671.65246 -22916423.62243  23930604.3284                   23930609.5944
 -36239997.44947 -28217329.40846  20469012.5084                   20469009.5864
 11  7 31  1 46 30.0000000  0  9G09G25G10G17G12G05G04G27G02
 -17408461.97346 -13543295.74743  23745282.7664                   23745286.6484
   7768111.87946   6068298.56244  23826265.2034                   23826269.2034
 -28095801.47347 -21872853.12946  20754549.4844                   20754548.6844
 -57905968.19146 -45099602.74544  23158137.1644                   23158137.3834
 -18865762.48848 -14685064.80246  21172374.1564                   21172373.0044
 -10406305.81647  -8092754.02945  21796905.6094                   21796906.1524
 -44648666.37547 -34767684.75445  21632341.6254                   21632341.4344
 -29436400.08246 -22916212.14443  23930656.1174                   23930661.3714
 -36303380.71547 -28266718.95846  20456951.0314                   20456948.0704
 11  7 31  1 47  0.0000000  0  9G09G25G10G17G12G05G04G27G02
 -17391370.16046 -13529977.56743  23748535.7424                   23748539.3954
   7606024.45346   5941996.79844  23795420.9144                   23795424.9144
 -28159237.81647 -21922284.06046  20742478.0084                   20742477.8204
 -57914066.28946 -45105912.98444  23156596.1564                   23156597.0084
 -18983982.97348 -14777184.62946  21149878.0164                   21149876.8524
 -10559564.33247  -8212176.18445  21767741.3674                   21767741.5554
 -44635885.81247 -34757725.92045  21634773.2274                   21634773.2544
 -29436026.19946 -22915921.07842  23930727.1254                   23930732.7114
 -36366415.35247 -28315836.83246  20444956.2274                   20444953.2034
 11  7 31  1 47 30.0000000  0  9G09G25G10G17G12G05G04G27G02
 -17374094.21146 -13516515.96143  23751822.8054                   23751826.8794
   7444196.25446   5815897.00143  23764626.3134                   23764629.9844
 -28221984.45747 -21971177.54445  20730537.2974                   20730536.9654
 -57921947.03147 -45112053.87944  23155097.5474                   23155097.3324
 -19101687.67247 -14868902.55646  21127479.2114                   21127478.0744
 -10712446.36347  -8331304.97045  21738648.9694                   21738649.2304
 -44622915.35947 -34747619.08845  21637241.3204                   21637241.1604
 -29435557.22746 -22915555.79342  23930817.4384                   23930821.8364
 -36429107.04748 -28364687.49446  20433026.0474                   20433023.2234
 11  7 31  1 48  0.0000000  0  9G09G25G10G17G12G05G04G27G02
 -15781213.37946 -12275310.30343  24054937.7734                   24054942.1724
   8858060.22746   6917609.26944  24033675.5864                   24033679.1764
 -26708614.35947 -20791928.11245  21018522.2814                   21018521.7854
 -56354184.44546 -43890420.72144  23453432.1024                   23453432.7344
 -17643445.39548 -13732609.84846  21404973.5704                   21404972.5594
  -9289519.18447  -7222530.45645  22009422.8204                   22009423.2734
 -43034332.48047 -33509762.32045  21939539.3284                   21939538.8524
 -27859570.99246 -21687514.69542  24230717.6564                   24230722.2894
 -34916029.79347 -27185666.25146  20720955.3204                   20720952.5554
 11  7 31  1 48 30.0000000  0  9G09G25G10G17G12G05G04G27G02
 -15763572.13746 -12261564.01243  24058295.3754                   24058299.0474
   8696766.01646   6791925.56543  24002982.5314                   24002985.6134
 -26769973.73047 -20839740.61746  21006846.0634                   21006845.0594
 -56361621.34847 -43896215.75944  23452016.9534                   23452017.3324
 -17760103.87948 -13823512.53246  21382774.0474                   21382772.9184
  -9441632.04347  -7341059.90245  21980476.4924                   21980476.9734
 -43020980.30547 -33499358.06245  21942079.2584                   21942079.3444
 -27858912.32045 -21687001.65242  24230841.8284                   24230848.2664
 -34978030.91448 -27233978.79446  20709156.8754                   20709154.0824
 11  7 31  1 49  0.0000000  0  9G09G25G10G17G12G05G04G27G02
 -15745761.25846 -12247685.56243  24061684.8524                   24061688.3794
   8535735.00046   6666446.94343  23972339.2734                   23972342.1804
 -26830647.19547 -20887018.64246  20995299.8674                   20995299.4104
 -56368843.43447 -43901843.38544  23450642.9144                   23450643.1644
 -17876244.01648 -13914011.34046  21360672.9384                   21360672.2344
  -9593363.96547  -7459292.48845  21951603.1804                   21951603.2274
 -43007447.96147 -33488813.40845  21944654.7584                   21944654.7504
 -27858170.89545 -21686423.98842  24230983.7974                   24230988.9184
 -35039696.28548 -27282029.73546  20697422.3834                   20697419.0944
 11  7 31  1 49 30.0000000  0  9G09G25G10G17G12G05G04G27G02
 -15727776.87946 -12233671.90243  24065106.3444                   24065111.6484
   8374976.88746   6541180.95543  23941747.3284                   23941750.5944
 -26890627.38347 -20933756.46746  20983886.7814                   20983885.8594
 -56375843.12947 -43907297.74344  23449310.7194                   23449311.2664
 -17991857.01248 -14004099.36046  21338672.5474                   21338671.8244
  -9744704.80547  -7577220.34945  21922803.8054                   21922804.0904
 -42993730.25447 -33478124.30345  21947264.6254                   21947264.4804
 -27857342.21946 -21685778.46942  24231142.2114                   24231147.3404
 -35101019.92247 -27329814.36946  20685752.8054                   20685749.5594
 11  7 31  1 50  0.0000000  0  9G09G25G10G17G12G05G04G27G02
 -15709625.00446 -12219527.79943  24068561.7664                   24068566.0044
   8214491.48847   6416127.47143  23911207.9924                   23911211.2464
 -26949917.30147 -20979956.39845  20972603.8134                   20972603.1724
 -56382622.66447 -43912580.54744  23448020.2974                   23448021.2624
 -18106942.93747 -14093776.69346  21316772.6644                   21316771.8054
  -9895654.78147  -7694843.64445  21894078.5784                   21894079.0864
 -42979831.80547 -33467294.37545  21949910.1254                   21949909.3674
 -27856432.00845 -21685069.35743  24231314.4694                   24231320.2154
 -35162005.89148 -27377335.90346  20674147.7504                   20674144.4344
 11  7 31  1 50 30.0000000  0  9G09G25G10G17G12G05G04G27G02
 -15691311.96546 -12205258.06143  24072046.9774                   24072050.7854
   8054278.86346   6291286.54143  23880720.7344                   23880723.7974
 -27008519.44547 -21025620.41045  20961452.4774                   20961451.6564
 -56389184.60247 -43917693.77844  23446771.5704                   23446772.6564
 -18221502.48048 -14183043.87146  21294972.5634                   21294971.9574
 -10046213.73047  -7812162.24346  21865428.4614                   21865428.7734
 -42965757.19947 -33456327.16945  21952587.8134                   21952588.2344
 -27855445.60246 -21684300.91343  24231503.0234                   24231507.7384
 -35222657.99248 -27424597.27346  20662605.8134                   20662602.7034
 11  7 31  1 51  0.0000000  0  9G09G25G10G17G12G05G04G27G02
 -15672841.40646 -12190865.62343  24075561.1644                   24075565.9064
   7894340.98047   6166659.66443  23850285.7034                   23850288.2934
 -27066434.64148 -21070749.13646  20950431.2424                   20950430.4734
 -56395529.18047 -43922637.62044  23445564.6804                   23445565.7974
 -18335534.39548 -14271899.87946  21273273.3524                   21273272.2504
 -10196379.44147  -7929174.40046  21836852.7894                   21836853.2734
 -42951509.16847 -33445224.84145  21955299.2664                   21955299.0434
 -27854386.14545 -21683475.45043  24231704.5554                   24231710.7624
 -35282978.10248 -27471599.94946  20651127.4844                   20651123.8794
 11  7 31  1 51 30.0000000  0  9G09G25G10G17G12G05G04G27G02
 -15654216.71946 -12176353.05643  24079105.5944                   24079110.3524
   7734680.69547   6042249.09444  23819903.1174                   23819906.3284
 -27123662.58247 -21115342.32445  20939541.3284                   20939540.6804
 -56401655.42646 -43927411.37844  23444398.9534                   23444399.4224
 -18449036.31247 -14360342.92746  21251674.5944                   21251673.3164
 -10346149.17247  -8045878.03045  21808352.6334                   21808353.1994
 -42937089.17647 -33433988.51545  21958043.5474                   21958043.9884
 -27853256.27346 -21682595.15243  24231919.7734                   24231925.1844
 -35342966.75048 -27518344.34846  20639711.4534                   20639708.9774
 11  7 31  1 52  0.0000000  0  9G09G25G10G17G12G05G04G27G02
 -15635441.94546 -12161723.54743  24082678.2974                   24082683.4414
   7575299.84847   5918056.30244  23789573.8444                   23789577.1564
 -27180204.43048 -21159400.90146  20928781.8284                   20928781.1374
 -56407564.16846 -43932015.62244  23443274.1644                   23443275.1414
 -18562007.09448 -14448372.10646  21230176.7664                   21230175.8594
 -10495520.71147  -8162271.36246  21779927.9614                   21779928.0784
 -42922499.95347 -33422620.31945  21960820.1024                   21960820.0864
 -27852059.52045 -21681662.80143  24232147.7114                   24232153.1024
 -35402626.27048 -27564832.27846  20628359.2194                   20628356.2704
 11  7 31  1 52 30.0000000  0  9G09G25G10G17G12G05G04G27G02
 -15616523.43046 -12146982.03443  24086279.3204                   24086283.0354
   7416198.14547   5794081.02344  23759298.1254                   23759301.2544
 -27236063.37547 -21202927.36546  20918152.5084                   20918151.6134
 -56413257.73046 -43936452.20644  23442191.6094                   23442191.6024
 -18674447.62948 -14535988.08946  21208780.2504                   21208779.2584
 -10644494.33647  -8278354.65746  21751579.6724                   21751579.7934
 -42907746.32847 -33411124.02045  21963627.2194                   21963627.6454
 -27850801.45746 -21680682.62943  24232386.6334                   24232392.9774
 -35461960.44948 -27611066.71946  20617068.1954                   20617065.3714
 11  7 31  1 53  0.0000000  0  9G09G25G10G17G12G05G04G27G02
 -15597461.21046 -12132128.53243  24089905.6954                   24089910.9774
   7257381.55547   5670327.88044  23729076.0084                   23729079.1054
 -27291236.17248 -21245919.16946  20907653.1094                   20907652.5784
 -56418732.40246 -43940718.21644  23441149.3444                   23441149.7114
 -18786352.44148 -14623186.63646  21187485.2814                   21187484.2194
 -10793064.05147  -8394123.20345  21723307.1094                   21723306.8794
 -42892826.75847 -33399498.42444  21966466.5554                   21966466.2734
 -27849481.57046 -21679654.26943  24232638.5944                   24232643.7704
 -35520967.30948 -27657046.09146  20605839.5474                   20605836.2114
 11  7 31  1 53 30.0000000  0  9G09G25G10G17G12G05G04G27G02
 -15578259.44946 -12117166.33043  24093560.3364                   24093565.2154
   7098852.08647   5546798.49444  23698908.7894                   23698912.7544
 -27345723.64548 -21288376.92746  20897284.7974                   20897284.0394
 -56423988.41446 -43944813.83044  23440149.0004                   23440149.4454
 -18897720.47348 -14709966.91246  21166292.3914                   21166291.8134
 -10941227.83647  -8509575.45145  21695112.8364                   21695112.3634
 -42877743.85247 -33387745.54945  21969336.7344                   21969336.8284
 -27848103.27746 -21678580.40843  24232900.2894                   24232906.4104
 -35579648.56648 -27702771.74646  20594672.6804                   20594670.0124
 11  7 31  1 54  0.0000000  0  9G09G25G10G17G12G05G04G27G02
 -15558921.90246 -12102098.32443  24097240.7974                   24097244.8794
   6940611.79747   5423494.44944  23668796.6724                   23668800.1094
 -27399526.50848 -21330301.23746  20887046.4454                   20887045.8134
 -56429025.82046 -43948739.11644  23439190.5164                   23439190.9064
 -19008549.72348 -14796327.36046  21145202.3754                   21145201.5944
 -11088983.78947  -8624709.89746  21666995.5234                   21666995.8404
 -42862499.84847 -33375867.13445  21972237.5314                   21972237.6294
 -27846669.80546 -21677463.59043  24233173.8284                   24233179.1684
 -35638006.09848 -27748245.15946  20583567.7734                   20583564.8484
 11  7 31  1 54 30.0000000  0  9G09G25G10G17G12G05G04G27G02
 -15539454.06646 -12086928.71543  24100945.1724                   24100949.8324
   6782661.25047   5300416.21344  23638739.3364                   23638743.2934
 -27452647.39848 -21371694.12945  20876937.7894                   20876937.0944
 -56433846.36746 -43952495.42844  23438273.2034                   23438274.0824
 -19118841.08248 -14882268.68646  21124215.1484                   21124213.8404
 -11236330.94147  -8739525.80246  21638956.1174                   21638956.1024
 -42847098.88747 -33363866.40745  21975168.4774                   21975168.5594
 -27845186.04346 -21676307.53043  24233455.3134                   24233461.8204
 -35696043.11748 -27793468.80446  20572523.8204                   20572520.7584
 11  7 31  1 55  0.0000000  0  9G09G25G10G17G12G05G04G27G02
 -15519858.43446 -12071659.61243  24104674.1484                   24104678.8094
   6625003.66846   5177566.18744  23608738.2344                   23608741.3364
 -27505085.99248 -21412555.36745  20866959.0164                   20866958.5164
 -56438448.99246 -43956081.95344  23437397.3914                   23437397.3594
 -19228591.90648 -14967788.80846  21103329.6564                   21103329.1914
 -11383265.98447  -8854020.59445  21610995.3914                   21610995.2424
 -42831542.07447 -33351744.26445  21978128.8284                   21978128.8714
 -27843654.08646 -21675113.98943  24233747.5704                   24233753.9184
 -35753760.23847 -27838443.19746  20561540.6884                   20561537.3914
 11  7 31  1 55 30.0000000  0  9G09G25G10G17G12G05G04G27G02
 -15500144.69946 -12056298.36143  24108426.2424                   24108430.1884
   6467635.50447   5054941.72344  23578792.0634                   23578795.5474
 -27556848.65648 -21452889.90745  20857108.5164                   20857108.0164
 -56442840.30146 -43959503.79144  23436561.2504                   23436561.9064
 -19337806.04748 -15052890.72046  21082547.1414                   21082546.3134
 -11529792.58247  -8968197.09146  21583112.1024                   21583112.3244
 -42815837.55547 -33339506.97945  21981117.1724                   21981118.1294
 -27842082.67646 -21673889.69443  24234047.0314                   24234053.5164
 -35811164.84048 -27883174.06546  20550616.7584                   20550613.5594
 11  7 31  1 56  0.0000000  0  9G09G25G10G17G12G05G04G27G02
 -15480309.23047 -12040842.32043  24112200.7344                   24112204.7704
   6310566.45347   4932550.33744  23548902.5704                   23548906.0784
 -27607928.96548 -21492692.74345  20847388.2734                   20847387.7274
 -56447012.32046 -43962754.78944  23435768.2504                   23435768.1564
 -19446474.74248 -15137567.61946  21061867.8444                   21061867.2154
 -11675900.77747  -9082047.57845  21555308.6804                   21555308.6174
 -42799980.12947 -33327150.54045  21984134.5864                   21984134.9184
 -27840467.62946 -21672631.39143  24234354.7894                   24234360.8134
 -35868250.82047 -27927656.65246  20539753.3134                   20539750.5864
 11  7 31  1 56 30.0000000  0  9G09G25G10G17G12G05G04G27G02
 -15460360.05146 -12025297.67843  24115997.2194                   24116002.0124
   6153794.44146   4810390.39844  23519069.8444                   23519072.9654
 -27658331.70348 -21531967.60446  20837797.1414                   20837796.5944
 -56450969.42646 -43965838.34044  23435014.9304                   23435015.6334
 -19554600.93748 -15221821.78246  21041292.3134                   21041291.4104
 -11821592.82447  -9195573.78546  21527584.3524                   21527584.6804
 -42783976.00047 -33314679.82345  21987179.9144                   21987180.6914
 -27838816.47346 -21671344.91143  24234668.7734                   24234674.9844
 -35925024.27048 -27971895.70846  20528949.7734                   20528946.9264
 11  7 31  1 57  0.0000000  0  9G09G25G10G17G12G05G04G27G02
 -15440294.32047 -12009662.23743  24119816.2664                   24119820.0474
   5997328.48447   4688468.92044  23489296.0634                   23489298.9734
 -27708051.25847 -21570710.09546  20828335.5314                   20828335.2894
 -56454704.73046 -43968749.02444  23434304.3134                   23434305.1294
 -19662176.48047 -15305646.87246  21020821.6174                   21020820.8284
 -11966859.71147  -9308768.69946  21499941.0234                   21499941.2894
 -42767820.69947 -33302091.29245  21990254.4774                   21990254.8404
 -27837125.37546 -21670027.36742  24234990.5394                   24234996.4614
 -35981480.05148 -28015887.22446  20518206.8834                   20518203.9104
 11  7 31  1 57 30.0000000  0  9G09G25G10G17G12G05G04G27G02
 -15420117.41446 -11993940.07743  24123655.3674                   24123660.0274
   5841168.77747   4566786.12044  23459579.3284                   23459582.5864
 -27757090.25847 -21608922.29746  20819004.3134                   20819003.8794
 -56458220.68746 -43971488.80343  23433635.5864                   23433636.0274
 -19769201.57448 -15389043.04346  21000455.4924                   21000454.4844
 -12111701.13747  -9421632.09646  21472378.6564                   21472378.6094
 -42751518.73447 -33289388.49345  21993356.8914                   21993356.7704
 -27835399.53546 -21668682.75143  24235318.8284                   24235324.8674
 -36037621.70748 -28059633.98346  20507523.7974                   20507520.4454
 11  7 31  1 58  0.0000000  0  9G09G25G10G17G12G05G04G27G02
 -15399831.45746 -11978132.99843  24127514.8444                   24127520.4304
   5685319.21147   4445344.95544  23429921.5554                   23429925.1214
 -27805447.85547 -21646603.53446  20809801.8284                   20809801.0904
 -56461515.43047 -43974056.22644  23433008.1564                   23433009.3284
 -19875673.45748 -15472008.13646  20980194.4304                   20980193.3524
 -12256113.25447  -9534160.96346  21444897.6804                   21444897.6524
 -42735070.32447 -33276571.59445  21996486.6954                   21996486.8754
 -27833640.31246 -21667312.20343  24235655.1724                   24235660.2114
 -36093449.16848 -28103135.90446  20496899.7734                   20496897.1334
 11  7 31  1 58 30.0000000  0  9G09G25G10G17G12G05G04G27G02
 -15379443.44946 -11962246.35843  24131394.7664                   24131400.2384
   5529778.96147   4324144.85144  23400323.7424                   23400326.4924
 -27853128.34847 -21683757.15646  20800728.2664                   20800727.7974
 -56464592.37147 -43976453.92044  23432422.9534                   23432423.6524
 -19981593.56247 -15554543.26546  20960038.4384                   20960037.3634
 -12400097.31247  -9646356.27746  21417498.4694                   21417498.8674
 -42718480.95747 -33263644.83245  21999643.7424                   21999643.8204
 -27831854.08246 -21665920.52243  24235994.1094                   24236000.7034
 -36148967.28548 -28146396.77346  20486334.8204                   20486332.0514
 11  7 31  1 59  0.0000000  0  9G09G25G10G17G12G05G04G27G02
 -15358960.38346 -11946285.76643  24135292.1804                   24135297.4224
   5374546.57447   4203184.60844  23370783.8984                   23370786.8754
 -27900136.08247 -21720386.54846  20791783.2734                   20791782.9654
 -56467454.87946 -43978684.56344  23431878.2504                   23431879.2154
 -20086964.65247 -15636650.58946  20939986.8754                   20939985.8914
 -12543654.41047  -9758218.89446  21390180.3364                   21390180.3674
 -42701756.28547 -33250612.63945  22002826.4384                   22002826.5234
 -27830047.30145 -21664512.80542  24236338.3284                   24236344.7504
 -36204181.00047 -28189420.45346  20475828.0474                   20475825.4264
 11  7 31  1 59 30.0000000  0  9G09G25G10G17G12G05G04G27G02
 -15338385.80946 -11930253.78142  24139208.8364                   24139213.4264
   5219624.63747   4082466.25944  23341303.2194                   23341305.7734
 -27946472.39847 -21756492.76945  20782965.7584                   20782965.1884
 -56470102.93446 -43980748.02744  23431374.4224                   23431375.5204
 -20191784.62147 -15718328.47446  20920040.2974                   20920039.4414
 -12686782.07847  -9869746.88446  21362944.0004                   21362944.1334
 -42684898.34847 -33237476.59245  22006034.1724                   22006034.4804
 -27828222.87945 -21663091.34842  24236684.5084                   24236691.3284
 -36259091.68448 -28232208.00346  20465378.7664                   20465375.8874
 11  7 31  2  0  0.0000000  0  9G09G25G10G17G12G05G04G27G02
 -15317723.82846 -11914153.62942  24143140.6094                   24143144.9064
   5065014.87947   3961991.20944  23311881.8754                   23311884.3954
 -27992138.25447 -21792076.55446  20774275.8524                   20774275.2074
 -56472537.15646 -43982644.91644  23430911.8054                   23430912.0864
 -20296052.39147 -15799576.06546  20900198.7974                   20900197.7774
 -12829478.42647  -9980938.79446  21335789.9614                   21335789.7704
 -42667909.55547 -33224238.58544  22009267.3444                   22009267.0434
 -27826384.32445 -21661658.96942  24237034.8984                   24237041.5124
 -36313701.63348 -28274761.20446  20454986.7814                   20454984.1174
 11  7 31  2  0 30.0000000  0  9G09G25G10G17G12G05G04G27G02
 -13721555.64846 -10670386.37542  24446880.3524                   24446885.7504
   6486147.93847   5069367.67544  23582314.4454                   23582317.2504
 -26461710.10547 -20599535.12246  21065506.6484                   21065505.7544
 -54899334.31246 -42756772.66744  23730281.6954                   23730282.8284
 -18824340.30947 -14652787.41046  21180256.2584                   21180255.2894
 -11396313.62147  -8864186.94546  21608512.1884                   21608511.6094
 -41075369.41447 -31983298.23444  22312317.4454                   22312317.7274
 -26249111.68445 -20432615.59842  24537180.7034                   24537186.6094
 -34792587.28948 -27089477.30946  20744445.3834                   20744442.6604
 11  7 31  2  1  0.0000000  0  9G09G25G10G17G12G05G04G27G02
 -13700724.98846 -10654154.87142  24450845.1644                   24450850.5044
   6332174.41846   4949388.35944  23553014.1254                   23553016.8444
 -26506033.48047 -20634072.80345  21057072.1954                   21057071.4774
 -54901335.80546 -42758332.32144  23729900.8754                   23729901.8754
 -18927495.37947 -14733167.97146  21160626.5704                   21160625.6254
 -11538136.30948  -8974698.08446  21581523.9694                   21581523.9924
 -41058120.39847 -31969857.45745  22315599.8984                   22315599.8484
 -26247249.22746 -20431164.51642  24537534.7274                   24537541.0474
 -34846595.06648 -27131561.29746  20734168.3984                   20734165.3364
 11  7 31  2  1 30.0000000  0  9G09G25G10G17G12G05G04G27G02
 -13679816.92646 -10637862.96043  24454823.6484                   24454829.2274
   6178521.31647   4829658.75344  23523775.0164                   23523777.3984
 -26549688.03547 -20668089.33145  21048765.1484                   21048764.3444
 -54903122.10246 -42759724.35544  23729561.6024                   23729562.4104
 -19030092.70747 -14813113.91346  21141103.2734                   21141102.1884
 -11679520.07047  -9084867.17846  21554619.3284                   21554619.3054
 -41040745.37947 -31956318.51344  22318905.8674                   22318906.7304
 -26245380.40646 -20429708.46542  24537890.6724                   24537897.3204
 -34900305.43448 -27173413.54146  20723947.6954                   20723944.9264
 11  7 31  2  2  0.0000000  0  9G09G25G10G17G12G05G04G27G02
 -13658826.12546 -10621506.64143  24458818.6484                   24458823.9104
   6025199.27346   4710187.12944  23494597.9454                   23494601.2854
 -26592666.51647 -20701579.05045  21040586.5944                   21040585.9884
 -54904685.23846 -42760942.45444  23729263.6644                   23729264.8364
 -19132123.10547 -14892618.10546  21121687.2814                   21121686.2734
 -11820454.05948  -9194685.83046  21527800.8134                   21527800.5904
 -41023238.26647 -31942676.61744  22322238.1884                   22322238.0004
 -26243499.95346 -20428243.40242  24538248.9384                   24538254.9224
 -34953711.41448 -27215028.58946  20713784.9454                   20713781.9964
 11  7 31  2  2 30.0000000  0  9G09G25G10G17G12G05G04G27G02
 -13637762.85546 -10605093.85443  24462827.2894                   24462832.5004
   5872204.10947   4590970.19744  23465484.7974                   23465487.5864
 -26634976.57847 -20734547.91446  21032534.9924                   21032534.0634
 -54906031.42646 -42761991.46744  23729007.4774                   23729008.7774
 -19233591.47347 -14971684.34246  21102378.3204                   21102377.4534
 -11960942.64548  -9304157.39546  21501066.5864                   21501066.4224
 -41005607.34847 -31928938.25045  22325592.7734                   22325593.3524
 -26241617.13346 -20426776.49242  24538607.8984                   24538613.5664
 -35006820.88348 -27256412.59446  20703678.5084                   20703675.3674
 11  7 31  2  3  0.0000000  0  9G09G25G10G17G12G05G04G27G02
 -13616630.91046 -10588627.50343  24466847.7504                   24466853.4654
   5719537.75447   4472009.51744  23436433.1094                   23436436.0824
 -26676619.86747 -20766997.22946  21024610.5394                   21024610.3054
 -54907161.27046 -42762871.95344  23728792.5634                   23728793.6764
 -19334496.92247 -15050311.94746  21083176.7734                   21083175.8484
 -12100984.20748  -9413280.64946  21474417.1644                   21474417.4414
 -40987855.09447 -31915105.35645  22328971.0944                   22328971.3204
 -26239735.38346 -20425310.38742  24538965.4064                   24538971.8674
 -35059635.92248 -27297567.16046  20693628.0784                   20693625.1844
 11  7 31  2  3 30.0000000  0  9G09G25G10G17G12G05G04G27G02
 -13595433.53146 -10572110.19543  24470882.2344                   24470887.4734
   5567203.26247   4353307.37244  23407444.3204                   23407447.4924
 -26717596.78147 -20798927.28946  21016813.1334                   21016812.4574
 -54908073.89546 -42763583.12544  23728619.4774                   23728620.0234
 -19434837.53947 -15128499.42746  21064082.5634                   21064081.2274
 -12240575.64848  -9522053.13446  21447853.6334                   21447853.8634
 -40969982.84447 -31901178.95945  22332372.4064                   22332372.4344
 -26237856.94946 -20423846.84843  24539322.7344                   24539330.4384
 -35112157.30948 -27338492.91446  20683633.5704                   20683630.4384
 11  7 31  2  4  0.0000000  0  9G09G25G10G17G12G05G04G27G02
 -13574175.12546 -10555545.40043  24474928.1644                   24474933.3094
   5415201.77347   4234864.75244  23378519.7814                   23378522.7814
 -26757909.44147 -20830339.73445  21009142.0164                   21009141.1174
 -54908770.74646 -42764126.17844  23728486.6804                   23728487.3484
 -19534612.94547 -15206246.48846  21045095.6724                   21045094.7934
 -12379716.18048  -9630474.29146  21421376.4844                   21421376.3094
 -40951993.96147 -31887161.64845  22335795.6024                   22335795.6454
 -26235986.01246 -20422389.28143  24539679.8054                   24539686.1764
 -35164387.92248 -27379192.11446  20673694.4534                   20673691.6994
 11  7 31  2  4 30.0000000  0  8G09G25G10G17G12G05G04G02
 -13552855.94946 -10538933.26743  24478984.0634                   24478989.8364
   5263539.24247   4116686.25344  23349658.8834                   23349662.3954
 -26797555.42247 -20861232.70545  21001596.9924                   21001596.6684
 -54909248.00046 -42764498.13044  23728395.8524                   23728396.6954
 -19633818.21948 -15283549.28546  21026217.6334                   21026216.6844
 -12518399.75848  -9738539.35546  21394985.7814                   21394985.6564
 -40933886.18447 -31873051.71745  22339240.8594                   22339241.3954
 -35216325.33648 -27419662.83246  20663811.0164                   20663808.0984
 11  7 31  2  5  0.0000000  0  8G09G25G10G17G12G05G04G02
 -13531475.75446 -10522273.49643  24483053.6724                   24483058.7854
   5112221.42646   3998776.37444  23320863.9774                   23320867.2934
 -26836532.69547 -20891604.59245  20994180.2734                   20994179.5824
 -54909502.29746 -42764696.29844  23728347.3754                   23728349.2074
 -19732448.43748 -15360404.00646  21007448.9224                   21007448.0274
 -12656620.91447  -9846244.11346  21368682.9304                   21368682.9104
 -40915658.45347 -31858848.27945  22342709.5634                   22342709.7664
 -35267967.56248 -27459903.52946  20653983.6334                   20653981.2034
 11  7 31  2  5 30.0000000  0  8G09G25G10G17G12G05G04G02
 -13510033.28546 -10505565.21943  24487133.7584                   24487139.0944
   4961255.39847   3881140.60444  23292136.0004                   23292139.0474
 -26874837.60947 -20921452.55845  20986890.9454                   20986890.0864
 -54909528.92246 -42764717.08544  23728342.7814                   23728343.0904
 -19830498.03548 -15436806.27946  20988790.7274                   20988789.4064
 -12794372.80548  -9953583.18246  21342469.7114                   21342469.4494
 -40897307.88747 -31844549.15944  22346201.4694                   22346201.5704
 -35319311.54748 -27499911.81046  20644213.3834                   20644210.2974
 11  7 31  2  6  0.0000000  0  8G09G25G10G17G12G05G04G02
 -13488518.72746 -10488800.80143  24491228.0864                   24491233.7304
   4810656.66047   3763791.01444  23263478.2114                   23263481.0514
 -26912458.25847 -20950767.33745  20979732.0554                   20979731.1724
 -54909314.92246 -42764550.37144  23728382.9384                   23728383.8014
 -19927952.43748 -15512744.76046  20970245.5634                   20970244.8594
 -12931640.09448 -10060544.64746  21316348.4844                   21316348.2584
 -40878823.25847 -31830145.53944  22349719.1334                   22349718.6094
 -35370345.55948 -27539678.58046  20634502.0704                   20634498.7934
 11  7 31  2  6 30.0000000  0  8G09G25G10G17G12G05G04G02
 -13466942.60246 -10471988.40043  24495334.1724                   24495339.6954
   4660420.79747   3646724.18744  23234889.3754                   23234892.2114
 -26949402.59048 -20979555.12145  20972701.8364                   20972701.0354
 -54908867.00046 -42764201.35244  23728468.4224                   23728469.3674
 -20024817.23848 -15588223.81946  20951813.0234                   20951812.1764
 -13068427.37147 -10167132.07846  21290318.7274                   21290318.8094
 -40860212.96947 -31815644.06244  22353260.0554                   22353260.5904
 -35421078.34448 -27579210.61346  20624848.0634                   20624845.0704
 11  7 31  2  7  0.0000000  0  8G09G25G10G17G12G05G04G02
 -13445311.09446 -10455132.82143  24499450.6644                   24499456.1764
   4510547.18447   3529939.60645  23206369.2504                   23206371.9844
 -26985674.93747 -21007819.27445  20965799.2974                   20965798.0634
 -54908188.31646 -42763672.58143  23728597.4224                   23728598.8484
 -20121093.96548 -15663244.64146  20933492.4144                   20933490.8874
 -13204735.35948 -10273346.03746  21264380.2344                   21264379.9454
 -40841482.03947 -31801048.54844  22356824.6724                   22356825.5474
 -35471513.74248 -27618510.92446  20615250.0234                   20615247.2074
 11  7 31  2  7 30.0000000  0  8G09G25G10G17G12G05G04G02
 -13423628.47746 -10438237.49743  24503575.7504                   24503582.5944
   4361037.59447   3413438.70144  23177918.0784                   23177921.2624
 -27021276.94147 -21035561.07145  20959024.6804                   20959024.0474
 -54907279.46946 -42762964.45743  23728770.3674                   23728771.0904
 -20216782.16848 -15737806.86946  20915283.0864                   20915282.1454
 -13340562.61348 -10379185.38746  21238532.9534                   21238532.9494
 -40822632.98447 -31786360.99644  22360411.7734                   22360411.7734
 -35521653.84048 -27657581.13646  20605708.6334                   20605705.7734
 11  7 31  2  8  0.0000000  0  8G09G25G10G17G12G05G04G02
 -13401899.86346 -10421306.27143  24507711.5474                   24507716.6374
   4211892.71947   3297221.98644  23149537.3754                   23149540.5044
 -27056211.73447 -21062782.98445  20952376.4304                   20952375.9574
 -54906141.98446 -42762078.10743  23728986.6254                   23728988.1564
 -20311882.31247 -15811910.87646  20897186.4614                   20897185.4734
 -13475908.53548 -10484649.70146  21212777.4064                   21212777.2704
 -40803669.21147 -31771584.04144  22364020.4534                   22364020.6604
 -35571501.79348 -27696423.69246  20596223.3674                   20596220.3674
 11  7 31  2  8 30.0000000  0  8G09G25G10G17G12G05G04G02
 -13380128.53146 -10404341.77343  24511854.1954                   24511860.4144
   4063115.09447   3181291.41844  23121225.5474                   23121228.3324
 -27090480.80147 -21089486.11645  20945855.2814                   20945854.6094
 -54904775.57046 -42761013.40644  23729247.2424                   23729247.8714
 -20406392.95747 -15885555.54246  20879201.3524                   20879200.5744
 -13610771.13748 -10589737.37446  21187113.8594                   21187114.0664
 -40784592.38347 -31756718.99444  22367650.6804                   22367651.2624
 -35621059.11748 -27735039.79146  20586792.9384                   20586789.6884
 11  7 31  2  9  0.0000000  0  8G09G25G10G17G12G05G04G02
 -13358321.69146 -10387349.63443  24516004.6954                   24516009.5634
   3914703.08247   3065645.73144  23092984.1254                   23092986.2704
 -27124089.18047 -21115674.46545  20939460.0704                   20939459.0314
 -54903184.34046 -42759773.54943  23729549.8284                   23729551.1374
 -20500316.71148 -15958742.88346  20861328.4614                   20861327.2194
 -13745152.16048 -10694449.80746  21161542.3444                   21161541.9534
 -40765408.52747 -31741770.54345  22371301.4454                   22371300.9574
 -35670330.91448 -27773433.39246  20577416.6644                   20577413.7154
 11  7 31  2  9 30.0000000  0  8G09G25G10G17G12G05G04G02
 -13336479.05146 -10370329.64143  24520160.4384                   24520167.6334
   3766662.85247   2950289.74044  23064812.5634                   23064814.7814
 -27157034.55947 -21141346.16445  20933190.3444                   20933189.3914
 -54901365.21946 -42758356.05043  23729896.4614                   23729896.9884
 -20593648.73048 -16031469.12146  20843567.8834                   20843566.9344
 -13879045.67648 -10798782.36746  21136063.0864                   21136062.6884
 -40746115.32447 -31726736.91745  22374973.2504                   22374973.4964
 -35719315.00848 -27811602.79246  20568095.2664                   20568092.2814
 11  7 31  2 10  0.0000000  0  8G09G25G10G17G12G05G04G02
 -13314608.32046 -10353287.62343  24524323.1174                   24524329.6134
   3618992.59047   2835222.04344  23036711.7344                   23036714.1254
 -27189322.45747 -21166505.57345  20927046.1254                   20927045.5474
 -54899321.57846 -42756763.70443  23730284.7584                   23730285.4264
 -20686392.28147 -16103736.81346  20825919.7734                   20825918.4964
 -14012453.89148 -10902736.76146  21110676.4224                   21110675.9454
 -40726718.93747 -31711622.84744  22378663.4064                   22378663.9774
 -35768017.11348 -27849552.48146  20558827.7504                   20558824.4304
 11  7 31  2 10 30.0000000  0  8G09G25G10G17G12G05G04G02
 -13292712.90146 -10336226.54742  24528490.1254                   24528496.5784
   3471694.46147   2720444.33344  23008681.7274                   23008685.0124
 -27220954.63347 -21191154.01645  20921027.3914                   20921026.4184
 -54897054.00446 -42754996.76743  23730716.9774                   23730717.6334
 -20778546.08647 -16175544.96346  20808383.1954                   20808382.5944
 -14145374.88747 -11006311.50146  21085382.2894                   21085381.7934
 -40707221.24247 -31696429.87144  22382374.6884                   22382374.5234
 -35816438.79348 -27887283.65846  20549613.0784                   20549610.2774
 11  7 31  2 11  0.0000000  0  8G09G25G10G17G12G05G04G02
 -13270794.63346 -10319147.62843  24532660.4614                   24532667.0664
   3324772.12147   2605959.43644  22980723.2034                   22980726.3364
 -27251931.08247 -21215291.49645  20915132.4614                   20915131.7344
 -54894561.16046 -42753054.32443  23731191.2194                   23731191.9494
 -20870107.95747 -16246891.85446  20790959.6024                   20790958.5354
 -14277805.41848 -11109504.07246  21060181.7664                   21060181.0784
 -40687622.71147 -31681158.28944  22386102.7424                   22386103.6724
 -35864580.26248 -27924796.47446  20540452.1724                   20540449.4104
 11  7 31  2 11 30.0000000  0  8G09G25G10G17G12G05G04G02
 -13248856.53946 -10302053.16443  24536835.6334                   24536842.0594
   3178228.62947   2491769.70044  22952836.7814                   22952839.5594
 -27282252.72747 -21238918.75045  20909362.1254                   20909361.4884
 -54891842.45346 -42750935.95743  23731708.4304                   23731709.2814
 -20961076.26647 -16317776.23746  20773648.6174                   20773647.5824
 -14409742.51247 -11212312.14246  21035074.8524                   21035074.3984
 -40667924.43747 -31665809.04444  22389851.4224                   22389851.9454
 -35912442.03548 -27962091.35446  20531344.5864                   20531341.6024
 11  7 31  2 12  0.0000000  0  8G09G25G10G17G12G05G04G02
 -13226902.37145 -10284946.28142  24541013.2664                   24541019.8874
   3032065.69947   2377876.56344  22925022.9064                   22925025.6954
 -27311921.61747 -21262037.36245  20903716.4224                   20903715.6294
 -54888898.77746 -42748642.19444  23732268.0164                   23732270.0554
 -21051450.14847 -16388197.43546  20756451.1414                   20756450.4414
 -14541184.82448 -11314734.66046  21010061.7584                   21010061.6644
 -40648128.78547 -31650383.88444  22393618.4614                   22393618.6524
 -35960026.32448 -27999170.02146  20522289.4924                   20522286.3834
 11  7 31  2 12 30.0000000  0  8G09G25G10G17G12G05G04G02
 -13204930.86346 -10267825.87142  24545195.1804                   24545200.7814
   2886290.23847   2264285.35544  22897283.1954                   22897285.5784
 -27340934.77047 -21284645.00145  20898195.6414                   20898194.7114
 -54885725.23046 -42746169.37143  23732872.7194                   23732873.5944
 -21141224.33647 -16458151.32746  20739367.6804                   20739366.5784
 -14672125.89847 -11416766.61546  20985144.4144                   20985144.1374
 -40628232.95747 -31634880.64744  22397404.9694                   22397405.2734
 -36007330.27348 -28036030.22646  20513287.7734                   20513284.8914
 11  7 31  2 13  0.0000000  0  8G09G25G10G17G12G05G04G02
 -11607533.14545  -9023100.61742  24849169.3204                   24849174.7154
   4316322.63747   3378596.34944  23169409.1254                   23169412.0744
 -25793879.75447 -20079147.58945  21192589.8364                   21192589.3404
 -53306909.31246 -41515923.30544  24033311.1564                   24033313.0514
 -19654981.49247 -15300039.99946  21022190.2114                   21022189.4264
 -13227146.18447 -10290808.34046  21260114.7584                   21260114.6524
 -39032826.05947 -30391706.45344  22701001.2584                   22701001.1024
 -34478940.21548 -26845076.93246  20804130.5394                   20804127.6684
 11  7 31  2 13 30.0000000  0  8G09G25G10G17G12G05G04G02
 -11585548.27346  -9005969.76242  24853353.1884                   24853359.2424
   4171318.14147   3265605.90044  23141815.5004                   23141818.5594
 -25821597.36747 -20100745.71845  21187315.7114                   21187315.2584
 -53303287.63346 -41513101.23643  24034000.6484                   24034001.3134
 -19743564.07448 -15369065.37546  21005333.6644                   21005332.7304
 -13357089.67248 -10392062.95046  21235387.7344                   21235387.3714
 -39012745.87947 -30376059.57344  22704821.7664                   22704821.8244
 -34525698.04348 -26881511.59446  20795232.8134                   20795229.9924
 11  7 31  2 14  0.0000000  0  8G09G25G10G17G12G05G04G02
 -11563566.137 5                  24857536.320
   4026698.39847   3152915.25845  23114295.5394                   23114297.9924
 -25848673.70347 -20121844.16245  21182163.0084                   21182162.9534
 -53299446.76246 -41510108.42543  24034731.5394                   24034732.6524
 -19831553.82847 -15437628.79146  20988589.8444                   20988588.7154
 -13486535.73848 -10492929.95646  21210755.3204                   21210754.4494
 -38992580.57447 -30360346.37044  22708659.7424                   22708659.9574
 -34572189.59048 -26917738.75946  20786385.9224                   20786383.1134
 11  7 31  2 14 30.0000000  0  8G09G25G10G17G12G05G04G02
 -11541587.715 6                  24861719.906
   3882467.66847   3040527.77245  23086849.1094                   23086851.8484
 -25875108.77747 -20142442.91745  21177132.4924                   21177132.3484
 -53295384.27746 -41506942.94444  24035505.0234                   24035506.4024
 -19918947.46147 -15505727.71646  20971959.0394                   20971958.2624
 -13615480.53947 -10593406.38346  21186217.6094                   21186217.1644
 -38972329.59447 -30344566.43144  22712513.8054                   22712513.4774
 -34618414.14548 -26953757.87546  20777589.7274                   20777587.0904
 11  7 31  2 15  0.0000000  0  8G09G25G10G17G12G05G04G02
 -11519610.277 6                  24865901.445
   3738634.26647   2928449.88245  23059478.6884                   23059481.1054
 -25900898.01647 -20162538.42545  21172225.3134                   21172224.6024
 -53291094.45346 -41503600.27044  24036320.8134                   24036322.2464
 -20005738.16447 -15573356.80346  20955443.6804                   20955442.6294
 -13743915.92647 -10693485.84246  21161776.9144                   21161776.6174
 -38951988.71547 -30328716.44344  22716384.0474                   22716384.7854
 -34664366.90648 -26989565.21346  20768845.2734                   20768842.0944
 11  7 31  2 15 30.0000000  0  8G09G25G10G17G12G05G04G02
 -11497641.109 6                  24870083.109
   3595196.59447   2816680.34445  23032183.0394                   23032186.0204
 -25926047.14547 -20182135.15645  21167439.6804                   21167438.9304
 -53286581.16046 -41500083.47344  24037180.1174                   24037181.2114
 -20091929.17247 -15640518.60546  20939041.7274                   20939040.9964
 -13871844.03948 -10793170.03746  21137432.8594                   21137432.5824
 -38931563.58247 -30312800.79044  22720270.6254                   22720270.9574
 -34710053.52748 -27025165.16946  20760151.4144                   20760148.4774
 11  7 31  2 16  0.0000000  0  8G09G25G10G17G12G05G04G02
 -11475684.21546  -8920362.38352  24874260.5944                   24874267.8094
   3452156.34447   2705220.49745  23004963.5554                   23004965.8834
 -25950558.22747 -20201234.69645  21162775.3834                   21162774.7624
 -53281845.20346 -41496393.18544  24038081.6564                   24038082.5944
 -20177520.07447 -15707212.78846  20922754.4144                   20922753.5594
 -13999263.68048 -10892458.00646  21113185.9614                   21113185.4734
 -38911056.37947 -30296821.21044  22724172.9384                   22724173.8054
 -34755475.93048 -27060559.24146  20751507.7114                   20751504.8484
 11  7 31  2 16 30.0000000  0  8G09G25G10G17G12G05G04G02
 -11453738.09446  -8903261.79443  24878436.8834                   24878443.6134
   3309520.24247   2594075.60045  22977821.1094                   22977823.5084
 -25974428.55947 -20219834.94845  21158232.9384                   21158232.7424
 -53276882.62946 -41492526.30244  24039025.9614                   24039026.3444
 -20262505.36347 -15773435.05646  20906582.2424                   20906581.1294
 -14126168.32848 -10991344.69546  21089036.8594                   21089036.3594
 -38890464.35547 -30280775.50744  22728091.1174                   22728091.8954
 -34800631.07848 -27095745.05046  20742914.6564                   20742912.0434
 11  7 31  2 17  0.0000000  0  8G09G25G10G17G12G05G04G02
 -11431809.26646  -8886174.59243  24882610.2344                   24882616.8244
   3167287.69947   2483245.13545  22950754.5704                   22950757.4454
 -25997662.97747 -20237939.68245  21153811.8834                   21153811.1374
 -53271696.17246 -41488484.92044  24040012.6024                   24040013.9144
 -20346887.14547 -15839187.05946  20890524.8524                   20890523.7154
 -14252559.00848 -11089830.89346  21064985.2424                   21064984.4184
 -38869792.21547 -30264667.38244  22732025.0004                   22732025.5554
 -34845523.62948 -27130726.23846  20734371.7814                   20734368.9574
 11  7 31  2 17 30.0000000  0  8G09G25G10G17G12G05G04G02
 -11409901.75046  -8869103.91943  24886779.0004                   24886785.7154
   3025460.30147   2372730.36745  22923765.4304                   22923768.3404
 -26020264.02047 -20255550.89345  21149510.8754                   21149510.1484
 -53266286.53546 -41484269.67444  24041040.9774                   24041043.2504
 -20430665.43047 -15904468.80546  20874582.2584                   20874581.4024
 -14378434.91448 -11187915.97046  21041032.1954                   21041031.3244
 -38849041.93747 -30248498.41144  22735973.9614                   22735974.3364
 -34890155.10548 -27165503.99646  20725879.4534                   20725876.3244
 11  7 31  2 18  0.0000000  0  7G25G10G17G12G05G04G02
   2884044.24647   2262536.11645  22896854.8914                   22896857.7274
 -26042229.52047 -20272666.86845  21145330.9384                   21145329.8954
 -53260650.12946 -41479877.75043  24042114.8834                   24042115.2344
 -20513835.66447 -15969276.73746  20858755.7344                   20858754.5784
 -14503789.85248 -11285595.08746  21017177.0864                   21017177.0704
 -38828211.65047 -30232267.11444  22739937.9694                   22739938.7584
 -34934523.39848 -27200076.66246  20717435.8834                   20717432.6804
 11  7 31  2 18 30.0000000  0  7G25G10G17G12G05G04G02
   2743043.08647   2152665.17345  22870023.4064                   22870026.0314
 -26063560.06647 -20289288.08845  21141271.8134                   21141271.3204
 -53254785.71946 -41475308.11643  24043230.8834                   24043231.1844
 -20596395.59047 -16033609.11546  20843044.5864                   20843044.1684
 -14628621.31648 -11382866.32446  20993422.6334                   20993422.2304
 -38807301.46947 -30215973.43544  22743917.2114                   22743917.2034
 -34978628.65648 -27234444.37646  20709043.1954                   20709040.0744
 11  7 31  2 19  0.0000000  0  7G25G10G17G12G05G04G02
   2602464.08247   2043123.13545  22843272.5234                   22843274.8134
 -26084252.38747 -20305411.98045  21137334.2584                   21137333.4964
 -53248688.56646 -41470557.10243  24044390.2974                   24044391.6094
 -20678339.50847 -16097461.48246  20827451.6254                   20827450.3954
 -14752922.18748 -11479724.08346  20969769.2034                   20969768.5164
 -38786307.88747 -30199614.82744  22747912.0234                   22747911.8794
 -35022467.21948 -27268604.26646  20700700.5864                   20700697.9494
 11  7 31  2 19 30.0000000  0  7G25G10G17G12G05G04G02
   2462316.62947   1933917.41344  22816603.0004                   22816604.9574
 -26104301.49647 -20321034.65345  21133518.6884                   21133518.3954
 -53242351.73446 -41465619.37643  24045596.9844                   24045597.6454
 -20759659.23047 -16160827.46446  20811977.1884                   20811976.1214
 -14876683.36348 -11576161.31846  20946217.9384                   20946217.4924
 -38765225.53147 -30183187.02744  22751923.9144                   22751923.9184
 -35066033.34448 -27302551.86846  20692410.4924                   20692407.3954
 11  7 31  2 20  0.0000000  0  7G25G10G17G12G05G04G02
   2322601.74247   1825048.72245  22790015.7894                   22790018.3594
 -26123710.56647 -20336158.62145  21129825.5554                   21129825.1524
 -53235776.83246 -41460496.08043  24046847.7194                   24046848.4414
 -20840356.05547 -16223708.07346  20796620.7814                   20796619.9304
 -14999904.44948 -11672177.68746  20922769.8524                   20922769.6644
 -38744057.28947 -30166692.33144  22755952.2894                   22755951.7584
 -35109329.84048 -27336289.36246  20684171.4844                   20684168.5554
 11  7 31  2 20 30.0000000  0  7G25G10G17G12G05G04G02
   2183319.11347   1716516.87545  22763511.2974                   22763513.6804
 -26142483.76647 -20350787.09045  21126253.5084                   21126252.5274
 -53228966.48846 -41455189.40443  24048144.1724                   24048144.5514
 -20920431.43747 -16286104.44946  20781382.9144                   20781381.8674
 -15122586.40248 -11767773.96646  20899424.2424                   20899423.6214
 -38722807.13747 -30150133.79044  22759996.2584                   22759995.7274
 -35152360.39848 -27369819.63946  20675982.6334                   20675979.7424
 11  7 31  2 21  0.0000000  0  7G25G10G17G12G05G04G02
   2044474.35547   1608326.17745  22737090.3444                   22737092.1214
 -26160619.89147 -20364919.12545  21122801.8594                   21122801.2774
 -53221917.50846 -41449696.69943  24049485.3204                   24049486.4534
 -20999881.28547 -16348013.38946  20766264.0394                   20766262.7464
 -15244724.13347 -11862946.16746  20876182.4694                   20876181.6484
 -38701473.49647 -30133510.16444  22764055.4224                   22764055.8524
 -35195123.24648 -27403141.30246  20667845.3364                   20667842.3284
 11  7 31  2 21 30.0000000  0  7G25G10G17G12G05G04G02
   1906064.41047   1500474.30445  22710751.1644                   22710753.6644
 -26178126.18747 -20378560.40545  21119470.6724                   21119470.1024
 -53214635.36746 -41444022.37843  24050871.7974                   24050872.2194
 -21078710.32047 -16409438.58846  20751263.2274                   20751262.2544
 -15366321.06248 -11957696.97546  20853043.0554                   20853042.3164
 -38680063.14847 -30116826.84544  22768129.7894                   22768130.5904
 -35237625.00448 -27436259.52946  20659757.4614                   20659754.2504
 11  7 31  2 22  0.0000000  0  7G25G10G17G12G05G04G02
   1768092.34047   1392963.64045  22684496.1484                   22684498.5434
 -26195003.75847 -20391711.76845  21116258.7894                   21116258.1254
 -53207119.33246 -41438165.85543  24052301.8054                   24052302.8014
 -21156917.26247 -16470379.03746  20736380.8984                   20736380.1134
 -15487374.95347 -12052024.62946  20830006.6174                   20830006.4384
 -38658576.65247 -30100084.17044  22772218.5944                   22772218.8524
 -35279866.55548 -27469174.99946  20651719.2424                   20651716.3014
 11  7 31  2 22 30.0000000  0  7G25G10G17G12G05G04G02
   1630559.19947   1285794.97545  22658324.1644                   22658326.7424
 -26211255.73447 -20404375.65445  21113166.3984                   21113165.6884
 -53199370.87946 -41432128.08843  24053776.5554                   24053777.3714
 -21234502.36747 -16530834.94746  20721617.1884                   20721616.2664
 -15607885.05147 -12145928.55246  20807075.0004                   20807074.0204
 -38637016.74647 -30083284.24544  22776321.2344                   22776321.9654
 -35321850.34448 -27501889.62046  20643730.0394                   20643726.8134
 11  7 31  2 23  0.0000000  0  7G25G10G17G12G05G04G02
   1493465.35947   1178968.64745  22632236.1414                   22632238.5274
 -26226886.35947 -20416555.37945  21110191.6254                   21110190.7624
 -53191392.09846 -41425910.96543  24055293.9774                   24055295.5824
 -21311467.30947 -16590807.62246  20706971.0314                   20706969.7074
 -15727851.78147 -12239409.07146  20784245.7344                   20784245.3204
 -38615386.68047 -30066429.64044  22780437.0474                   22780438.0314
 -35363579.54348 -27534405.84746  20635789.0474                   20635786.1054
 11  7 31  2 23 30.0000000  0  7G25G10G17G12G05G04G02
   1356813.29747   1072486.56545  22606232.2034                   22606234.4184
 -26241897.23847 -20428252.17845  21107335.8914                   21107334.6804
 -53183182.84846 -41419514.20543  24056857.3204                   24056857.9184
 -21387810.89847 -16650296.12346  20692443.1724                   20692442.4144
 -15847273.07047 -12332464.55846  20761520.8284                   20761520.1334
 -38593687.92647 -30049521.58544  22784566.6094                   22784566.6724
 -35405055.23848 -27566724.54646  20627896.6094                   20627893.4414
 11  7 31  2 24  0.0000000  0  7G25G10G17G12G05G04G02
   1220606.64147    966351.54645  22580312.9144                   22580315.5474
 -26256288.96947 -20439466.52945  21104596.9454                   21104596.3204
 -53174741.93046 -41412936.94543  24058462.9924                   24058463.8134
 -21463531.23847 -16709298.97446  20678034.4844                   20678032.8364
 -15966146.06648 -12425092.81846  20738899.9694                   20738899.1564
 -38571920.50047 -30032559.94544  22788708.4454                   22788709.2774
 -35446277.49248 -27598845.75746  20620052.2274                   20620049.2544
 11  7 31  2 24 30.0000000  0  7G25G10G17G12G05G04G02
   1084841.98047    860560.91945  22554477.9384                   22554479.6994
 -26270069.58647 -20450204.67345  21101974.4534                   21101973.6844
 -53166075.31646 -41406183.79243  24060111.9614                   24060113.2304
 -21538633.51647 -16767820.21246  20663743.0554                   20663741.9024
 -16084474.51648 -12517296.75346  20716382.9454                   20716382.2894
 -38550091.59847 -30015550.43644  22792862.9694                   22792863.6454
 -35487253.33248 -27630774.96646  20612254.8594                   20612251.7734
 11  7 31  2 25  0.0000000  0  7G25G10G17G12G05G04G02
    949520.62547    755115.74145  22528727.2584                   22528729.5084
 -26283241.73447 -20460468.71345  21099467.7734                   21099467.2464
 -53157184.02046 -41399255.55643  24061804.0004                   24061805.4844
 -21613118.37147 -16825860.36646  20649568.5864                   20649567.5354
 -16202257.77348 -12609075.85746  20693969.4844                   20693968.6294
 -38528203.40647 -29998494.73544  22797027.5784                   22797028.5904
 -35527984.93048 -27662513.86846  20604503.8204                   20604500.8324
 11  7 31  2 25 30.0000000  0  7G25G10G17G12G05G04G02
    814649.43847    650021.33245  22503061.6334                   22503064.3054
 -26295802.95747 -20470256.69645  21097077.8674                   21097076.7584
 -53148063.81246 -41392148.99443  24063540.0634                   24063541.7704
 -21686980.25847 -16883415.09346  20635513.6414                   20635512.4344
 -16319489.80948 -12700425.45346  20671660.9224                   20671660.0944
 -38506252.67247 -29981390.27544  22801204.7194                   22801205.4734
 -35568468.93448 -27694059.84146  20596799.8834                   20596797.0394
 11  7 31  2 26  0.0000000  0  7G25G10G17G12G05G04G02
   2255653.34047   1772881.55145  22777276.0944                   22777278.0904
 -24732336.92247 -19251971.49645  21394595.0864                   21394594.5784
 -51563296.95346 -40157265.75643  24365111.0864                   24365112.0204
 -20184798.51647 -15712883.86346  20921369.0864                   20921367.6454
 -14860746.94548 -11563742.64946  20949250.5704                   20949249.5004
 -36908823.40646 -28736640.18644  23105185.3444                   23105186.2814
 -34033287.10248 -26497814.24946  20888935.2814                   20888932.3714
 11  7 31  2 26 30.0000000  0  7G25G10G17G12G05G04G02
   2121685.37147   1668490.93645  22751782.5084                   22751784.6764
 -24743686.79747 -19260815.58145  21392435.2344                   21392434.9224
 -51553723.02346 -40149805.58143  24366933.1644                   24366934.3404
 -20257417.49647 -15769470.06946  20907550.4224                   20907549.4344
 -14976875.42248 -11654232.31046  20927151.3834                   20927150.7074
 -36886755.73847 -28719444.61244  23109385.0004                   23109386.3054
 -34073283.71947 -26528980.43746  20881324.1024                   20881320.9494
 11  7 31  2 27  0.0000000  0  7G25G10G17G12G05G04G02
   1988171.49247   1564454.16945  22726375.3834                   22726377.6374
 -24754434.88347 -19269190.72845  21390390.2194                   21390389.6604
 -51543923.57846 -40142169.65143  24368796.9384                   24368798.6604
 -20329415.23447 -15825572.19946  20893849.2894                   20893848.2894
 -15092450.40248 -11744290.68246  20905158.4064                   20905157.7304
 -36864632.54346 -28702205.74044  23113595.1724                   23113595.2664
 -34113039.68047 -26559959.09946  20873758.7504                   20873756.1414
 11  7 31  2 27 30.0000000  0  8G29G25G10G17G12G05G04G02
  20273581.14856  15810115.86553  24752848.9844                   24752852.1134
   1855112.87947   1460772.16045  22701055.5004                   22701057.6214
 -24764584.11747 -19277099.25345  21388459.2894                   21388458.1994
 -51533899.80946 -40134359.02343  24370704.5394                   24370706.8364
 -20400792.36347 -15881190.74646  20880266.9694                   20880265.7074
 -15207471.58648 -11833917.52446  20883270.4224                   20883269.6994
 -36842456.08246 -28684925.39944  23117814.6174                   23117815.4454
 -34152557.07447 -26590751.87746  20866239.1804                   20866235.8954
 11  7 31  2 28  0.0000000  0  8G29G25G10G17G12G05G04G02
  20133021.42246  15700588.89043  24726101.7034                   24726104.2074
   1722500.22747   1357437.65745  22675819.8134                   22675822.8484
 -24774148.54347 -19284552.07645  21386639.3284                   21386638.1684
 -51523663.48446 -40126382.70843  24372653.1024                   24372654.2384
 -20471559.82447 -15936334.21746  20866800.1724                   20866799.0824
 -15321949.06648 -11923120.71246  20861485.7664                   20861485.7344
 -36820239.35546 -28667613.70544  23122042.8984                   23122042.7664
 -34191848.64147 -26621368.66146  20858762.0944                   20858759.3324
 11  7 31  2 28 30.0000000  0  8G29G25G10G17G12G05G04G02
  19992418.05546  15591027.97443  24699345.5004                   24699348.3444
   1590331.75047   1254449.24945  22650668.9774                   22650671.7584
 -24783134.32447 -19291554.01245  21384928.8204                   21384928.3634
 -51513218.60946 -40118243.91143  24374640.9534                   24374642.5514
 -20541720.82447 -15991005.11946  20853448.8754                   20853447.8094
 -15435885.11748 -12011902.00246  20839804.6334                   20839804.3134
 -36797987.73846 -28650274.76143  23126276.7034                   23126277.1844
 -34230919.75047 -26651813.68246  20851326.6094                   20851324.0274
 11  7 31  2 29  0.0000000  0  8G29G25G10G17G12G05G04G02
  19851772.14146  15481433.84743  24672580.1884                   24672584.5634
   1458610.80547   1151809.56445  22625603.2034                   22625605.5634
 -24791542.64847 -19298105.96345  21383329.0784                   21383328.1684
 -51502564.29346 -40109941.89843  24376668.8594                   24376669.6954
 -20611274.52347 -16045202.79846  20840213.3364                   20840212.2384
 -15549276.94948 -12100259.22546  20818227.1484                   20818226.2814
 -36775701.05546 -28632908.51744  23130518.2424                   23130518.5124
 -34269770.77747 -26682087.20246  20843933.6414                   20843930.7934
 11  7 31  2 29 30.0000000  0  8G29G25G10G17G12G05G04G02
  19711086.88346  15371809.07843  24645809.9694                   24645812.6644
   1327342.09047   1049522.27545  22600623.9774                   22600626.4384
 -24799372.89147 -19304207.46445  21381838.5554                   21381838.3794
 -51491698.23446 -40101474.89243  24378735.2034                   24378737.7424
 -20680217.82847 -16098924.83046  20827093.8674                   20827092.5904
 -15662120.85948 -12188189.49146  20796753.4694                   20796752.6884
 -36753378.43746 -28615514.27044  23134765.7114                   23134765.7304
 -34308400.27047 -26712188.09146  20836583.0234                   20836579.8554
 11  7 31  2 30  0.0000000  0  8G29G25G10G17G12G05G04G02
  19570361.02346  15262152.59843  24619030.3134                   24619033.3324
   1196526.28147    947587.89645  22575730.3754                   22575732.6764
 -24806628.76647 -19309861.40445  21380458.3754                   21380457.5904
 -51480622.25846 -40092844.25442  24380843.1954                   24380844.5124
 -20748551.85247 -16152172.11046  20814090.3594                   20814089.1174
 -15774416.92248 -12275692.86646  20775384.0084                   20775383.7464
 -36731022.52346 -28598094.04044  23139019.4304                   23139020.4304
 -34346810.90247 -26742118.43646  20829273.5704                   20829270.2934
 11  7 31  2 30 30.0000000  0  8G29G25G10G17G12G05G04G02
  19429596.56346  15152466.20743  24592243.5084                   24592246.0004
   1066167.46947    846009.62645  22550923.8754                   22550926.6094
 -24813311.05947 -19315068.39245  21379186.3834                   21379186.0004
 -51469334.75046 -40084048.83242  24382991.8984                   24382993.1294
 -20816274.57847 -16204943.04546  20801203.3204                   20801201.7034
 -15886161.73848 -12362766.70046  20754119.8984                   20754119.4454
 -36708632.80946 -28580647.55444  23143280.5004                   23143281.1884
 -34385002.14547 -26771877.83046  20822006.1174                   20822002.8984
 11  7 31  2 31  0.0000000  0  8G29G25G10G17G12G05G04G02
  19288796.77746  15042752.17443  24565450.7114                   24565451.5084
    936270.52347    744791.27445  22526205.1884                   22526208.1914
 -24819419.09847 -19319827.92345  21378024.4774                   21378023.7664
 -51457833.16445 -40075086.62942  24385180.2194                   24385181.6334
 -20883383.16447 -16257235.42646  20788432.7114                   20788431.6054
 -15997350.96948 -12449407.61746  20732960.9614                   20732960.3754
 -36686207.78546 -28563173.51744  23147548.0474                   23147548.6054
 -34422972.57447 -26801465.16046  20814780.3594                   20814777.2734
 11  7 31  2 31 30.0000000  0  8G29G25G10G17G12G05G04G02
  19147959.88746  14933009.16443  24538650.4064                   24538652.4574
    806835.46147    643932.82545  22501574.4224                   22501576.7274
 -24824957.04747 -19324143.20245  21376970.6644                   21376969.7774
 -51446119.72345 -40065959.34842  24387408.5394                   24387411.0084
 -20949879.29347 -16309050.55846  20775778.7584                   20775777.8014
 -16107985.60548 -12535616.37046  20711908.2114                   20711907.4344
 -36663750.87946 -28545674.65244  23151821.4384                   23151821.7304
 -34460725.40647 -26830882.92746  20807596.3284                   20807593.2424
 11  7 31  2 32  0.0000000  0  8G29G25G10G17G12G05G04G02
  19007087.87146  14823238.89443  24511842.5314                   24511844.8204
    677866.06647    543437.22045  22477032.4774                   22477035.0634
 -24829925.90647 -19328015.04045  21376024.8524                   21376024.1644
 -51434193.12545 -40056665.98042  24389678.9224                   24389679.7974
 -21015760.91047 -16360386.84846  20763241.9304                   20763240.8484
 -16218062.26648 -12621390.34146  20690961.4224                   20690960.5594
 -36641261.55946 -28528150.53843  23156100.6564                   23156100.9454
 -34498260.26647 -26860130.85046  20800453.2664                   20800450.8364
 11  7 31  2 32 30.0000000  0  8G29G25G10G17G12G05G04G02
  18866183.39846  14713443.47943  24485029.2814                   24485031.9064
    549366.68047    443307.85245  22452579.8524                   22452582.2584
 -24834325.75847 -19331443.50045  21375187.5164                   21375187.3834
 -51422051.97345 -40047205.39542  24391989.5394                   24391990.0554
 -21081025.76647 -16411242.57446  20750822.5164                   20750821.3484
 -16327577.72748 -12706727.02646  20670120.8754                   20670120.0274
 -36618738.88746 -28510600.47743  23160386.8674                   23160386.9454
 -34535576.41447 -26889208.35546  20793352.6254                   20793349.9454
 11  7 31  2 33  0.0000000  0  8G29G25G10G17G12G05G04G02
  18725249.55945  14603624.87142  24458209.7584                   24458212.5234
    421342.00847    343548.42245  22428217.4384                   22428219.5904
 -24838156.15247 -19334428.21645  21374458.2734                   21374457.5634
 -51409693.39545 -40037575.36742  24394340.7034                   24394341.8054
 -21145670.64547 -16461615.17346  20738521.1414                   20738519.5554
 -16436527.86348 -12791623.18846  20649388.6414                   20649387.9924
 -36596181.51246 -28493023.32043  23164679.2974                   23164680.2304
 -34572672.39847 -26918114.28246  20786293.4694                   20786290.7074
 11  7 31  2 33 30.0000000  0  8G29G25G10G17G12G05G04G02
  18584281.27746  14493779.53942  24431384.6024                   24431386.7734
    293788.78147    244156.36645  22403944.8674                   22403947.3714
 -24841424.91847 -19336975.28545  21373836.4844                   21373835.7734
 -51397123.13346 -40027780.43042  24396733.4144                   24396734.2584
 -21209701.65647 -16511509.45046  20726336.7274                   20726335.4384
 -16544917.12948 -12876082.30746  20628762.7734                   20628761.7854
 -36573595.94546 -28475424.23443  23168977.8134                   23168978.3554
 -34609554.76648 -26946853.77746  20779275.2114                   20779272.3874
 11  7 31  2 34  0.0000000  0  8G29G25G10G17G12G05G04G02
  18443280.37546  14383908.83843  24404554.0864                   24404555.1374
    166710.62547    145134.47145  22379762.9064                   22379765.1484
 -24844133.27747 -19339085.66845  21373321.0944                   21373320.5744
 -51384340.12946 -40017819.69142  24399165.8204                   24399167.5274
 -21273117.10548 -16560924.06446  20714268.9144                   20714267.7544
 -16652742.16448 -12960101.76846  20608244.2424                   20608243.5084
 -36550981.94946 -28457802.93743  23173280.8674                   23173281.1174
 -34646223.38347 -26975426.70546  20772296.9844                   20772293.9534
 11  7 31  2 34 30.0000000  0  8G29G25G10G17G12G05G04G02
  18302248.87946  14274014.32043  24377716.2344                   24377718.7854
     40111.03947     46485.50145  22355671.5704                   22355673.7854
 -24846282.10547 -19340760.07045  21372912.2814                   21372911.4344
 -51371342.94946 -40007692.03542  24401639.3914                   24401640.6054
 -21335915.26647 -16609857.68146  20702318.8594                   20702317.1994
 -16760000.44548 -13043679.60846  20587833.7664                   20587832.5234
 -36528339.34446 -28440159.33943  23177588.8834                   23177589.8524
 -34682677.75048 -27003832.68346  20765359.9844                   20765356.9574
 11  7 31  2 35  0.0000000  0  8G29G25G10G17G12G05G04G02
  18161191.28546  14164099.44943  24350873.3914                   24350875.5394
    -86003.90247    -51785.80645  22331672.9144                   22331674.7584
 -24847869.45347 -19341996.95445  21372610.1334                   21372609.7034
 -51358128.37146 -39997395.01242  24404154.7424                   24404154.4884
 -21398091.91048 -16658307.00146  20690486.7894                   20690485.4144
 -16866686.80148 -13126811.77346  20567531.9844                   20567530.8244
 -36505664.99246 -28422491.05843  23181904.0474                   23181905.0594
 -34718915.14148 -27032069.58946  20758464.0474                   20758461.1174
 11  7 31  2 35 30.0000000  0  8G29G25G10G17G12G05G04G02
  18020106.93446  14054163.71344  24324025.9224                   24324027.9884
   -211633.10547   -149678.62445  22307766.1484                   22307768.4454
 -24848899.00447 -19342799.18445  21372414.1884                   21372413.8874
 -51344697.47746 -39986929.45143  24406709.7974                   24406711.5394
 -21459648.00847 -16706272.78646  20678773.0784                   20678771.4534
 -16972800.94948 -13209498.09046  20547338.9304                   20547338.0594
 -36482961.43046 -28404800.03843  23186224.2734                   23186225.7114
 -34754937.64548 -27060139.04746  20751609.3834                   20751606.1884
 11  7 31  2 36  0.0000000  0  8G29G25G10G17G12G05G04G02
  17878996.84446  13944207.93443  24297173.8134                   24297176.0314
   -336774.23047   -247191.13545  22283952.3524                   22283954.5314
 -24849372.78547 -19343168.36245  21372324.2194                   21372323.7544
 -51331050.16846 -39976295.21643  24409307.3754                   24409307.9344
 -21520583.28147 -16753754.80946  20667177.3054                   20667176.0864
 -17078341.32048 -13291737.28646  20527255.5164                   20527254.5234
 -36460229.62146 -28387086.97844  23190551.0554                   23190551.0394
 -34790746.44948 -27088041.99546  20744795.3364                   20744792.5314
 11  7 31  2 36 30.0000000  0  8G29G25G10G17G12G05G04G02
  17737861.20346  13834232.17244  24270316.3204                   24270318.5394
   -461425.17647   -344321.66545  22260232.1414                   22260234.5984
 -24849293.06247 -19343106.21245  21372339.6564                   21372339.2464
 -51317186.41846 -39965492.29043  24411944.8364                   24411946.4964
 -21580897.53548 -16800752.91846  20655700.2034                   20655699.0124
 -17183306.73048 -13373528.46446  20507280.9144                   20507279.7934
 -36437470.17246 -28369352.38343  23194882.1884                   23194881.7934
 -34826342.63747 -27115779.26246  20738021.6024                   20738018.2734
 11  7 31  2 37  0.0000000  0  7G29G25G10G12G05G04G02
  17596700.68046  13724237.06044  24243453.9534                   24243456.4614
   -585583.52047   -441068.36445  22236605.8674                   22236607.5044
 -24848662.16847 -19342614.57245  21372459.5004                   21372458.3244
 -21640590.66848 -16847267.03646  20644340.8054                   20644339.9344
 -17287695.72748 -13454870.49546  20487416.4924                   20487415.5704
 -36414684.11747 -28351597.03644  23199217.5474                   23199218.3874
 -34861727.12947 -27143351.58646  20731288.3914                   20731285.1174
 11  7 31  2 37 30.0000000  0  7G29G25G10G12G05G04G02
  17455517.18046  13614224.07343  24216587.4304                   24216589.9064
   -709245.79347   -537428.51745  22213073.4454                   22213075.7274
 -24847481.25847 -19341694.37245  21372684.4534                   21372683.3164
 -21699661.21547 -16893296.04446  20633100.2584                   20633098.9184
 -17391505.65248 -13535761.29946  20467662.2114                   20467661.2464
 -36391871.04747 -28333820.62844  23203559.3594                   23203559.6134
 -34896899.55148 -27170758.65246  20724594.7114                   20724591.8284
 11  7 31  2 38  0.0000000  0  7G29G25G10G12G05G04G02
  17314317.56647  13504198.54744  24189718.0864                   24189720.5394
   -832404.60247   -633396.34345  22189636.8914                   22189638.6844
 -24845747.32047 -19340343.23045  21373014.1414                   21373013.4494
 -21758103.73047 -16938835.67146  20621979.0084                   20621977.5164
 -17494729.92248 -13616195.75646  20448019.0164                   20448017.9804
 -36369026.75447 -28316019.86044  23207906.3364                   23207905.6994
 -34931855.44948 -27197996.99446  20717942.7194                   20717939.6684
 11  7 31  2 38 30.0000000  0  7G29G25G10G12G05G04G02
  17173110.34446  13394167.04643  24162847.6804                   24162849.8244
   -955049.30147   -728963.58545  22166298.2584                   22166300.4454
 -24843454.23047 -19338556.40145  21373450.5944                   21373449.4804
 -21815909.71947 -16983879.28946  20610978.8984                   20610977.5434
 -17597358.46148 -13696166.00946  20428489.5314                   20428488.3284
 -36346143.49646 -28298188.77743  23212260.1884                   23212260.3594
 -34966587.69548 -27225061.06646  20711333.3834                   20711330.1844
 11  7 31  2 39  0.0000000  0  7G29G25G10G12G05G04G02
  18607321.09846  14511733.96044  24435768.5554                   24435770.8484
    498246.56647    403474.82345  22442850.8134                   22442853.5164
 -23265183.98847 -18108735.40845  21673785.3444                   21673784.8054
 -20297657.52048 -15800825.63746  20899892.5084                   20899891.3324
 -16123966.91448 -12548068.65746  20708866.2274                   20708865.5274
 -34747802.80547 -27052728.50743  23516414.7504                   23516414.6884
 -33425675.67248 -26024350.38546  21004559.8054                   21004556.4494
 11  7 31  2 39 30.0000000  0  7G29G25G10G12G05G04G02
  18466092.65646  14401685.88344  24408893.4614                   24408895.9454
    376628.22747    308707.35945  22419707.8524                   22419710.0634
 -23261787.80147 -18106089.01745  21674431.2274                   21674430.8364
 -20354198.89148 -15844883.85946  20889133.2114                   20889131.6454
 -16225409.54748 -12627114.82646  20689562.6414                   20689561.7074
 -34724853.03546 -27034845.62743  23520781.2504                   23520782.8524
 -33459971.61348 -26051074.48646  20998032.9694                   20998029.8134
 11  7 31  2 40  0.0000000  0  7G29G25G10G12G05G04G02
  18324855.54346  14291631.14944  24382016.8914                   24382019.5234
    255527.25847    214343.06245  22396663.3594                   22396665.6374
 -23257842.58647 -18103014.82145  21675182.0314                   21675181.4184
 -20410106.98047 -15888448.61246  20878494.1414                   20878492.7704
 -16326256.07448 -12705696.49646  20670371.9534                   20670371.3404
 -34701870.24646 -27016936.98543  23525154.8674                   23525155.8524
 -33494049.92248 -26077629.00546  20991548.3754                   20991545.2504
 11  7 31  2 40 30.0000000  0  7G29G25G10G12G05G04G02
  18183605.64546  14181566.34943  24355137.1804                   24355139.7034
    134940.77747    120379.64745  22373716.3134                   22373718.5904
 -23253355.89847 -18099518.69945  21676036.2734                   21676035.0394
 -20465386.72748 -15931523.74546  20867974.8754                   20867973.5434
 -16426510.71548 -12783816.95246  20651293.9924                   20651293.4924
 -34678860.27347 -26999007.12943  23529533.7504                   23529533.8914
 -33527916.56648 -26104018.58846  20985103.9384                   20985100.6294
 11  7 31  2 41  0.0000000  0  7G29G25G10G12G05G04G02
  18042338.28146  14071488.05143  24328255.5474                   24328257.4144
     14865.57847     26814.61745  22350866.8054                   22350868.9734
 -23248335.63347 -18095606.79145  21676991.0084                   21676990.5704
 -20520043.60548 -15974113.51046  20857574.0704                   20857572.4694
 -16526177.25048 -12861479.15246  20632328.2974                   20632327.3634
 -34655829.48046 -26981061.03943  23533917.0314                   23533916.0984
 -33561577.73448 -26130248.06546  20978697.8364                   20978694.8524
 11  7 31  2 41 30.0000000  0  7G29G25G10G12G05G04G02
  17901053.84046  13961396.42943  24301368.7114                   24301372.0474
   -104696.60247    -66350.62445  22328114.6644                   22328117.0474
 -23242784.30147 -18091281.08045  21678047.4384                   21678046.6524
 -20574078.05148 -16016218.27646  20847291.5234                   20847290.4964
 -16625254.61348 -12938682.24846  20613474.3984                   20613473.5824
 -34632778.87546 -26963099.55543  23538301.8444                   23538303.0274
 -33595034.73048 -26156318.44246  20972331.4064                   20972328.4694
 11  7 31  2 42  0.0000000  0  7G29G25G10G12G05G04G02
  17759759.80946  13851297.27543  24274482.6954                   24274484.5434
   -223737.12947   -159109.41945  22305461.5704                   22305464.2974
 -23236697.72347 -18086538.27945  21679206.0234                   21679205.4494
 -20627483.54348 -16057832.93946  20837128.4304                   20837127.6884
 -16723735.52748 -13015420.59246  20594734.0554                   20594733.0044
 -34609702.95746 -26945118.28743  23542694.7974                   23542694.1914
 -33628282.17248 -26182225.53646  20966004.7734                   20966001.3634
 11  7 31  2 42 30.0000000  0  7G29G25G10G12G05G04G02
  17618451.69145  13741187.21943  24247591.7344                   24247594.5944
   -342259.03947   -251464.09745  22282908.2114                   22282909.9224
 -23230083.56647 -18081384.38845  21680464.4384                   21680464.3834
 -20680265.07847 -16098961.39646  20827084.7814                   20827083.4454
 -16821624.10948 -13091697.35646  20576106.5704                   20576105.3874
 -34586607.37546 -26927121.73243  23547089.2424                   23547089.0394
 -33661325.88348 -26207973.88446  20959716.5784                   20959713.4264
 11  7 31  2 43  0.0000000  0  7G29G25G10G12G05G04G02
  17477130.46946  13631066.95443  24220698.9844                   24220701.4494
   -460260.26647   -343413.02945  22260453.3134                   22260455.3874
 -23222944.36747 -18075821.35845  21681822.8914                   21681822.0904
 -20732422.62548 -16139603.61946  20817159.7114                   20817158.2074
 -16918919.04748 -13167511.54646  20557591.9774                   20557591.1524
 -34563493.13346 -26909110.63143  23551487.2734                   23551488.0274
 -33694166.92648 -26233564.30846  20953467.4844                   20953464.0824
 11  7 31  2 43 30.0000000  0  7G29G25G10G12G05G04G02
  17335801.00846  13520940.26443  24193805.9614                   24193807.1804
   -577734.57047   -434951.36945  22238098.1644                   22238100.9224
 -23215278.33647 -18069847.80345  21683281.6804                   21683281.2664
 -20783953.12947 -16179757.23946  20807353.3364                   20807352.5234
 -17015615.23848 -13242859.18846  20539191.0084                   20539190.5004
 -34540356.93746 -26891082.45043  23555890.6094                   23555890.9614
 -33726802.12148 -26258994.33546  20947256.8594                   20947253.7194
 11  7 31  2 44  0.0000000  0  7G29G25G10G12G05G04G02
  17194459.92646  13410804.46643  24166908.4694                   24166911.0864
   -694684.14547   -526080.84645  22215843.7114                   22215845.8204
 -23207092.37547 -18063469.12445  21684839.6954                   21684839.1804
 -20834860.66847 -16219425.43946  20797666.0234                   20797664.7774
 -17111715.58248 -13317742.52046  20520904.0474                   20520903.0634
 -34517203.69946 -26873040.97443  23560296.6094                   23560296.3754
 -33759236.35548 -26284267.77546  20941084.9844                   20941081.9224
 11  7 31  2 44 30.0000000  0  7G29G25G10G12G05G04G02
  17053107.31346  13300659.73543  24140010.3524                   24140011.7934
   -811107.63747   -616800.39845  22193688.6484                   22193690.7774
 -23198389.49647 -18056687.65145  21686495.8914                   21686495.2304
 -20885145.30948 -16258608.24546  20788097.1024                   20788096.2074
 -17207219.89148 -13392161.42946  20502729.7194                   20502729.1724
 -34494034.94146 -26854987.38543  23564705.5944                   23564705.5314
 -33791471.41848 -26309386.01746  20934951.2194                   20934947.8404
 11  7 31  2 45  0.0000000  0  7G29G25G10G12G05G04G02
  16911743.77746  13190506.50143  24113110.0634                   24113110.8324
   -927003.57847   -707108.85745  22171634.7194                   22171636.6024
 -23189172.28547 -18049505.40045  21688249.8834                   21688249.4264
 -20934808.69547 -16297306.94846  20778646.8134                   20778645.3204
 -17302127.73048 -13466115.53546  20484669.5164                   20484669.0434
 -34470851.78146 -26836922.55343  23569116.5164                   23569117.2114
 -33823508.52748 -26334350.00046  20928854.4384                   20928851.3204
 11  7 31  2 45 30.0000000  0  7G29G25G10G12G05G04G02
  16770368.90646  13080344.44343  24086206.2664                   24086208.5394
  -1042370.95347   -797005.44345  22149680.6094                   22149683.0514
 -23179444.73047 -18041925.47445  21690100.1024                   21690100.4144
 -20983851.77047 -16335522.31046  20769313.9224                   20769312.3794
 -17396439.00048 -13539604.80146  20466722.4844                   20466722.1134
 -34447656.18746 -26818848.11343  23573530.3284                   23573531.2274
 -33855349.75848 -26359161.36346  20922795.1724                   20922792.1334
 11  7 31  2 46  0.0000000  0  7G29G25G10G12G05G04G02
  16628983.71946  12970174.37143  24059301.4304                   24059303.7504
  -1157207.80148   -886488.63445  22127828.1564                   22127829.9574
 -23169209.22747 -18033949.75545  21692048.2814                   21692047.9224
 -21032275.00047 -16373254.66646  20760099.4064                   20760098.0394
 -17490152.66447 -13612628.39546  20448890.0944                   20448888.8054
 -34424448.64147 -26800764.33743  23577947.3054                   23577947.7934
 -33886995.88347 -26383820.70146  20916773.5084                   20916770.3244
 11  7 31  2 46 30.0000000  0  7G29G25G10G12G05G04G02
  16487590.76246  12859998.18844  24032395.7974                   24032397.5984
  -1271510.47748   -975555.59545  22106077.3834                   22106078.8984
 -23158466.49247 -18025578.80845  21694092.6094                   21694092.0984
 -21080076.86747 -16410502.83546  20751002.9694                   20751001.9654
 -17583266.33247 -13685184.45746  20431170.5554                   20431169.8914
 -34401228.35246 -26782670.58643  23582365.4844                   23582366.0984
 -33918446.11747 -26408327.38146  20910788.8204                   20910785.6484
 11  7 31  2 47  0.0000000  0  7G29G25G10G12G05G04G02
  16346185.46246  12749812.49844  24005486.3524                   24005488.2584
  -1385282.35247  -1064208.96145  22084426.4844                   22084429.1524
 -23147224.50047 -18016818.79345  21696231.8984                   21696231.3484
 -21127263.02347 -16447271.24946  20742023.5634                   20742022.4804
 -17675784.25847 -13757276.29846  20413564.9614                   20413563.8054
 -34378001.23846 -26764571.55743  23586785.9454                   23586785.9844
 -33949706.72747 -26432686.30646  20904840.0474                   20904837.0204
 11  7 31  2 47 30.0000000  0  7G29G25G10G12G05G04G02
  16204768.66846  12639617.72744  23978576.2734                   23978577.5434
  -1498521.66047  -1152447.30945  22062878.1884                   22062879.7544
 -23135485.96547 -18007671.88745  21698465.7664                   21698465.1134
 -21173834.00848 -16483560.30746  20733161.7034                   20733160.1024
 -17767705.78947 -13828903.42746  20396072.8754                   20396071.7624
 -34354768.28147 -26746467.96843  23591207.1884                   23591206.7114
 -33980778.87147 -26456898.37446  20898927.1334                   20898924.0234
 11  7 31  2 48  0.0000000  0  7G29G25G10G12G05G04G02
  16063345.28546  12529417.89644  23951663.9144                   23951665.1764
  -1611222.53547  -1240266.09745  22041431.9144                   22041433.9414
 -23123249.87547 -17998137.28145  21700794.3834                   21700793.3484
 -21219785.93748 -16519366.99146  20724417.2664                   20724415.6564
 -17859026.09847 -13900062.07046  20378694.9844                   20378694.2774
 -34331526.30446 -26728357.37643  23595629.4144                   23595629.9064
 -34011659.17247 -26480960.94046  20893050.5944                   20893047.4304
 11  7 31  2 48 30.0000000  0  7G29G25G10G12G05G04G02
  15921913.53146  12419211.53444  23924750.6644                   23924751.3834
  -1723385.75047  -1327665.96545  22020088.2274                   22020089.7734
 -23110521.09847 -17988218.76545  21703216.6094                   21703215.6294
 -21265122.29348 -16554693.98946  20715789.8524                   20715788.4344
 -17949746.86748 -13970753.53846  20361431.6564                   20361430.6294
 -34308278.67646 -26710242.40543  23600054.0234                   23600054.4184
 -34042351.37548 -26504876.95746  20887210.2894                   20887206.9144
 11  7 31  2 49  0.0000000  0  7G29G25G10G12G05G04G02
  15780477.33246  12309001.72344  23897835.2814                   23897836.7194
  -1835006.41047  -1414643.03845  21998847.1644                   21998849.0084
 -23097299.03147 -17977915.86345  21705732.7734                   21705731.9694
 -21309840.79348 -16589539.55346  20707280.0554                   20707278.9574
 -18039864.53147 -14040975.04746  20344282.7424                   20344281.6134
 -34285022.86346 -26692121.01243  23604479.4304                   23604479.2154
 -34072853.07447 -26528644.50246  20881405.6884                   20881402.8674
 11  7 31  2 49 30.0000000  0  7G29G25G10G12G05G04G02
  15639033.75046  12198786.09644  23870919.6644                   23870921.2704
  -1946086.35248  -1501198.79245  21977709.1484                   21977711.0234
 -23083590.02047 -17967233.52245  21708341.4774                   21708340.8014
 -21353945.41048 -16623906.77746  20698887.3754                   20698886.2114
 -18129381.79747 -14110728.73046  20327248.0234                   20327246.5704
 -34261763.38346 -26673996.74743  23608904.9924                   23608905.1564
 -34103168.94147 -26552267.25546  20875636.8524                   20875633.8054
 11  7 31  2 50  0.0000000  0  7G29G25G10G12G05G04G02
  15497584.53946  12088566.08943  23844002.7114                   23844004.0164
  -2056623.23047  -1587331.37545  21956674.9304                   21956676.6684
 -23069396.34047 -17956173.52445  21711042.1484                   21711041.5704
 -21397435.86348 -16657795.43846  20690611.5784                   20690610.0984
 -18218297.39847 -14180013.58346  20310328.4614                   20310326.8834
 -34238500.32446 -26655869.70743  23613331.8364                   23613332.2894
 -34133299.33247 -26575745.48046  20869903.5234                   20869900.3404
 11  7 31  2 50 30.0000000  0  7G29G25G10G12G05G04G02
  15356130.32446  11978342.21143  23817084.1094                   23817086.0234
  -2166615.10248  -1673039.26445  21935743.7194                   21935745.7384
 -23054720.48047 -17944737.80245  21713834.9534                   21713834.5084
 -21440312.62548 -16691205.88446  20682452.1094                   20682450.6994
 -18306610.53547 -14248828.96046  20293522.4064                   20293521.4344
 -34215234.30146 -26637740.36643  23617759.3444                   23617759.4654
 -34163245.00047 -26599079.76446  20864204.3984                   20864201.9064
 11  7 31  2 51  0.0000000  0  7G29G25G10G12G05G04G02
  15214669.14546  11868112.90644  23790165.5784                   23790166.9224
  -2276063.43447  -1758323.63345  21914916.9774                   21914918.3014
 -23039568.31247 -17932930.92445  21716718.5164                   21716717.5984
 -21482579.41848 -16724141.04646  20674409.0164                   20674407.6374
 -18394323.83647 -14317176.95146  20276831.3914                   20276829.8524
 -34191969.16046 -26619611.73943  23622186.7974                   23622187.1294
 -34193010.09048 -26622273.31946  20858540.9614                   20858537.6094
 11  7 31  2 51 30.0000000  0  7G29G25G10G12G05G04G02
  15073201.35946  11757878.39144  23763245.1024                   23763246.2704
  -2384967.25047  -1843183.71545  21894192.9304                   21894194.4844
 -23023943.20747 -17920755.52045  21719691.6334                   21719690.8284
 -21524238.07448 -16756602.31546  20666481.6334                   20666480.4964
 -18481437.18048 -14385057.44046  20260254.0314                   20260252.9024
 -34168706.41047 -26601484.88643  23626613.5234                   23626613.7034
 -34222596.18748 -26645327.40846  20852910.2894                   20852907.5704
 11  7 31  2 52  0.0000000  0  7G29G25G10G12G05G04G02
  16507155.38346  12875245.35943  24036116.3054                   24036118.2934
   -917898.25847   -700013.01745  22173366.7424                   22173368.5984
 -21432425.44147 -16680611.81845  22022547.5314                   22022547.0314
 -19989864.62548 -15560986.63646  20958463.4064                   20958461.6804
 -16992524.18448 -13224865.45646  20543584.3594                   20543583.6954
 -32570024.50846 -25355758.74343  23930832.3134                   23930832.4304
 -32676580.23447 -25440639.65546  21147107.7584                   21147104.7464
 11  7 31  2 52 30.0000000  0  7G29G25G10G12G05G04G02
  16365682.56346  12765006.94543  24009195.8284                   24009196.6254
  -1025702.26648   -784016.09645  22152852.4454                   22152854.2304
 -21415857.00847 -16667701.34945  22025700.2274                   22025699.6804
 -20030302.29748 -15592496.50846  20950768.2194                   20950766.6254
 -17078430.26648 -13291805.21746  20527237.4694                   20527236.3754
 -32546762.77746 -25337632.71543  23935259.1884                   23935259.3754
 -32705805.59447 -25463412.64946  21141546.2894                   21141543.5164
 11  7 31  2 53  0.0000000  0  7G29G25G10G12G05G04G02
  16224205.63746  12654765.28843  23982272.8754                   23982274.6094
  -1132956.96947   -867591.16645  22132442.4844                   22132444.2504
 -21398824.08247 -16654428.96245  22028941.4844                   22028940.9774
 -20070134.21548 -15623534.36646  20943188.5554                   20943187.2664
 -17163735.14148 -13358276.50546  20511004.3364                   20511003.2304
 -32523505.76246 -25319510.45343  23939684.8444                   23939685.5664
 -32734854.63747 -25486048.27346  21136018.2194                   21136015.6844
 11  7 31  2 53 30.0000000  0  7G29G25G10G12G05G04G02
  16082727.91046  12544523.10543  23955350.7274                   23955351.9384
  -1239658.19548   -950734.93945  22112138.0704                   22112139.5554
 -21381327.00047 -16640794.85845  22032270.7814                   22032270.5704
 -20109358.53948 -15654098.76446  20935724.8524                   20935723.0744
 -17248435.85548 -13424277.01946  20494886.3364                   20494885.1374
 -32500251.61746 -25301390.39943  23944109.7664                   23944109.7114
 -32763726.02747 -25508545.45446  21130524.3204                   21130521.4924
 11  7 31  2 54  0.0000000  0  7G29G25G10G12G05G04G02
  15941251.78546  12434282.07243  23928428.5784                   23928428.9844
  -1345802.71148  -1033444.93845  22091939.1174                   22091941.1054
 -21363366.80947 -16626799.89845  22035688.7664                   22035688.0904
 -20147973.77048 -15684188.56046  20928376.2274                   20928374.7544
 -17332530.12148 -13489804.97246  20478883.5864                   20478882.6994
 -32476999.28946 -25283271.62643  23948534.7344                   23948534.8404
 -32792418.63347 -25530903.32246  21125064.1724                   21125061.2154
 11  7 31  2 54 30.0000000  0  7G29G25G10G12G05G04G02
  15799773.12146  12324039.10143  23901506.4224                   23901506.7424
  -1451393.98848  -1115723.83545  22071845.6334                   22071847.7424
 -21344951.14547 -16612450.05245  22039193.2194                   22039192.6294
 -20185985.96948 -15713808.45846  20921142.8134                   20921141.3284
 -17416022.34448 -13554863.80746  20462995.4614                   20462994.5084
 -32453754.63346 -25265158.92643  23952957.7584                   23952958.2234
 -32820938.64548 -25553126.71046  21119637.1414                   21119634.1604
 11  7 31  2 55  0.0000000  0  7G29G25G10G12G05G04G02
  15658296.68446  12213797.82943  23874584.0164                   23874584.0354
  -1556427.21547  -1197567.87445  22051858.4064                   22051860.3484
 -21326079.90647 -16597745.20945  22042784.5634                   22042783.6804
 -20223393.38748 -15742957.08546  20914024.2894                   20914022.7034
 -17498909.05548 -13619450.80646  20447222.7114                   20447221.5984
 -32430515.09446 -25247050.24043  23957380.1724                   23957381.0004
 -32849283.65247 -25575213.70946  21114243.1884                   21114240.2274
 11  7 31  2 55 30.0000000  0  7G29G25G10G12G05G04G02
  15516821.18046  12103557.22744  23847661.9774                   23847662.2544
  -1660902.85947  -1278977.43246  22031977.6564                   22031979.3014
 -21306758.16847 -16582689.31945  22046461.2894                   22046460.6804
 -20260198.36348 -15771636.28446  20907020.5704                   20907019.0004
 -17581191.88348 -13683567.26046  20431564.5554                   20431563.5984
 -32407283.17646 -25228947.44243  23961801.5004                   23961801.6994
 -32877456.55948 -25597166.62646  21108882.5554                   21108879.3364
 11  7 31  2 56  0.0000000  0  7G29G25G10G12G05G04G02
  15375347.34846  11993318.02144  23820740.5704                   23820740.7894
  -1764818.98447  -1359951.01846  22012203.1024                   22012204.6914
 -21286987.71947 -16567283.79945  22050222.8754                   22050222.9844
 -20296401.64848 -15799846.63446  20900131.1564                   20900129.8444
 -17662869.87548 -13747212.40746  20416021.9774                   20416020.6884
 -32384059.02046 -25210850.79443  23966220.4844                   23966220.9184
 -32905457.61348 -25618985.61946  21103553.5634                   21103550.6724
 11  7 31  2 56 30.0000000  0  7G29G25G10G12G05G04G02
  15233880.07846  11883083.90444  23793820.0234                   23793820.8954
  -1868170.90247  -1440484.93745  21992535.6094                   21992537.6134
 -21266768.19947 -16551528.35745  22054071.2584                   22054070.3984
 -20332000.78548 -15827586.20046  20893356.7814                   20893355.8244
 -17743939.85248 -13810383.77846  20400594.4614                   20400593.4924
 -32360840.34446 -25192758.37443  23970638.9064                   23970639.9384
 -32933285.00847 -25640669.29246  21098258.6564                   21098255.7814
 11  7 31  2 57  0.0000000  0  7G29G25G10G12G05G04G02
  15092419.24646  11772854.83644  23766900.8594                   23766901.3324
  -1970958.20348  -1520578.92246  21972975.5944                   21972977.9804
 -21246103.55547 -16535426.04444  22058003.1024                   22058003.0864
 -20366997.67648 -15854856.49246  20886697.1414                   20886695.8834
 -17824402.69148 -13873082.05046  20385283.0004                   20385281.8244
 -32337628.82446 -25174671.48343  23975055.4144                   23975056.4384
 -32960940.35548 -25662218.89646  21092996.0944                   21092992.6174
 11  7 31  2 57 30.0000000  0  7G29G25G10G12G05G04G02
  14950963.05147  11662629.33244  23739982.3444                   23739983.1914
  -2073182.11748  -1600233.87846  21953523.3444                   21953525.5704
 -21224999.49647 -16518981.37045  22062019.6724                   22062018.8204
 -20401396.24648 -15881660.57046  20880151.5394                   20880150.0354
 -17904260.16848 -13935308.61746  20370086.8984                   20370085.5594
 -32314427.75046 -25156592.73243  23979471.0704                   23979471.8054
 -32988427.23447 -25683637.23046  21087765.1804                   21087762.0084
 11  7 31  2 58  0.0000000  0  7G29G25G10G12G05G04G02
  14809513.08247  11552408.70644  23713065.6254                   23713065.7664
  -2174840.59048  -1679448.22946  21934178.3754                   21934180.6054
 -21203458.40247 -16502196.11645  22066118.3754                   22066117.9804
 -20435196.35548 -15907998.31446  20873719.7734                   20873717.9884
 -17983511.47748 -13997062.84846  20355005.2894                   20355004.6994
 -32291237.06646 -25138522.12843  23983884.7424                   23983884.8554
 -33015745.75847 -25704924.36746  21082566.3444                   21082563.0434
 11  7 31  2 58 30.0000000  0  7G29G25G10G12G05G04G02
  14668071.46146  11442194.60444  23686149.6414                   23686150.6174
  -2275931.18448  -1758220.05046  21914941.6564                   21914943.4574
 -21181481.61347 -16485071.34945  22070301.0234                   22070299.9224
 -20468398.85548 -15933870.37846  20867401.1724                   20867400.0664
 -18062155.44548 -14058343.82546  20340040.2974                   20340038.8524
 -32268056.21946 -25120459.15343  23988295.3834                   23988296.4304
 -33042895.71147 -25726080.15246  21077400.3444                   21077396.9884
 11  7 31  2 59  0.0000000  0  7G29G25G10G12G05G04G02
  14526636.32846  11331985.57144  23659235.1564                   23659236.5044
  -2376455.36748  -1836550.52745  21895812.4064                   21895814.0204
 -21159074.97747 -16467611.66044  22074564.6884                   22074563.5594
 -20501007.45748 -15959279.67446  20861196.0234                   20861194.4384
 -18140194.98848 -14119153.81646  20325189.7894                   20325188.3484
 -32244889.00046 -25102406.78843  23992703.4304                   23992704.5944
 -33069881.15647 -25747107.76146  21072265.2894                   21072261.9774
 11  7 31  2 59 30.0000000  0  7G29G25G10G12G05G04G02
  14385208.87146  11221782.47044  23632322.5704                   23632323.5394
  -2476411.62948  -1914438.46246  21876791.4064                   21876793.0084
 -21136241.15647 -16449819.08344  22078909.9694                   22078908.9414
 -20533022.99648 -15984226.83546  20855103.8054                   20855102.3954
 -18217629.77348 -14179492.58346  20310454.1644                   20310453.3244
 -32221735.65646 -25084365.27243  23997109.6954                   23997111.0274
 -33096702.57847 -25768007.54346  21067160.7814                   21067158.0394
 11  7 31  3  0  0.0000000  0  7G29G25G10G12G05G04G02
  14243794.46546  11111589.59644  23605411.1724                   23605413.0904
  -2575794.32848  -1991879.46945  21857879.1724                   21857880.9454
 -21112978.93747 -16431692.69244  22083336.1644                   22083335.1214
 -20564442.10548 -16008709.25246  20849124.4384                   20849123.8794
 -18294455.09448 -14239356.41946  20295834.8984                   20295833.8954
 -32198592.60246 -25066331.76743  24001513.9064                   24001514.9534
 -33123356.42648 -25788776.75746  21062088.8674                   21062085.6644
 11  7 31  3  0 30.0000000  0  7G29G25G10G12G05G04G02
  14102388.04746  11001402.92644  23578502.9614                   23578504.5124
  -2674607.96148  -2068877.03446  21839075.4454                   21839077.4924
 -21089297.18047 -16413239.40244  22087842.8444                   22087842.1484
 -20595271.68447 -16032732.28646  20843258.2114                   20843256.8094
 -18370676.69548 -14298749.84746  20281330.5314                   20281329.4494
 -32175466.08246 -25048311.14543  24005914.9694                   24005915.5744
 -33149849.38748 -25809420.61146  21057047.1484                   21057044.3164
 11  7 31  3  1  0.0000000  0  7G29G25G10G12G05G04G02
  13960996.00846  10891227.47244  23551597.0394                   23551598.0204
  -2772846.16448  -2145426.21446  21820381.3984                   21820382.9384
 -21065193.43447 -16394457.27144  22092429.8134                   22092429.1214
 -20625507.87147 -16056292.94146  20837504.1644                   20837502.7304
 -18446289.37148 -14357668.78346  20266941.8524                   20266941.0554
 -32152351.75446 -25030300.00543  24010313.2344                   24010314.0784
 -33176176.85948 -25829935.51146  21052037.6254                   21052034.0634
 11  7 31  3  1 30.0000000  0  7G29G25G10G12G05G04G02
  13819617.74647  10781062.71344  23524693.6564                   23524695.1764
  -2870509.26248  -2221527.27846  21801796.6804                   21801798.5084
 -21040672.55547 -16375350.12044  22097095.4304                   22097095.3284
 -20655153.54747 -16079393.46346  20831863.0864                   20831861.5434
 -18521294.84448 -14416114.56746  20252668.8914                   20252667.6214
 -32129251.74146 -25012299.98243  24014708.8204                   24014710.0634
 -33202341.55548 -25850323.57446  21047058.4694                   21047055.2974
 11  7 31  3  2  0.0000000  0  7G29G25G10G12G05G04G02
  13678253.82446  10670909.12544  23497793.4844                   23497793.8444
  -2967596.59448  -2297179.67346  21783321.6644                   21783323.3754
 -21015737.84847 -16355920.49544  22101840.5704                   22101839.9734
 -20684210.75047 -16102035.43946  20826333.2274                   20826332.1994
 -18595693.53548 -14474087.54646  20238510.8754                   20238509.9064
 -32106167.04746 -24994311.95543  24019101.6334                   24019102.5864
 -33228345.02048 -25870586.00846  21042110.2114                   21042106.7114
 11  7 31  3  2 30.0000000  0  7G29G25G10G12G05G04G02
  13536904.27047  10560766.72944  23470894.9304                   23470895.4224
  -3064108.07848  -2372383.36746  21764955.7424                   21764957.5354
 -20990393.03947 -16336171.31544  22106663.8364                   22106663.3914
 -20712681.64148 -16124220.53046  20820915.8364                   20820914.2974
 -18669486.50048 -14531588.52046  20224468.6174                   20224467.5984
 -32083099.40646 -24976337.18442  24023491.5234                   24023492.7234
 -33254189.07848 -25890724.22246  21037191.8524                   21037188.8634
 11  7 31  3  3  0.0000000  0  7G29G25G10G12G05G04G02
  13395569.52047  10450635.87044  23443999.4454                   23444000.8674
  -3160042.73448  -2447137.58746  21746700.1884                   21746701.9654
 -20964641.79347 -16316105.41945  22111564.2894                   22111563.7624
 -20740567.96947 -16145950.13246  20815609.1804                   20815607.6134
 -18742674.00448 -14588617.70446  20210541.6724                   20210540.6334
 -32060049.66446 -24958376.36443  24027877.3674                   24027878.6094
 -33279874.79348 -25910739.05446  21032304.7194                   21032301.4494
 11  7 31  3  3 30.0000000  0  7G29G25G10G12G05G04G02
  13254249.01647  10340516.07644  23417107.5004                   23417108.1604
  -3255401.62148  -2521443.16446  21728554.1884                   21728555.4414
 -20938489.02747 -16295726.64945  22116540.6804                   22116539.9534
 -20767872.79747 -16167226.61646  20810413.0634                   20810412.0744
 -18815258.26648 -14645176.85046  20196729.4924                   20196728.6134
 -32037020.66446 -24940431.75842  24032259.7034                   24032260.0124
 -33305404.97747 -25930632.68446  21027446.0164                   21027443.1724
 11  7 31  3  4  0.0000000  0  7G29G25G10G12G05G04G02
  13112948.73847  10230412.05844  23390218.9534                   23390219.5354
  -3350178.32047  -2595295.09545  21710518.4924                   21710520.4384
 -20911932.20747 -16275033.03645  22121595.1254                   22121593.6764
 -20794592.31647 -16188047.01646  20805328.2344                   20805327.2034
 -18887234.19148 -14701261.96046  20183032.5474                   20183031.6644
 -32014007.66846 -24922499.54342  24036639.0474                   24036639.0044
 -33330775.23847 -25950401.70646  21022618.3134                   21022615.1524
 11  7 31  3  4 30.0000000  0  7G29G25G10G12G05G04G02
  12971672.25447  10120326.55644  23363334.5474                   23363334.8984
  -3444369.53948  -2668690.80246  21692594.2894                   21692596.1844
 -20884972.18047 -16254025.23744  22126724.9454                   22126723.8594
 -20820726.06648 -16208410.97046  20800355.6094                   20800354.3794
 -18958599.61348 -14756871.34346  20169452.3134                   20169451.4304
 -31991009.13346 -24904578.65642  24041015.9534                   24041016.4064
 -33355984.33647 -25970045.14846  21017820.8594                   21017818.0354
 11  7 31  3  5  0.0000000  0  7G29G25G10G12G05G04G02
  12830415.88747  10010256.75944  23336454.5634                   23336455.1214
  -3537978.70748  -2741632.98446  21674781.0554                   21674782.6724
 -20857616.48047 -16232709.11944  22131930.7424                   22131929.1954
 -20846279.77047 -16228322.94746  20795492.9064                   20795491.1564
 -19029359.25848 -14812008.70246  20155987.0234                   20155985.9844
 -31968029.89546 -24886672.74642  24045388.1094                   24045389.3204
 -33381037.53148 -25989567.09946  21013053.5704                   21013050.5314
 11  7 31  3  5 30.0000000  0  7G29G25G10G12G05G04G02
  14264608.79347  11127809.75944  23609372.2814                   23609372.7774
  -2055578.46548  -1586515.89546  21956872.8754                   21956874.0944
 -19254445.68747 -14983485.13544  22437003.8834                   22437002.7074
 -19295830.70348 -15020180.80446  21090533.5394                   21090532.0864
 -17524087.44948 -13639069.59746  20442430.7274                   20442429.3594
 -30369648.14546 -23641180.48842  24349550.4774                   24349550.7424
 -31830511.67248 -24781365.10646  21308108.7194                   21308105.9694
 11  7 31  3  6  0.0000000  0  7G29G25G10G12G05G04G02
  14123400.48447  11017777.35044  23582501.0004                   23582500.9614
  -2148016.22348  -1658545.24545  21939281.8524                   21939283.7504
 -19226303.57847 -14961556.23644  22442359.0164                   22442358.2034
 -19320224.07848 -15039188.62346  21085891.4304                   21085890.1254
 -17593631.64548 -13693259.85746  20429197.2664                   20429195.8554
 -30346705.26246 -23623302.92242  24353916.0704                   24353916.3594
 -31855251.27748 -24800642.69746  21303401.1884                   21303397.9614
 11  7 31  3  6 30.0000000  0  7G29G25G10G12G05G04G02
  13982215.24647  10907762.95144  23555634.2274                   23555634.6804
  -2239869.17647  -1730118.94446  21921803.2034                   21921804.2854
 -19197775.04747 -14939326.23244  22447787.1174                   22447786.9614
 -19344041.94148 -15057747.98846  21081359.0554                   21081357.5984
 -17662571.02348 -13746978.82846  20416078.2274                   20416077.2544
 -30323783.63746 -23605441.96942  24358278.1024                   24358278.6484
 -31879837.67648 -24819800.91046  21298722.3444                   21298719.1054
 11  7 31  3  7  0.0000000  0  7G29G25G10G12G05G04G02
  13841054.95746  10797767.98344  23528772.2504                   23528772.7194
  -2331135.89848  -1801235.83045  21904435.5554                   21904436.9844
 -19168862.89147 -14916797.29644  22453289.1334                   22453288.7894
 -19367285.83648 -15075860.11446  21076935.7114                   21076934.3324
 -17730905.23448 -13800226.24746  20403074.8364                   20403073.7034
 -30300883.45746 -23587597.76043  24362636.6724                   24362636.4694
 -31904271.25048 -24838840.03046  21294073.0944                   21294069.7544
 11  7 31  3  7 30.0000000  0  7G29G25G10G12G05G04G02
  13699922.11346  10687794.47744  23501915.4844                   23501915.5744
  -2421813.77347  -1871893.85746  21887180.0864                   21887181.3364
 -19139568.51247 -14893970.53844  22458864.1564                   22458863.7034
 -19389955.39547 -15093524.69946  21072621.9694                   21072620.8524
 -17798633.12548 -13853001.18346  20390186.5394                   20390185.0664
 -30278003.73846 -23569769.41743  24366990.7274                   24366990.6134
 -31928550.98847 -24857759.28146  21289452.2504                   21289449.3524
 11  7 31  3  8  0.0000000  0  7G29G25G10G12G05G04G02
  13558815.69146  10577841.49444  23475064.1094                   23475064.0784
  -2511904.39148  -1942094.30946  21870036.5234                   21870037.7274
 -19109897.19147 -14870850.04344  22464509.7344                   22464509.7034
 -19412054.37148 -15110744.68746  21068416.7034                   21068415.3954
 -17865757.23448 -13905305.65347  20377413.0394                   20377411.8524
 -30255147.38746 -23551959.29943  24371340.2344                   24371340.4774
 -31952680.21148 -24876561.26146  21284860.8204                   21284858.2624
 11  7 31  3  8 30.0000000  0  7G29G25G10G12G05G04G02
  13417738.58246  10467911.38044  23448218.1094                   23448217.8204
  -2601404.90247  -2011834.92446  21853004.5634                   21853006.5864
 -19079849.95347 -14847436.65644  22470227.8204                   22470228.1214
 -19433582.57448 -15127519.90846  21064319.8984                   21064318.3524
 -17932276.02048 -13957138.44846  20364754.9924                   20364753.5944
 -30232312.99246 -23534166.27344  24375685.3204                   24375685.2664
 -31976657.85248 -24895245.10146  21280297.9144                   21280295.3014
 11  7 31  3  9  0.0000000  0  7G29G25G10G12G05G04G02
  13276691.90646  10358004.98144  23421377.4304                   23421377.4384
  -2690314.46547  -2081115.05446  21836085.9064                   21836087.6174
 -19049429.94947 -14823732.79144  22476017.0004                   22476016.9064
 -19454541.74648 -15143851.73446  21060331.5704                   21060330.3404
 -17998190.05148 -14008499.99547  20352212.0084                   20352210.7624
 -30209500.74646 -23516390.55443  24380026.1484                   24380026.6724
 -32000484.73847 -24913811.49446  21275763.9454                   21275760.8324
 11  7 31  3  9 30.0000000  0  7G29G25G10G12G05G04G02
  13135676.36346  10248122.82444  23394542.6804                   23394542.9534
  -2778632.62947  -2149934.34846  21819279.8054                   21819280.9694
 -19018640.41447 -14799740.95444  22481876.0864                   22481875.2894
 -19474933.75448 -15159741.59846  21056451.3364                   21056449.6564
 -18063499.98448 -14059390.82346  20339783.8984                   20339782.7154
 -30186712.16846 -23498633.27743  24384362.7894                   24384362.6764
 -32024161.90648 -24932261.20846  21271258.4224                   21271254.9184
 11  7 31  3 10  0.0000000  0  8G29G25G10G26G12G05G04G02
  12994688.75046  10138262.48644  23367713.4614                   23367713.9454
  -2866363.05947  -2218295.69646  21802584.9384                   21802586.6254
 -18987489.12546 -14775467.22844  22487804.0084                   22487803.3554
  24982692.29356  19480535.11153  24836610.3364                   24836611.4454
 -19494764.64848 -15175194.24546  21052677.6954                   21052675.7464
 -18128210.76248 -14109814.76846  20327469.9064                   20327468.5984
 -30163951.93446 -23480898.08343  24388693.1024                   24388694.6804
 -32047694.71947 -24950598.45346  21266779.6334                   21266777.2034
 11  7 31  3 10 30.0000000  0  8G29G25G10G26G12G05G04G02
  12853726.02747  10028421.50444  23340888.9224                   23340889.9964
  -2953509.29748  -2286201.81346  21786001.6254                   21786003.4264
 -18955983.00847 -14750917.05544  22493798.5554                   22493798.8014
  24830448.96546  19361904.05843  24807638.5394                   24807641.1954
 -19514040.86748 -15190214.66946  21049009.2504                   21049007.4614
 -18192327.14848 -14159775.56046  20315268.9534                   20315267.3324
 -30141224.79346 -23463188.62043  24393018.4384                   24393019.7974
 -32071088.43448 -24968827.31246  21262328.4384                   21262325.4344
 11  7 31  3 11  0.0000000  0  8G29G25G10G26G12G05G04G02
  12712782.25047   9918595.29744  23314068.5704                   23314068.6954
  -3040077.59047  -2353657.58546  21769528.0234                   21769529.5984
 -18924132.63746 -14726098.59744  22499860.7274                   22499859.4614
  24678097.65646  19243189.01643  24778646.7974                   24778649.8364
 -19532770.88348 -15204809.48346  21045445.1254                   21045443.4804
 -18255856.53548 -14209278.96046  20303179.5474                   20303177.9964
 -30118538.40246 -23445511.01843  24397335.6884                   24397336.0314
 -32094350.49647 -24986953.58446  21257901.4774                   21257898.9804
 11  7 31  3 11 30.0000000  0  8G29G25G10G26G12G05G04G02
  12571861.27047   9808786.87644  23287252.1954                   23287252.6644
  -3126064.48448  -2420660.33346  21753165.3134                   21753167.1024
 -18891938.02347 -14701011.87944  22505986.9064                   22505985.6764
  24525643.94546  19124394.21142  24749635.6954                   24749638.0434
 -19550954.07048 -15218978.20546  21041985.0944                   21041983.4654
 -18318796.78148 -14258323.26547  20291202.5234                   20291201.1214
 -30095890.43046 -23427863.25643  24401645.0164                   24401646.0744
 -32117478.98048 -25004975.75346  21253500.3204                   21253497.7544
 11  7 31  3 12  0.0000000  0  8G29G25G10G26G12G05G04G02
  12430962.71947   9698995.89744  23260439.7194                   23260439.6914
  -3211470.78948  -2487210.67046  21736913.0784                   21736914.5124
 -18859403.94147 -14675660.64444  22512178.2114                   22512177.0514
  24373088.97746  19005520.48842  24720605.3134                   24720607.6214
 -19568593.22348 -15232722.99446  21038628.5944                   21038627.1214
 -18381150.05548 -14306910.20146  20279337.1094                   20279335.8404
 -30073282.78546 -23410247.01642  24405947.5864                   24405948.3484
 -32140476.20347 -25022895.66046  21249124.1174                   21249121.3524
 11  7 31  3 12 30.0000000  0  8G29G25G10G26G12G05G04G02
  12290094.30947   9589228.40244  23233632.9774                   23233633.7814
  -3296289.31248  -2553303.00446  21720772.5704                   21720773.9264
 -18826526.73847 -14650042.09044  22518433.8984                   22518433.6254
  24220442.21546  18886575.12942  24691556.8914                   24691559.2114
 -19585683.88748 -15246040.39946  21035376.4224                   21035374.7464
 -18442910.20748 -14355034.97846  20267584.2194                   20267583.1884
 -30050709.64846 -23392657.60243  24410243.0394                   24410243.8954
 -32163336.25847 -25040708.68546  21244774.0004                   21244771.8404
 11  7 31  3 13  0.0000000  0  8G29G25G10G26G12G05G04G02
  12149257.08247   9479485.25644  23206832.3984                   23206833.3054
  -3380519.73847  -2618937.07746  21704744.5394                   21704745.4144
 -18793309.78947 -14624158.76144  22524755.4534                   22524755.3164
  24067705.73846  18767559.91042  24662492.7734                   24662493.6844
 -19602227.93048 -15258931.86346  21032228.1484                   21032226.6334
 -18504078.25048 -14402698.36946  20255944.6174                   20255942.9694
 -30028171.66845 -23375095.59842  24414531.3984                   24414533.0864
 -32186060.47347 -25058415.84446  21240449.8524                   21240447.1914
 11  7 31  3 13 30.0000000  0  8G29G25G10G26G12G05G04G02
  12008451.29347   9369766.55444  23180038.3674                   23180038.6414
  -3464162.27347  -2684113.06446  21688827.4614                   21688828.7894
 -18759757.22347 -14598013.89044  22531139.5474                   22531138.8634
  23914881.65246  18648476.37542  24633411.3134                   24633411.9344
 -19618228.19548 -15271399.59946  21029183.4064                   21029181.9184
 -18564655.56248 -14449901.43547  20244416.8834                   20244415.6214
 -30005670.32446 -23357562.14142  24418813.5944                   24418815.0944
 -32208650.46147 -25076018.45046  21236151.0004                   21236147.8094
 11  7 31  3 14  0.0000000  0  8G29G25G10G26G12G05G04G02
  11867678.46547   9260073.55244  23153250.6414                   23153250.5314
  -3547216.25048  -2748830.42046  21673022.5084                   21673023.9304
 -18725872.34047 -14571610.07644  22537588.3444                   22537587.4264
  23761972.88746  18529326.80142  24604313.3524                   24604313.8444
 -19633686.64548 -15283445.14046  21026241.6804                   21026240.2154
 -18624642.92248 -14496644.81647  20233001.9774                   20233000.4534
 -29983205.80946 -23340057.39542  24423088.7664                   24423089.1054
 -32231106.71547 -25093516.81446  21231877.8204                   21231875.0084
 11  7 31  3 14 30.0000000  0  8G29G25G10G26G12G05G04G02
  11726942.85547   9150409.53744  23126469.1174                   23126468.9774
  -3629677.98448  -2813086.30046  21657330.7734                   21657332.1724
 -18691654.59847 -14544946.93244  22544099.4384                   22544099.2734
  23608985.32046  18410115.89542  24575200.2344                   24575201.1604
 -19648601.91048 -15295067.44346  21023403.3674                   21023402.2074
 -18684037.60547 -14542926.36347  20221698.9844                   20221698.1564
 -29960775.47345 -23322579.30542  24427356.8674                   24427357.9454
 -32253426.83248 -25110909.11346  21227630.7034                   21227627.9024
 11  7 31  3 15  0.0000000  0  8G29G25G10G26G12G05G04G02
  11586247.87546   9040777.14244  23099696.0234                   23099695.8404
  -3711544.60548  -2876878.44946  21641752.2664                   21641753.4454
 -18657104.75447 -14518025.02044  22550673.8364                   22550673.9184
  23455923.97346  18290847.47342  24546074.0784                   24546074.5354
 -19662973.62548 -15306266.18146  21020668.7344                   21020667.2734
 -18742838.12547 -14588744.91946  20210509.7814                   20210508.4384
 -29938377.73046 -23305126.55942  24431619.6884                   24431619.5204
 -32275609.34447 -25128194.17146  21223409.1094                   21223406.3554
 11  7 31  3 15 30.0000000  0  8G29G25G10G26G12G05G04G02
  11445595.43446   8931177.95944  23072930.0314                   23072930.1954
  -3792814.97747  -2940205.98946  21626286.8984                   21626288.4734
 -18622225.22346 -14490846.17344  22557311.1564                   22557311.9264
  23302792.33646  18171524.16842  24516934.1174                   24516934.7734
 -19676802.99648 -15317042.31646  21018036.8284                   21018035.3244
 -18801044.76247 -14634100.72946  20199433.4144                   20199432.1524
 -29916012.05946 -23287698.76642  24435875.3754                   24435875.1804
 -32297654.07847 -25145371.88546  21219214.5314                   21219211.3444
 11  7 31  3 16  0.0000000  0  8G29G25G10G26G12G05G04G02
  11304985.81346   8821612.08444  23046172.3204                   23046172.6414
  -3873489.47347  -3003069.21146  21610934.9774                   21610936.3484
 -18587020.01246 -14463413.57644  22564010.1414                   22564010.3754
  23149592.46946  18052147.76443  24487781.2664                   24487782.2344
 -19690092.92248 -15327398.11646  21015507.8204                   21015506.8164
 -18858658.87947 -14678994.80246  20188470.1484                   20188468.6214
 -29893680.03545 -23270297.27342  24440125.4694                   24440124.8954
 -32319563.03547 -25162443.78446  21215045.1484                   21215042.1134
 11  7 31  3 16 30.0000000  0  8G29G25G10G26G12G05G04G02
  11164423.32846   8712082.94044  23019424.9774                   23019424.0904
  -3953564.62148  -3065465.40746  21595697.1254                   21595698.9384
 -18551489.24647 -14435727.29844  22570771.9454                   22570771.8594
  22996330.09046  17932722.70043  24458615.6954                   24458617.4304
 -19702842.68448 -15337332.99046  21013081.4454                   21013079.8554
 -18915678.37147 -14723425.55746  20177619.4064                   20177618.1214
 -29871378.83646 -23252919.67642  24444368.9614                   24444369.1564
 -32341333.75447 -25179407.95746  21210902.3834                   21210899.3054
 11  7 31  3 17  0.0000000  0  8G29G25G10G26G12G05G04G02
  11023908.65246   8602591.07644  22992685.2194                   22992685.6564
  -4033040.75448  -3127394.84146  21580573.5394                   21580574.9144
 -18515637.02046 -14407790.46044  22577594.2034                   22577594.0394
  22843007.44546  17813250.61943  24429439.7344                   24429441.6174
 -19715054.86748 -15346849.00046  21010757.6564                   21010756.5784
 -18972104.71547 -14767394.10746  20166881.4304                   20166880.5434
 -29849109.91846 -23235567.31242  24448606.7194                   24448606.7034
 -32362967.80548 -25196265.64746  21206785.7974                   21206782.1524
 11  7 31  3 17 30.0000000  0  8G29G25G10G26G12G05G04G02
  10883442.23447   8493136.76344  22965955.4454                   22965955.1604
  -4111918.25048  -3188857.79846  21565563.4304                   21565564.8524
 -18479467.09846 -14379606.15744  22584477.7584                   22584477.1604
  22689626.31646  17693733.01743  24400251.5394                   24400253.8364
 -19726731.83648 -15355947.92646  21008535.6484                   21008534.0944
 -19027939.97347 -14810902.06447  20156256.9144                   20156255.5394
 -29826874.28546 -23218240.92642  24452837.9454                   24452838.5784
 -32384466.24247 -25213017.64946  21202694.4304                   21202691.5234
 11  7 31  3 18  0.0000000  0  8G29G25G10G26G12G05G04G02
  10743028.67246   8383723.69144  22939235.3364                   22939235.6334
  -4190193.37948  -3249851.38246  21550668.4614                   21550669.5204
 -18442978.90646 -14351173.79244  22591421.2814                   22591420.3484
  22536193.10546  17574174.87443  24371054.1884                   24371057.0514
 -19737872.82048 -15364629.21746  21006415.7734                   21006414.1804
 -19083180.94548 -14853946.95646  20145744.7664                   20145743.0784
 -29804669.19546 -23200938.26143  24457063.3524                   24457064.1414
 -32405826.55947 -25229662.04346  21198630.0944                   21198627.0044
 11  7 31  3 18 30.0000000  0  8G29G25G10G26G12G05G04G02
  10602669.08246   8274352.63444  22912526.1094                   22912526.3674
  -4267865.98048  -3310375.45546  21535887.4924                   21535888.7974
 -18406175.64147 -14322495.86844  22598424.8984                   22598423.4574
  22382710.41846  17454578.07543  24341847.7274                   24341849.6994
 -19748479.98448 -15372894.53946  21004397.3054                   21004395.5634
 -19137829.01248 -14896529.82947  20135345.2194                   20135344.2774
 -29782495.24246 -23183659.98143  24461282.8674                   24461283.7664
 -32427049.87547 -25246199.66446  21194591.0944                   21194588.1094
 11  7 31  3 19  0.0000000  0  8G29G25G10G26G12G05G04G02
  10462365.48447   8165025.22344  22885826.8444                   22885827.4804
  -4344935.01648  -3370429.23746  21521222.0394                   21521223.1884
 -18369059.96146 -14293574.53044  22605487.4064                   22605486.5004
  22229182.03946  17334945.71043  24312631.6094                   24312633.4654
 -19758554.77048 -15380745.02546  21002480.1564                   21002478.3014
 -19191884.34848 -14938650.83547  20125058.9774                   20125058.0554
 -29760352.06246 -23166405.56043  24465496.3204                   24465497.6914
 -32448136.10547 -25262630.48146  21190578.6564                   21190574.7974
 11  7 31  3 19 30.0000000  0  8G29G25G10G26G12G05G04G02
  11897541.90247   9283344.60044  23158932.0314                   23158932.4774
  -2845979.41448  -2202411.86746  21806463.6954                   21806464.5274
 -16756218.00846 -13036814.57544  22912400.8524                   22912399.7344
  23651034.01246  18442882.48343  24583200.7424                   24583203.3914
 -18192680.27048 -14160583.07446  21300456.0864                   21300454.4694
 -17669928.02348 -13752710.81647  20414677.3754                   20414676.4454
 -28162822.47746 -21921577.38443  24769497.5784                   24769497.5434
 -30893667.20347 -24051355.98046  21486383.8364                   21486380.9804
 11  7 31  3 20  0.0000000  0  8G29G25G10G26G12G05G04G02
  11757347.70747   9174102.44845  23132254.0944                   23132254.2934
  -2921846.72348  -2261529.22846  21792026.5164                   21792027.5904
 -16718493.09846 -13007418.48144  22919579.4844   22919578.7974   23497416.18046
  18323180.36443                  24553968.1724                   24553969.8364
 -18201702.25848 -14167613.19146  21298739.1254                   21298737.7704
 -17722807.01247 -13793915.19246  20404615.0394                   20404613.7624
 -28140748.16446 -21904376.56343  24773696.8284                   24773698.1454
 -30914487.64147 -24067579.68346  21482422.1804                   21482418.8094
 11  7 31  3 20 30.0000000  0  8G29G25G10G26G12G05G04G02
  11617212.28947   9064906.11444  23105587.0864                   23105586.8874
  -2997111.23848  -2320176.89146  21777704.0084                   21777705.2234
 -16680466.60546 -12977787.46444  22926815.9384   22926815.5204   23343759.63746
  18203448.13943                  24524728.5864                   24524730.2624
 -18210200.19548 -14174234.95546  21297122.1254                   21297120.5124
 -17775097.55547 -13834661.04246  20394664.5784                   20394663.3554
 -28118707.37546 -21887201.97343  24777891.3134                   24777892.3404
 -30935174.36347 -24083699.18446  21478485.6024                   21478482.5314
 11  7 31  3 21  0.0000000  0  8G29G25G10G26G12G05G04G02
  11477135.26247   8955755.27445  23078931.8204                   23078931.7194
  -3071773.90248  -2378355.56346  21763496.3444                   21763497.7304
 -16642142.76246 -12947924.73944  22934108.4614   22934108.3954   23190066.00046
  18083687.00043                  24495481.2974                   24495483.1254
 -18218177.05948 -14180450.68746  21295603.9384                   21295602.4384
 -17826802.22747 -13874950.37146  20384825.3134                   20384824.3164
 -28096701.72746 -21870054.79043  24782078.5394                   24782080.2154
 -30955729.35947 -24099716.04346  21474574.1334                   21474570.9384
 11  7 31  3 21 30.0000000  0  7G29G25G10G26G12G05G02
  11337118.21946   8846651.19245  23052286.8524                   23052287.1294
  -3145834.32048  -2436064.96246  21749402.6414                   21749404.1024
 -16603524.57846 -12917832.65744  22941456.9064   22941456.7704   23036338.57446
  17963899.60443                  24466228.5944                   24466229.3444
 -18225634.59847 -14186261.75246  21294184.7274                   21294183.1764
 -17877921.62548 -13914783.64547  20375097.5944                   20375096.1644
 -30976153.03547 -24115630.57945  21470687.6484                   21470684.3204
 11  7 31  3 22  0.0000000  0  7G29G25G10G26G12G05G02
  11197165.65247   8737597.33645  23025654.7584                   23025654.5354
  -3219289.41448  -2493302.68946  21735424.7664                   21735425.8014
 -16564612.20746 -12887511.33544  22948862.0004   22948861.4224   22882583.03146
  17844090.21443                  24436969.3134                   24436970.2854
 -18232572.03947 -14191667.55246  21292865.0474                   21292863.3324
 -17928453.83647 -13954159.35546  20365481.8754                   20365480.3484
 -30996443.33647 -24131441.20745  21466826.6414                   21466823.2814
 11  7 31  3 22 30.0000000  0  7G29G25G10G26G12G05G02
  11057286.07446   8628600.37745  22999036.2114                   22999036.5434
  -3292131.71948  -2550062.89546  21721563.5634                   21721564.7814
 -16525401.30946 -12856957.39144  22956324.2734   22956323.3524   22728809.64846
  17724267.04742                  24407706.8674                   24407707.9184
 -18238984.94148 -14196664.61046  21291644.4064                   21291643.0234
 -17978392.62948 -13993072.69046  20355978.4774                   20355977.4264
 -31016593.56247 -24147142.67746  21462991.4694                   21462988.5354
 11  7 31  3 23  0.0000000  0  7G29G25G10G26G12G05G02
  10917490.87547   8519669.13745  22972434.7424                   22972434.2114
  -3364351.00848  -2606337.64646  21707820.5554                   21707821.8874
 -16485884.77046 -12826165.35944  22963843.9844   22963843.3954   22575031.57446
  17604440.19643                  24378443.0554                   24378444.8914
 -18244865.16847 -14201246.59946  21290525.4224                   21290524.1054
 -18027728.92247 -14031516.52946  20346590.1174                   20346589.0084
 -31036594.16847 -24162727.55946  21459185.9924                   21459182.7664
 11  7 31  3 23 30.0000000  0  7G29G25G10G26G12G05G02
  10777779.37547   8410803.13045  22945847.8984                   22945847.8244
  -3435949.23448  -2662128.45146  21694195.9144                   21694197.4414
 -16446067.84447 -12795139.18344  22971420.4924   22971420.3444   22421249.69546
  17484610.37942                  24349179.5164                   24349181.3634
 -18250216.98847 -14205416.84846  21289506.8834                   21289505.6954
 -18076465.98047 -14069493.44046  20337315.9614                   20337314.4614
 -31056447.58247 -24178197.73946  21455407.9064                   21455404.5554
 11  7 31  3 24  0.0000000  0  7G29G25G10G26G12G05G02
  10638146.10947   8301998.07945  22919276.9844                   22919277.3054
  -3506933.52748  -2717440.87446  21680688.0634                   21680689.1604
 -16405960.85246 -12763886.98144  22979053.1024   22979052.0164   22267459.78946
  17364774.27742                  24319914.2424                   24319915.2584
 -18255049.97747 -14209182.80946  21288587.2424                   21288586.0744
 -18124612.25047 -14107009.99046  20328153.7974                   20328152.5514
 -31076161.79347 -24193559.46645  21451656.6094                   21451653.2154
 11  7 31  3 24 30.0000000  0  7G29G25G10G26G12G05G02
  10498590.62947   8193253.65345  22892719.8444                   22892719.1564
  -3577305.53548  -2772276.17646  21667296.6644                   21667298.2034
 -16365568.66847 -12732412.56044  22986738.8054   22986738.5904   22113663.17646
  17244932.94843                  24290647.2584                   24290648.8164
 -18259367.47747 -14212547.09946  21287765.6724                   21287764.6214
 -18172170.62548 -14144068.44146  20319103.7814                   20319102.6374
 -31095739.09447 -24208814.52046  21447931.2974                   21447927.7074
 11  7 31  3 25  0.0000000  0  7G29G25G10G26G12G05G02
  10359116.37147   8084572.53244  22866178.3524                   22866178.5824
  -3647063.27348  -2826632.83246  21654022.3054                   21654023.7074
 -16324892.06647 -12700716.52643  22994479.3754   22994478.2424   21959864.78146
  17125090.27743                  24261380.7584                   24261381.5084
 -18263170.57848 -14215510.56046  21287042.0394                   21287040.6254
 -18219140.20348 -14180668.09346  20310165.4224                   20310164.2194
 -31115178.13348 -24223961.83546  21444232.0554                   21444228.7504
 11  7 31  3 25 30.0000000  0  7G29G25G10G26G12G05G02
  10219724.34847   7975955.44644  22839653.1094                   22839652.9694
  -3716207.25448  -2880511.25346  21640864.5234                   21640865.7154
 -16283934.79347 -12668801.82043  23002273.7974   23002272.8284   21806067.07046
  17005248.03743                  24232114.5084                   24232114.9494
 -18266462.15247 -14218075.43346  21286415.7034                   21286414.3594
 -18265522.51648 -14216810.12446  20301339.5314                   20301338.0594
 -31134480.15248 -24239002.37246  21440558.5634                   21440555.5514
 11  7 31  3 26  0.0000000  0  7G29G25G10G26G12G05G02
  10080416.49647   7867403.98245  22813143.6724                   22813143.2234
  -3784736.85248  -2933910.93046  21627824.0634                   21627825.1524
 -16242699.36347 -12636670.34444  23010120.3984   23010119.6724   21652273.88746
  16885409.40343                  24202848.2814                   24202849.4184
 -18269243.82047 -14220242.97846  21285886.8834                   21285885.1684
 -18311318.03148 -14252494.93546  20292624.7974                   20292623.4964
 -31153644.98447 -24253936.02645  21436911.7584                   21436908.8834
 11  7 31  3 26 30.0000000  0  7G29G25G10G26G12G05G02
   9941188.75047   7758914.90144  22786649.6724                   22786649.2544
  -3852657.70748  -2986836.23946  21614898.9844                   21614900.1684
 -16201194.03146 -12604328.52443  23018018.6724   23018017.0204   21498482.32846
  16765571.95143                  24173582.0234                   24173583.5314
 -18271523.34447 -14222019.23746  21285452.3754                   21285451.0354
 -18356533.83648 -14287728.01846  20284020.1804                   20284019.2544
 -31172678.61747 -24268767.45545  21433289.7734                   21433286.7544
 11  7 31  3 27  0.0000000  0  7G29G25G10G26G12G05G02
   9802044.98847   7650491.28644  22760171.3984                   22760171.2234
  -3919967.44948  -3039285.37046  21602090.4064                   21602091.4534
 -16159419.44146 -12571776.92143  23025967.7734   23025967.1764   21344698.25846
  16645740.38043                  24144318.2424                   24144318.9494
 -18273300.63347 -14223404.14446  21285114.1414                   21285113.2034
 -18401168.62948 -14322508.35746  20275526.7974                   20275525.3794
 -31191579.43448 -24283495.39445  21429693.3284                   21429689.9654
 11  7 31  3 27 30.0000000  0  7G29G25G10G26G12G05G02
   9662988.82047   7542135.95845  22733709.6254                   22733709.5274
  -3986663.85548  -3091256.58146  21589398.0944                   21589399.2584
 -16117376.72746 -12539016.34943  23033968.5164   23033967.1724   21190926.93046
  16525918.73043                  24115056.4224                   24115056.8054
 -18274575.78147 -14224397.78046  21284871.8364                   21284870.2304
 -18445221.31248 -14356835.11846  20267143.7894                   20267142.3634
 -31210345.46947 -24298118.28846  21426122.2504                   21426119.2194
 11  7 31  3 28  0.0000000  0  7G29G25G10G26G12G05G02
   9524019.81647   7433848.50445  22707264.8444                   22707263.9614
  -4052749.34848  -3142751.76046  21576822.8284                   21576824.1644
 -16075071.03146 -12506050.92943  23042018.9844   23042017.4264   21037169.10946
  16406107.63143                  24085796.9454                   24085797.7304
 -18275353.43447 -14225003.75946  21284724.2194                   21284722.1884
 -18488695.75848 -14390711.28946  20258870.7664                   20258869.6094
 -31228979.47347 -24312638.30745  21422576.5084                   21422573.1334
 11  7 31  3 28 30.0000000  0  7G29G25G10G26G12G05G02
   9385138.00847   7325629.00045  22680836.4844                   22680835.6524
  -4118225.52348  -3193772.13546  21564362.9534                   21564364.1804
 -16032506.54346 -12472883.81343  23050118.7424   23050118.2234   20883426.45746
  16286308.18743                  24056540.7664                   24056541.5984
 -18275637.87147 -14225225.41646  21284670.1564                   21284668.4304
 -18531594.59848 -14424138.94046  20250707.6414                   20250706.0164
 -31247483.23448 -24327056.83546  21419055.2344                   21419052.0744
 11  7 31  3 29  0.0000000  0  7G29G25G10G26G12G05G02
   9246346.56647   7217479.90545  22654425.6024                   22654424.8984
  -4183090.72348  -3244316.43946  21552019.7664                   21552020.9104
 -15989684.59846 -12439516.10643  23058267.4304   23058266.2704   20729703.80946
  16166524.55843                  24027287.8594                   24027288.7274
 -18275429.67648 -14225063.20446  21284709.6414                   21284707.9104
 -18573917.32448 -14457117.67846  20242653.9924                   20242652.5984
 -31265855.93747 -24341373.26045  21415559.2894                   21415555.7774
 11  7 31  3 29 30.0000000  0  7G29G25G10G26G12G05G02
   9107649.63347   7109404.46845  22628032.0084                   22628031.6994
  -4247342.56648  -3294382.80046  21539792.7734                   21539793.9304
 -15946605.73446 -12405948.17843  23066465.3204   23066464.4924   20576007.07046
  16046760.95243                  23998039.7814                   23998041.0984
 -18274728.32047 -14224516.71846  21284842.7894                   21284841.4384
 -18615662.66848 -14489646.48946  20234709.7734                   20234708.7074
 -31284095.46948 -24355585.89945  21412088.2734                   21412085.1604
 11  7 31  3 30  0.0000000  0  7G29G25G10G26G12G05G02
   8969048.64847   7001403.78745  22601657.2584                   22601656.5984
  -4310981.50448  -3343971.56746  21527682.8054                   21527684.2584
 -15903273.10546 -12372182.49843  23074710.8594   23074711.0004   20422338.84845
  15927019.69743                  23968797.9064                   23968798.6564
 -18273536.77047 -14223588.24446  21285069.6484                   21285068.5434
 -18656832.30548 -14521726.72246  20226875.4384                   20226874.1414
 -31302202.26248 -24369695.10045  21408642.6254                   21408639.4694
 11  7 31  3 30 30.0000000  0  7G29G25G10G26G12G05G02
   8830542.66847   6893477.13945  22575300.1644                   22575299.8634
  -4374009.98048  -3393084.63846  21515688.5164                   21515689.6724
 -15859692.14546 -12338223.31444  23083004.3134   23083003.7194   20268700.32446
  15807301.46043                  23939561.5474                   23939561.9104
 -18271859.40247 -14222281.22646  21285388.5004                   21285387.6804
 -18697429.67248 -14553361.01246  20219150.1254                   20219148.5944
 -31320179.28947 -24383703.17845  21405221.6884                   21405218.8554
 11  7 31  3 31  0.0000000  0  7G29G25G10G26G12G05G02
   8692131.59047   6785624.43945  22548961.4454                   22548961.0704
  -4436430.34048  -3441723.86446  21503810.8594                   21503811.5164
 -15815867.54746 -12304074.27844  23091344.4844   23091343.9884   20115092.43446
  15687607.10343                  23910330.1564                   23910331.5704
 -18269701.36747 -14220599.66046  21285799.4534                   21285797.9024
 -18737458.39548 -14584552.21346  20211532.7274                   20211531.4694
 -31338028.68047 -24397611.81446  21401824.8984                   21401822.1054
